| time (UTC) | temp F | wind direction | speed MPH | gust MPH | rain 1hr in | rain 24hr in | rain mn in | humidity % | barometer mb |
| 20260509212015 | 75 | 11 | 0.0 | 7.0 | 0.00 | 0.00 | 0.00 | 47 | 1007.5 |
| 20260509211928 | 76 | 30 | 0.0 | 7.0 | 0.00 | 0.00 | 0.00 | 48 | 1007.5 |
| 20260509211815 | 76 | 132 | 0.0 | 7.0 | 0.00 | 0.00 | 0.00 | 46 | 1007.5 |
| 20260509211722 | 76 | 75 | 0.0 | 7.0 | 0.00 | 0.00 | 0.00 | 46 | 1007.5 |
| 20260509211612 | 76 | 30 | 0.0 | 7.0 | 0.00 | 0.00 | 0.00 | 45 | 1007.4 |
| 20260509211548 | 75 | 24 | 0.0 | 7.0 | 0.00 | 0.00 | 0.00 | 45 | 1007.1 |
| 20260509211518 | 76 | 21 | 0.0 | 7.0 | 0.00 | 0.00 | 0.00 | 45 | 1007.4 |
| 20260509211431 | 76 | 360 | 0.0 | 7.0 | 0.00 | 0.00 | 0.00 | 46 | 1007.4 |
| 20260509211311 | 76 | 119 | 0.0 | 4.0 | 0.00 | 0.00 | 0.00 | 45 | 1007.5 |
| 20260509211224 | 76 | 26 | 1.0 | 4.0 | 0.00 | 0.00 | 0.00 | 45 | 1007.5 |
| 20260509211114 | 77 | 119 | 1.0 | 4.0 | 0.00 | 0.00 | 0.00 | 44 | 1007.5 |
| 20260509211021 | 77 | 84 | 0.0 | 1.0 | 0.00 | 0.00 | 0.00 | 45 | 1007.5 |
| 20260509210920 | 77 | 90 | 0.0 | 1.0 | 0.00 | 0.00 | 0.00 | 43 | 1007.4 |
| 20260509210830 | 77 | 84 | 0.0 | 1.0 | 0.00 | 0.00 | 0.00 | 45 | 1007.4 |
| 20260509210736 | 77 | 29 | 0.0 | 1.0 | 0.00 | 0.00 | 0.00 | 44 | 1007.5 |
| 20260509210625 | 77 | 330 | 0.0 | 1.0 | 0.00 | 0.00 | 0.00 | 44 | 1007.5 |
| 20260509210515 | 78 | 15 | 0.0 | 1.0 | 0.00 | 0.00 | 0.00 | 46 | 1007.5 |
| 20260509210442 | 78 | 66 | 0.0 | 4.0 | 0.00 | 0.00 | 0.00 | 45 | 1007.5 |
| 20260509210334 | 78 | 11 | 0.0 | 4.0 | 0.00 | 0.00 | 0.00 | 44 | 1007.4 |
| 20260509210214 | 78 | 317 | 0.0 | 4.0 | 0.00 | 0.00 | 0.00 | 43 | 1007.4 |
| 20260509210126 | 78 | 329 | 0.0 | 4.0 | 0.00 | 0.00 | 0.00 | 43 | 1007.4 |
| 20260509210046 | 78 | 297 | 0.0 | 11.0 | 0.00 | 0.00 | 0.00 | 43 | 1007.0 |
| 20260509210011 | 78 | 326 | 0.0 | 11.0 | 0.00 | 0.00 | 0.00 | 46 | 1007.3 |
| 20260509205944 | 78 | 298 | 0.0 | 11.0 | 0.00 | 0.00 | 0.00 | 44 | 1007.3 |
| 20260509205827 | 78 | 311 | 0.0 | 11.0 | 0.00 | 0.00 | 0.00 | 46 | 1007.3 |
| 20260509205710 | 78 | 303 | 0.0 | 11.0 | 0.00 | 0.00 | 0.00 | 44 | 1007.2 |
| 20260509205643 | 78 | 295 | 0.0 | 11.0 | 0.00 | 0.00 | 0.00 | 44 | 1007.2 |
| 20260509205509 | 78 | 300 | 0.0 | 11.0 | 0.00 | 0.00 | 0.00 | 45 | 1007.3 |
| 20260509205414 | 78 | 311 | 1.0 | 11.0 | 0.00 | 0.00 | 0.00 | 44 | 1007.3 |
| 20260509205346 | 78 | 19 | 1.0 | 11.0 | 0.00 | 0.00 | 0.00 | 44 | 1007.3 |
| 20260509205226 | 78 | 275 | 1.0 | 11.0 | 0.00 | 0.00 | 0.00 | 47 | 1007.3 |
| 20260509205143 | 78 | 23 | 0.0 | 0.0 | 0.00 | 0.00 | 0.00 | 45 | 1007.3 |
| 20260509205048 | 78 | 74 | 0.0 | 0.0 | 0.00 | 0.00 | 0.00 | 45 | 1007.3 |
| 20260509205000 | 78 | 286 | 0.0 | 0.0 | 0.00 | 0.00 | 0.00 | 45 | 1007.3 |
| 20260509204821 | 78 | 336 | 0.0 | 0.0 | 0.00 | 0.00 | 0.00 | 43 | 1007.3 |
| 20260509204722 | 78 | 328 | 0.0 | 0.0 | 0.00 | 0.00 | 0.00 | 44 | 1007.4 |
| 20260509204629 | 78 | 44 | 0.0 | 2.0 | 0.00 | 0.00 | 0.00 | 45 | 1007.3 |
| 20260509204534 | 77 | 28 | 0.0 | 5.0 | 0.00 | 0.00 | 0.00 | 44 | 1007.0 |
| 20260509204514 | 78 | 28 | 0.0 | 5.0 | 0.00 | 0.00 | 0.00 | 44 | 1007.3 |
| 20260509204431 | 78 | 292 | 0.0 | 5.0 | 0.00 | 0.00 | 0.00 | 44 | 1007.3 |
| 20260509204316 | 77 | 296 | 0.0 | 5.0 | 0.00 | 0.00 | 0.00 | 44 | 1007.2 |
| 20260509204222 | 77 | 115 | 0.0 | 5.0 | 0.00 | 0.00 | 0.00 | 44 | 1007.2 |
| 20260509204128 | 77 | 58 | 0.0 | 5.0 | 0.00 | 0.00 | 0.00 | 45 | 1007.2 |
| 20260509204015 | 77 | 5 | 0.0 | 5.0 | 0.00 | 0.00 | 0.00 | 46 | 1007.3 |
| 20260509203926 | 77 | 30 | 0.0 | 7.0 | 0.00 | 0.00 | 0.00 | 46 | 1007.3 |
| 20260509203811 | 77 | 305 | 0.0 | 7.0 | 0.00 | 0.00 | 0.00 | 45 | 1007.2 |
| 20260509203724 | 77 | 15 | 0.0 | 7.0 | 0.00 | 0.00 | 0.00 | 44 | 1007.2 |
| 20260509203611 | 77 | 36 | 0.0 | 7.0 | 0.00 | 0.00 | 0.00 | 45 | 1007.3 |
| 20260509203537 | 77 | 73 | 1.0 | 7.0 | 0.00 | 0.00 | 0.00 | 44 | 1007.3 |
| 20260509203449 | 77 | 65 | 1.0 | 7.0 | 0.00 | 0.00 | 0.00 | 44 | 1007.1 |
| 20260509203318 | 77 | 107 | 0.0 | 7.0 | 0.00 | 0.00 | 0.00 | 44 | 1007.2 |
| 20260509203224 | 77 | 71 | 0.0 | 7.0 | 0.00 | 0.00 | 0.00 | 44 | 1007.2 |
| 20260509203146 | 77 | 16 | 0.0 | 7.0 | 0.00 | 0.00 | 0.00 | 44 | 1006.9 |
| 20260509203138 | 77 | 24 | 1.0 | 7.0 | 0.00 | 0.00 | 0.00 | 44 | 1007.2 |
| 20260509203022 | 77 | 240 | 1.0 | 7.0 | 0.00 | 0.00 | 0.00 | 45 | 1007.2 |
| 20260509202928 | 77 | 75 | 0.0 | 1.0 | 0.00 | 0.00 | 0.00 | 45 | 1007.2 |
| 20260509202814 | 77 | 28 | 0.0 | 1.0 | 0.00 | 0.00 | 0.00 | 46 | 1007.2 |
| 20260509202726 | 77 | 312 | 0.0 | 1.0 | 0.00 | 0.00 | 0.00 | 46 | 1007.2 |
| 20260509202616 | 77 | 243 | 0.0 | 9.0 | 0.00 | 0.00 | 0.00 | 45 | 1007.2 |
| 20260509202523 | 77 | 309 | 0.0 | 9.0 | 0.00 | 0.00 | 0.00 | 46 | 1007.2 |
| 20260509202426 | 77 | 32 | 0.0 | 9.0 | 0.00 | 0.00 | 0.00 | 45 | 1007.3 |
| 20260509202312 | 77 | 252 | 0.0 | 9.0 | 0.00 | 0.00 | 0.00 | 46 | 1007.2 |
| 20260509202218 | 76 | 267 | 0.0 | 9.0 | 0.00 | 0.00 | 0.00 | 46 | 1007.2 |
| 20260509202135 | 76 | 45 | 0.0 | 9.0 | 0.00 | 0.00 | 0.00 | 46 | 1007.1 |
| 20260509202037 | 76 | 81 | 0.0 | 9.0 | 0.00 | 0.00 | 0.00 | 50 | 1007.1 |
| 20260509201938 | 76 | 254 | 2.0 | 9.0 | 0.00 | 0.00 | 0.00 | 50 | 1007.3 |
| 20260509201823 | 76 | 351 | 2.0 | 9.0 | 0.00 | 0.00 | 0.00 | 46 | 1007.2 |
| 20260509201710 | 76 | 355 | 0.0 | 1.0 | 0.00 | 0.00 | 0.00 | 45 | 1007.3 |
| 20260509201634 | 76 | 61 | 0.0 | 1.0 | 0.00 | 0.00 | 0.00 | 46 | 1007.0 |
| 20260509201616 | 76 | 72 | 0.0 | 1.0 | 0.00 | 0.00 | 0.00 | 46 | 1007.3 |
| 20260509201549 | 76 | 252 | 0.0 | 1.0 | 0.00 | 0.00 | 0.00 | 47 | 1007.4 |
| 20260509201439 | 76 | 277 | 0.0 | 0.0 | 0.00 | 0.00 | 0.00 | 46 | 1007.4 |
| 20260509201331 | 76 | 230 | 0.0 | 0.0 | 0.00 | 0.00 | 0.00 | 46 | 1007.3 |
| 20260509201218 | 76 | 275 | 0.0 | 0.0 | 0.00 | 0.00 | 0.00 | 46 | 1007.3 |
| 20260509201125 | 75 | 298 | 0.0 | 1.0 | 0.00 | 0.00 | 0.00 | 46 | 1007.4 |
| 20260509201022 | 75 | 245 | 0.0 | 1.0 | 0.00 | 0.00 | 0.00 | 47 | 1007.3 |
| 20260509200909 | 75 | 103 | 0.0 | 1.0 | 0.00 | 0.00 | 0.00 | 49 | 1007.4 |
| 20260509200819 | 75 | 290 | 0.0 | 1.0 | 0.00 | 0.00 | 0.00 | 48 | 1007.4 |
| 20260509200729 | 75 | 290 | 0.0 | 1.0 | 0.00 | 0.00 | 0.00 | 46 | 1007.4 |
| 20260509200616 | 75 | 36 | 0.0 | 1.0 | 0.00 | 0.00 | 0.00 | 48 | 1007.4 |
| 20260509200522 | 75 | 277 | 0.0 | 1.0 | 0.00 | 0.00 | 0.00 | 46 | 1007.4 |
| 20260509200409 | 75 | 18 | 0.0 | 1.0 | 0.00 | 0.00 | 0.00 | 46 | 1007.4 |
| 20260509200319 | 75 | 37 | 0.0 | 1.0 | 0.00 | 0.00 | 0.00 | 46 | 1007.4 |
| 20260509200233 | 75 | 248 | 0.0 | 0.0 | 0.00 | 0.00 | 0.00 | 46 | 1007.4 |
| 20260509200118 | 75 | 252 | 0.0 | 0.0 | 0.00 | 0.00 | 0.00 | 48 | 1007.4 |
| 20260509200044 | 75 | 312 | 0.0 | 0.0 | 0.00 | 0.00 | 0.00 | 48 | 1007.4 |
| 20260509195910 | 75 | 30 | 0.0 | 2.0 | 0.00 | 0.00 | 0.00 | 46 | 1007.4 |
| 20260509195823 | 75 | 38 | 0.0 | 2.0 | 0.00 | 0.00 | 0.00 | 46 | 1007.4 |
| 20260509195713 | 76 | 31 | 0.0 | 2.0 | 0.00 | 0.00 | 0.00 | 47 | 1007.4 |
| 20260509195620 | 76 | 311 | 0.0 | 2.0 | 0.00 | 0.00 | 0.00 | 45 | 1007.4 |
| 20260509195526 | 76 | 292 | 0.0 | 2.0 | 0.00 | 0.00 | 0.00 | 45 | 1007.4 |
| 20260509195413 | 76 | 327 | 0.0 | 6.0 | 0.00 | 0.00 | 0.00 | 46 | 1007.5 |
| 20260509195327 | 76 | 360 | 0.0 | 6.0 | 0.00 | 0.00 | 0.00 | 47 | 1007.5 |
| 20260509195231 | 75 | 46 | 0.0 | 6.0 | 0.00 | 0.00 | 0.00 | 46 | 1007.4 |
| 20260509195123 | 75 | 46 | 0.0 | 9.0 | 0.00 | 0.00 | 0.00 | 46 | 1007.5 |
| 20260509195029 | 76 | 61 | 0.0 | 9.0 | 0.00 | 0.00 | 0.00 | 47 | 1007.5 |
| 20260509194916 | 76 | 30 | 0.0 | 9.0 | 0.00 | 0.00 | 0.00 | 45 | 1007.5 |
| 20260509194822 | 76 | 63 | 0.0 | 9.0 | 0.00 | 0.00 | 0.00 | 45 | 1007.5 |
| 20260509194736 | 76 | 78 | 1.0 | 9.0 | 0.00 | 0.00 | 0.00 | 46 | 1007.6 |
| 20260509194620 | 76 | 53 | 1.0 | 9.0 | 0.00 | 0.00 | 0.00 | 47 | 1007.6 |
| 20260509194551 | 75 | 59 | 0.0 | 9.0 | 0.00 | 0.00 | 0.00 | 47 | 1007.4 |
| 20260509194510 | 76 | 83 | 0.0 | 9.0 | 0.00 | 0.00 | 0.00 | 47 | 1007.6 |
| 20260509194417 | 76 | 31 | 1.0 | 9.0 | 0.00 | 0.00 | 0.00 | 46 | 1007.6 |
| 20260509194323 | 76 | 36 | 1.0 | 9.0 | 0.00 | 0.00 | 0.00 | 48 | 1007.6 |
| 20260509194210 | 76 | 76 | 0.0 | 5.0 | 0.00 | 0.00 | 0.00 | 47 | 1007.6 |
| 20260509194122 | 76 | 31 | 0.0 | 5.0 | 0.00 | 0.00 | 0.00 | 46 | 1007.6 |
| 20260509194025 | 76 | 92 | 0.0 | 5.0 | 0.00 | 0.00 | 0.00 | 45 | 1007.6 |
| 20260509193912 | 76 | 108 | 0.0 | 5.0 | 0.00 | 0.00 | 0.00 | 47 | 1007.7 |
| 20260509193818 | 76 | 15 | 0.0 | 5.0 | 0.00 | 0.00 | 0.00 | 49 | 1007.7 |
| 20260509193731 | 75 | 5 | 0.0 | 5.0 | 0.00 | 0.00 | 0.00 | 48 | 1007.7 |
| 20260509193638 | 75 | 32 | 0.0 | 5.0 | 0.00 | 0.00 | 0.00 | 50 | 1007.7 |
| 20260509193522 | 75 | 52 | 0.0 | 5.0 | 0.00 | 0.00 | 0.00 | 50 | 1007.7 |
| 20260509193412 | 75 | 173 | 0.0 | 5.0 | 0.00 | 0.00 | 0.00 | 50 | 1007.8 |
| 20260509193318 | 75 | 201 | 0.0 | 5.0 | 0.00 | 0.00 | 0.00 | 52 | 1007.8 |
| 20260509193231 | 74 | 360 | 0.0 | 1.0 | 0.00 | 0.00 | 0.00 | 52 | 1007.9 |
| 20260509193136 | 74 | 331 | 0.0 | 1.0 | 0.00 | 0.00 | 0.00 | 51 | 1007.7 |
| 20260509193117 | 74 | 336 | 0.0 | 1.0 | 0.00 | 0.00 | 0.00 | 51 | 1007.8 |
| 20260509193043 | 74 | 286 | 0.0 | 1.0 | 0.00 | 0.00 | 0.00 | 52 | 1007.9 |
| 20260509192935 | 74 | 338 | 0.0 | 0.0 | 0.00 | 0.00 | 0.00 | 51 | 1007.9 |
| 20260509192841 | 74 | 290 | 0.0 | 0.0 | 0.00 | 0.00 | 0.00 | 51 | 1007.9 |
| 20260509192711 | 74 | 285 | 0.0 | 1.0 | 0.00 | 0.00 | 0.00 | 51 | 1007.9 |
| 20260509192624 | 74 | 287 | 0.0 | 1.0 | 0.00 | 0.00 | 0.00 | 52 | 1007.9 |
| 20260509192532 | 74 | 286 | 0.0 | 1.0 | 0.00 | 0.00 | 0.00 | 54 | 1007.9 |
| 20260509192418 | 74 | 27 | 0.0 | 1.0 | 0.00 | 0.00 | 0.00 | 52 | 1008.0 |
| 20260509192344 | 74 | 27 | 0.0 | 1.0 | 0.00 | 0.00 | 0.00 | 51 | 1008.0 |
| 20260509192236 | 74 | 11 | 0.0 | 1.0 | 0.00 | 0.00 | 0.00 | 52 | 1007.9 |
| 20260509192126 | 74 | 334 | 0.0 | 1.0 | 0.00 | 0.00 | 0.00 | 55 | 1007.9 |
| 20260509192012 | 74 | 31 | 0.0 | 1.0 | 0.00 | 0.00 | 0.00 | 50 | 1007.9 |
| 20260509191918 | 74 | 28 | 0.0 | 1.0 | 0.00 | 0.00 | 0.00 | 50 | 1007.9 |
| 20260509191831 | 74 | 30 | 0.0 | 1.0 | 0.00 | 0.00 | 0.00 | 51 | 1007.9 |
| 20260509191717 | 74 | 39 | 0.0 | 4.0 | 0.00 | 0.00 | 0.00 | 51 | 1007.9 |
| 20260509191627 | 74 | 318 | 0.0 | 4.0 | 0.00 | 0.00 | 0.00 | 52 | 1008.0 |
| 20260509191615 | 73 | 345 | 0.0 | 4.0 | 0.00 | 0.00 | 0.00 | 53 | 1007.8 |
| 20260509191513 | 74 | 56 | 0.0 | 4.0 | 0.00 | 0.00 | 0.00 | 51 | 1008.1 |
| 20260509191420 | 74 | 57 | 0.0 | 4.0 | 0.00 | 0.00 | 0.00 | 52 | 1008.1 |
| 20260509191353 | 73 | 82 | 0.0 | 4.0 | 0.00 | 0.00 | 0.00 | 52 | 1008.1 |
| 20260509191218 | 73 | 94 | 0.0 | 4.0 | 0.00 | 0.00 | 0.00 | 56 | 1008.1 |
| 20260509191145 | 73 | 137 | 0.0 | 4.0 | 0.00 | 0.00 | 0.00 | 54 | 1008.1 |
| 20260509191014 | 73 | 324 | 0.0 | 4.0 | 0.00 | 0.00 | 0.00 | 51 | 1008.1 |
| 20260509190927 | 73 | 38 | 0.0 | 3.0 | 0.00 | 0.00 | 0.00 | 51 | 1008.1 |
| 20260509190829 | 73 | 277 | 0.0 | 5.0 | 0.00 | 0.00 | 0.00 | 51 | 1008.1 |
| 20260509190724 | 73 | 174 | 0.0 | 8.0 | 0.00 | 0.00 | 0.00 | 52 | 1008.1 |
| 20260509190611 | 73 | 57 | 0.0 | 8.0 | 0.00 | 0.00 | 0.00 | 52 | 1008.2 |
| 20260509190517 | 73 | 51 | 0.0 | 8.0 | 0.00 | 0.00 | 0.00 | 52 | 1008.2 |
| 20260509190434 | 73 | 55 | 0.0 | 8.0 | 0.00 | 0.00 | 0.00 | 51 | 1008.2 |
| 20260509190340 | 73 | 22 | 0.0 | 8.0 | 0.00 | 0.00 | 0.00 | 54 | 1008.2 |
| 20260509190225 | 73 | 37 | 0.0 | 8.0 | 0.00 | 0.00 | 0.00 | 52 | 1008.2 |
| 20260509190112 | 73 | 37 | 1.0 | 8.0 | 0.00 | 0.00 | 0.00 | 52 | 1008.1 |
| 20260509190024 | 73 | 42 | 1.0 | 8.0 | 0.00 | 0.00 | 0.00 | 51 | 1008.1 |
| 20260509190012 | 72 | 48 | 1.0 | 8.0 | 0.00 | 0.00 | 0.00 | 51 | 1007.9 |
| 20260509185911 | 73 | 338 | 0.0 | 0.0 | 0.00 | 0.00 | 0.00 | 51 | 1008.2 |
| 20260509185821 | 73 | 13 | 0.0 | 0.0 | 0.00 | 0.00 | 0.00 | 52 | 1008.2 |
| 20260509185754 | 73 | 333 | 0.0 | 0.0 | 0.00 | 0.00 | 0.00 | 52 | 1008.2 |
| 20260509185611 | 73 | 81 | 0.0 | 0.0 | 0.00 | 0.00 | 0.00 | 54 | 1008.2 |
| 20260509185525 | 73 | 39 | 0.0 | 0.0 | 0.00 | 0.00 | 0.00 | 52 | 1008.2 |
| 20260509185410 | 73 | 86 | 0.0 | 0.0 | 0.00 | 0.00 | 0.00 | 52 | 1008.3 |
| 20260509185317 | 73 | 20 | 0.0 | 0.0 | 0.00 | 0.00 | 0.00 | 51 | 1008.3 |
| 20260509185227 | 73 | 22 | 0.0 | 0.0 | 0.00 | 0.00 | 0.00 | 52 | 1008.3 |
| 20260509185115 | 73 | 71 | 0.0 | 0.0 | 0.00 | 0.00 | 0.00 | 53 | 1008.4 |
| 20260509185027 | 73 | 38 | 0.0 | 0.0 | 0.00 | 0.00 | 0.00 | 53 | 1008.4 |
| 20260509184933 | 73 | 50 | 0.0 | 0.0 | 0.00 | 0.00 | 0.00 | 52 | 1008.4 |
| 20260509184820 | 73 | 33 | 0.0 | 0.0 | 0.00 | 0.00 | 0.00 | 51 | 1008.4 |
| 20260509184710 | 73 | 38 | 0.0 | 0.0 | 0.00 | 0.00 | 0.00 | 51 | 1008.4 |
| 20260509184617 | 73 | 22 | 0.0 | 0.0 | 0.00 | 0.00 | 0.00 | 51 | 1008.4 |
| 20260509184539 | 72 | 15 | 0.0 | 0.0 | 0.00 | 0.00 | 0.00 | 52 | 1008.2 |
| 20260509184523 | 73 | 355 | 0.0 | 0.0 | 0.00 | 0.00 | 0.00 | 52 | 1008.4 |
| 20260509184410 | 73 | 46 | 0.0 | 0.0 | 0.00 | 0.00 | 0.00 | 52 | 1008.4 |
| 20260509184323 | 73 | 44 | 0.0 | 0.0 | 0.00 | 0.00 | 0.00 | 52 | 1008.4 |
| 20260509184213 | 73 | 306 | 0.0 | 0.0 | 0.00 | 0.00 | 0.00 | 52 | 1008.4 |
| 20260509184120 | 73 | 305 | 0.0 | 0.0 | 0.00 | 0.00 | 0.00 | 52 | 1008.4 |
| 20260509184023 | 73 | 263 | 0.0 | 0.0 | 0.00 | 0.00 | 0.00 | 52 | 1008.4 |
| 20260509183922 | 73 | 184 | 0.0 | 0.0 | 0.00 | 0.00 | 0.00 | 56 | 1008.4 |
| 20260509183832 | 73 | 184 | 0.0 | 0.0 | 0.00 | 0.00 | 0.00 | 54 | 1008.5 |
| 20260509183737 | 73 | 230 | 0.0 | 0.0 | 0.00 | 0.00 | 0.00 | 52 | 1008.5 |
| 20260509183629 | 73 | 230 | 0.0 | 0.0 | 0.00 | 0.00 | 0.00 | 54 | 1008.5 |
| 20260509183520 | 73 | 5 | 0.0 | 0.0 | 0.00 | 0.00 | 0.00 | 54 | 1008.5 |
| 20260509183427 | 73 | 322 | 0.0 | 0.0 | 0.00 | 0.00 | 0.00 | 56 | 1008.4 |
| 20260509183314 | 73 | 253 | 0.0 | 2.0 | 0.00 | 0.00 | 0.00 | 55 | 1008.5 |
| 20260509183220 | 73 | 253 | 0.0 | 2.0 | 0.00 | 0.00 | 0.00 | 54 | 1008.5 |
| 20260509183135 | 73 | 253 | 0.0 | 2.0 | 0.00 | 0.00 | 0.00 | 55 | 1008.5 |
| 20260509183025 | 73 | 253 | 0.0 | 2.0 | 0.00 | 0.00 | 0.00 | 55 | 1008.5 |
| 20260509183019 | 73 | 253 | 0.0 | 2.0 | 0.00 | 0.00 | 0.00 | 55 | 1008.3 |
| 20260509182836 | 73 | 253 | 0.0 | 6.0 | 0.00 | 0.00 | 0.00 | 53 | 1008.5 |
| 20260509182728 | 73 | 251 | 0.0 | 6.0 | 0.00 | 0.00 | 0.00 | 53 | 1008.5 |
| 20260509182614 | 73 | 61 | 0.0 | 6.0 | 0.00 | 0.00 | 0.00 | 53 | 1008.6 |
| 20260509182521 | 73 | 75 | 0.0 | 6.0 | 0.00 | 0.00 | 0.00 | 54 | 1008.6 |
| 20260509182454 | 73 | 239 | 0.0 | 6.0 | 0.00 | 0.00 | 0.00 | 53 | 1008.7 |
| 20260509182323 | 73 | 302 | 0.0 | 6.0 | 0.00 | 0.00 | 0.00 | 54 | 1008.6 |
| 20260509182210 | 73 | 314 | 0.0 | 6.0 | 0.00 | 0.00 | 0.00 | 54 | 1008.7 |
| 20260509182116 | 73 | 295 | 1.0 | 10.0 | 0.00 | 0.00 | 0.00 | 54 | 1008.7 |
| 20260509182023 | 73 | 328 | 1.0 | 10.0 | 0.00 | 0.00 | 0.00 | 57 | 1008.7 |
| 20260509181909 | 73 | 293 | 0.0 | 10.0 | 0.00 | 0.00 | 0.00 | 55 | 1008.8 |
| 20260509181820 | 73 | 293 | 0.0 | 10.0 | 0.00 | 0.00 | 0.00 | 55 | 1008.8 |
| 20260509181733 | 73 | 281 | 0.0 | 10.0 | 0.00 | 0.00 | 0.00 | 55 | 1008.9 |
| 20260509181619 | 73 | 126 | 0.0 | 10.0 | 0.00 | 0.00 | 0.00 | 55 | 1008.9 |
| 20260509181543 | 72 | 217 | 0.0 | 10.0 | 0.00 | 0.00 | 0.00 | 55 | 1008.7 |
| 20260509181524 | 73 | 217 | 0.0 | 10.0 | 0.00 | 0.00 | 0.00 | 55 | 1008.9 |
| 20260509181438 | 73 | 63 | 2.0 | 10.0 | 0.00 | 0.00 | 0.00 | 55 | 1008.9 |
| 20260509181341 | 73 | 44 | 2.0 | 10.0 | 0.00 | 0.00 | 0.00 | 54 | 1008.9 |
| 20260509181209 | 73 | 11 | 0.0 | 0.0 | 0.00 | 0.00 | 0.00 | 56 | 1009.0 |
| 20260509181116 | 73 | 5 | 0.0 | 0.0 | 0.00 | 0.00 | 0.00 | 56 | 1009.0 |
| 20260509181022 | 73 | 76 | 0.0 | 0.0 | 0.00 | 0.00 | 0.00 | 56 | 1009.0 |
| 20260509180936 | 73 | 290 | 0.0 | 0.0 | 0.00 | 0.00 | 0.00 | 59 | 1009.1 |
| 20260509180821 | 72 | 57 | 0.0 | 0.0 | 0.00 | 0.00 | 0.00 | 58 | 1009.2 |
| 20260509180729 | 72 | 60 | 0.0 | 0.0 | 0.00 | 0.00 | 0.00 | 59 | 1009.2 |
| 20260509180619 | 72 | 25 | 0.0 | 0.0 | 0.00 | 0.00 | 0.00 | 58 | 1009.3 |
| 20260509180526 | 72 | 22 | 0.0 | 2.0 | 0.00 | 0.00 | 0.00 | 59 | 1009.3 |
| 20260509180412 | 72 | 5 | 0.0 | 2.0 | 0.00 | 0.00 | 0.00 | 57 | 1009.3 |
| 20260509180327 | 72 | 34 | 0.0 | 2.0 | 0.00 | 0.00 | 0.00 | 58 | 1009.3 |
| 20260509180231 | 72 | 315 | 0.0 | 5.0 | 0.00 | 0.00 | 0.00 | 58 | 1009.4 |
| 20260509180120 | 72 | 51 | 0.0 | 5.0 | 0.00 | 0.00 | 0.00 | 57 | 1009.4 |
| 20260509180105 | 72 | 51 | 0.0 | 5.0 | 0.00 | 0.00 | 0.00 | 57 | 1009.2 |
| 20260509180021 | 72 | 46 | 0.0 | 5.0 | 0.00 | 0.00 | 0.00 | 56 | 1009.4 |
| 20260509175917 | 72 | 18 | 0.0 | 5.0 | 0.00 | 0.00 | 0.00 | 56 | 1009.4 |
| 20260509175850 | 72 | 98 | 0.0 | 5.0 | 0.00 | 0.00 | 0.00 | 55 | 1009.4 |
| 20260509175726 | 72 | 107 | 0.0 | 5.0 | 0.00 | 0.00 | 0.00 | 57 | 1009.5 |
| 20260509175610 | 72 | 72 | 1.0 | 5.0 | 0.00 | 0.00 | 0.00 | 58 | 1009.6 |
| 20260509175544 | 73 | 88 | 2.0 | 5.0 | 0.00 | 0.00 | 0.00 | 57 | 1009.6 |
| 20260509175413 | 73 | 65 | 1.0 | 5.0 | 0.00 | 0.00 | 0.00 | 57 | 1009.6 |
| 20260509175312 | 73 | 247 | 1.0 | 4.0 | 0.00 | 0.00 | 0.00 | 56 | 1009.6 |
| 20260509175219 | 73 | 309 | 0.0 | 1.0 | 0.00 | 0.00 | 0.00 | 56 | 1009.6 |
| 20260509175131 | 73 | 298 | 0.0 | 4.0 | 0.00 | 0.00 | 0.00 | 56 | 1009.6 |
| 20260509175018 | 73 | 305 | 0.0 | 6.0 | 0.00 | 0.00 | 0.00 | 55 | 1009.6 |
| 20260509174924 | 73 | 65 | 0.0 | 6.0 | 0.00 | 0.00 | 0.00 | 54 | 1009.6 |
| 20260509174815 | 73 | 336 | 0.0 | 6.0 | 0.00 | 0.00 | 0.00 | 54 | 1009.6 |
| 20260509174748 | 73 | 53 | 0.0 | 6.0 | 0.00 | 0.00 | 0.00 | 55 | 1009.6 |
| 20260509174614 | 72 | 30 | 0.0 | 6.0 | 0.00 | 0.00 | 0.00 | 56 | 1009.4 |
| 20260509174519 | 73 | 65 | 0.0 | 6.0 | 0.00 | 0.00 | 0.00 | 57 | 1009.7 |
| 20260509174452 | 73 | 58 | 1.0 | 6.0 | 0.00 | 0.00 | 0.00 | 55 | 1009.5 |
| 20260509174311 | 73 | 322 | 1.0 | 6.0 | 0.00 | 0.00 | 0.00 | 54 | 1009.6 |
| 20260509174228 | 73 | 318 | 0.0 | 3.0 | 0.00 | 0.00 | 0.00 | 57 | 1009.6 |
| 20260509174134 | 73 | 290 | 0.0 | 3.0 | 0.00 | 0.00 | 0.00 | 57 | 1009.6 |
| 20260509174046 | 73 | 257 | 0.0 | 3.0 | 0.00 | 0.00 | 0.00 | 57 | 1009.6 |
| 20260509173911 | 73 | 109 | 0.0 | 3.0 | 0.00 | 0.00 | 0.00 | 55 | 1009.7 |
| 20260509173837 | 73 | 105 | 0.0 | 3.0 | 0.00 | 0.00 | 0.00 | 57 | 1009.7 |
| 20260509173729 | 73 | 57 | 0.0 | 3.0 | 0.00 | 0.00 | 0.00 | 57 | 1009.7 |
| 20260509173619 | 73 | 75 | 0.0 | 3.0 | 0.00 | 0.00 | 0.00 | 56 | 1009.7 |
| 20260509173526 | 73 | 340 | 0.0 | 3.0 | 0.00 | 0.00 | 0.00 | 56 | 1009.8 |
| 20260509173432 | 73 | 113 | 0.0 | 3.0 | 0.00 | 0.00 | 0.00 | 56 | 1009.8 |
| 20260509173325 | 73 | 51 | 0.0 | 0.0 | 0.00 | 0.00 | 0.00 | 59 | 1009.8 |
| 20260509173231 | 73 | 81 | 0.0 | 5.0 | 0.00 | 0.00 | 0.00 | 58 | 1009.8 |
| 20260509173117 | 73 | 5 | 0.0 | 5.0 | 0.00 | 0.00 | 0.00 | 58 | 1009.8 |
| 20260509173104 | 72 | 360 | 0.0 | 5.0 | 0.00 | 0.00 | 0.00 | 58 | 1009.6 |
| 20260509173026 | 72 | 330 | 0.0 | 5.0 | 0.00 | 0.00 | 0.00 | 58 | 1009.8 |
| 20260509172913 | 72 | 5 | 0.0 | 5.0 | 0.00 | 0.00 | 0.00 | 60 | 1009.8 |
| 20260509172820 | 72 | 315 | 0.0 | 5.0 | 0.00 | 0.00 | 0.00 | 59 | 1009.8 |
| 20260509172733 | 72 | 323 | 0.0 | 5.0 | 0.00 | 0.00 | 0.00 | 58 | 1009.8 |
| 20260509172619 | 72 | 279 | 0.0 | 5.0 | 0.00 | 0.00 | 0.00 | 58 | 1009.8 |
| 20260509172526 | 72 | 36 | 1.0 | 5.0 | 0.00 | 0.00 | 0.00 | 57 | 1009.8 |
| 20260509172416 | 72 | 61 | 1.0 | 5.0 | 0.00 | 0.00 | 0.00 | 56 | 1009.8 |
| 20260509172323 | 72 | 209 | 1.0 | 7.0 | 0.00 | 0.00 | 0.00 | 57 | 1009.9 |
| 20260509172209 | 72 | 229 | 0.0 | 7.0 | 0.00 | 0.00 | 0.00 | 60 | 1009.9 |
| 20260509172122 | 72 | 294 | 0.0 | 7.0 | 0.00 | 0.00 | 0.00 | 60 | 1009.9 |
| 20260509172009 | 72 | 346 | 0.0 | 7.0 | 0.00 | 0.00 | 0.00 | 59 | 1009.9 |
| 20260509171919 | 72 | 22 | 0.0 | 7.0 | 0.00 | 0.00 | 0.00 | 60 | 1009.9 |
| 20260509171852 | 71 | 60 | 0.0 | 7.0 | 0.00 | 0.00 | 0.00 | 62 | 1009.9 |
| 20260509171737 | 71 | 37 | 0.0 | 7.0 | 0.00 | 0.00 | 0.00 | 58 | 1009.9 |
| 20260509171622 | 71 | 60 | 0.0 | 7.0 | 0.00 | 0.00 | 0.00 | 59 | 1010.0 |
| 20260509171536 | 71 | 44 | 1.0 | 7.0 | 0.00 | 0.00 | 0.00 | 58 | 1010.1 |
| 20260509171507 | 71 | 5 | 0.0 | 7.0 | 0.00 | 0.00 | 0.00 | 58 | 1009.9 |
| 20260509171420 | 71 | 355 | 1.0 | 5.0 | 0.00 | 0.00 | 0.00 | 58 | 1010.1 |
| 20260509171326 | 71 | 70 | 1.0 | 5.0 | 0.00 | 0.00 | 0.00 | 59 | 1010.1 |
| 20260509171217 | 71 | 16 | 0.0 | 2.0 | 0.00 | 0.00 | 0.00 | 60 | 1010.1 |
| 20260509171123 | 71 | 27 | 0.0 | 2.0 | 0.00 | 0.00 | 0.00 | 58 | 1010.1 |
| 20260509171009 | 71 | 324 | 0.0 | 9.0 | 0.00 | 0.00 | 0.00 | 59 | 1010.1 |
| 20260509170922 | 71 | 157 | 0.0 | 9.0 | 0.00 | 0.00 | 0.00 | 58 | 1010.1 |
| 20260509170809 | 71 | 355 | 0.0 | 9.0 | 0.00 | 0.00 | 0.00 | 59 | 1010.1 |
| 20260509170735 | 71 | 75 | 0.0 | 9.0 | 0.00 | 0.00 | 0.00 | 59 | 1010.0 |
| 20260509170631 | 70 | 76 | 0.0 | 9.0 | 0.00 | 0.00 | 0.00 | 63 | 1010.0 |
| 20260509170521 | 70 | 291 | 0.0 | 9.0 | 0.00 | 0.00 | 0.00 | 60 | 1010.1 |
| 20260509170424 | 70 | 311 | 1.0 | 9.0 | 0.00 | 0.00 | 0.00 | 61 | 1010.0 |
| 20260509170310 | 70 | 24 | 1.0 | 9.0 | 0.00 | 0.00 | 0.00 | 59 | 1010.1 |
| 20260509170217 | 71 | 37 | 1.0 | 4.0 | 0.00 | 0.00 | 0.00 | 59 | 1010.1 |
| 20260509170127 | 71 | 68 | 0.0 | 4.0 | 0.00 | 0.00 | 0.00 | 60 | 1010.1 |
| 20260509170031 | 70 | 196 | 0.0 | 4.0 | 0.00 | 0.00 | 0.00 | 60 | 1009.9 |
| 20260509170013 | 70 | 196 | 0.0 | 4.0 | 0.00 | 0.00 | 0.00 | 60 | 1010.1 |
| 20260509165926 | 70 | 118 | 0.0 | 4.0 | 0.00 | 0.00 | 0.00 | 60 | 1010.1 |
| 20260509165812 | 70 | 47 | 0.0 | 4.0 | 0.00 | 0.00 | 0.00 | 61 | 1010.0 |
| 20260509165719 | 70 | 277 | 0.0 | 4.0 | 0.00 | 0.00 | 0.00 | 61 | 1010.0 |
| 20260509165609 | 70 | 319 | 1.0 | 4.0 | 0.00 | 0.00 | 0.00 | 59 | 1010.0 |
| 20260509165535 | 70 | 5 | 1.0 | 4.0 | 0.00 | 0.00 | 0.00 | 58 | 1010.1 |
| 20260509165427 | 71 | 334 | 0.0 | 0.0 | 0.00 | 0.00 | 0.00 | 58 | 1010.1 |
| 20260509165314 | 71 | 245 | 0.0 | 0.0 | 0.00 | 0.00 | 0.00 | 61 | 1010.1 |
| 20260509165220 | 70 | 323 | 0.0 | 0.0 | 0.00 | 0.00 | 0.00 | 60 | 1010.1 |
| 20260509165153 | 70 | 36 | 0.0 | 0.0 | 0.00 | 0.00 | 0.00 | 60 | 1010.1 |
| 20260509165018 | 70 | 106 | 0.0 | 0.0 | 0.00 | 0.00 | 0.00 | 62 | 1010.1 |
| 20260509164928 | 70 | 347 | 0.0 | 0.0 | 0.00 | 0.00 | 0.00 | 60 | 1010.0 |
| 20260509164834 | 70 | 348 | 0.0 | 0.0 | 0.00 | 0.00 | 0.00 | 60 | 1010.1 |
| 20260509164726 | 70 | 180 | 0.0 | 0.0 | 0.00 | 0.00 | 0.00 | 62 | 1010.1 |
| 20260509164632 | 69 | 109 | 0.0 | 0.0 | 0.00 | 0.00 | 0.00 | 66 | 1010.1 |
| 20260509164558 | 69 | 79 | 0.0 | 0.0 | 0.00 | 0.00 | 0.00 | 66 | 1009.9 |
| 20260509164537 | 69 | 150 | 0.0 | 0.0 | 0.00 | 0.00 | 0.00 | 62 | 1010.1 |
| 20260509164449 | 69 | 186 | 0.0 | 0.0 | 0.00 | 0.00 | 0.00 | 63 | 1010.1 |
| 20260509164314 | 69 | 210 | 0.0 | 0.0 | 0.00 | 0.00 | 0.00 | 63 | 1010.1 |
| 20260509164251 | 68 | 96 | 0.0 | 0.0 | 0.00 | 0.00 | 0.00 | 61 | 1010.1 |
| 20260509164116 | 68 | 66 | 0.0 | 0.0 | 0.00 | 0.00 | 0.00 | 61 | 1010.1 |
| 20260509164041 | 68 | 322 | 0.0 | 0.0 | 0.00 | 0.00 | 0.00 | 62 | 1010.2 |
| 20260509163933 | 68 | 23 | 0.0 | 0.0 | 0.00 | 0.00 | 0.00 | 61 | 1010.2 |
| 20260509163821 | 68 | 63 | 0.0 | 0.0 | 0.00 | 0.00 | 0.00 | 62 | 1010.2 |
| 20260509163727 | 68 | 294 | 0.0 | 0.0 | 0.00 | 0.00 | 0.00 | 62 | 1010.2 |
| 20260509163617 | 68 | 96 | 0.0 | 0.0 | 0.00 | 0.00 | 0.00 | 61 | 1010.2 |
| 20260509163523 | 68 | 296 | 0.0 | 0.0 | 0.00 | 0.00 | 0.00 | 62 | 1010.2 |
| 20260509163430 | 68 | 5 | 0.0 | 0.0 | 0.00 | 0.00 | 0.00 | 61 | 1010.2 |
| 20260509163322 | 68 | 58 | 0.0 | 3.0 | 0.00 | 0.00 | 0.00 | 61 | 1010.2 |
| 20260509163228 | 68 | 288 | 0.0 | 3.0 | 0.00 | 0.00 | 0.00 | 62 | 1010.2 |
| 20260509163115 | 68 | 302 | 0.0 | 5.0 | 0.00 | 0.00 | 0.00 | 62 | 1010.2 |
| 20260509163052 | 68 | 293 | 0.0 | 5.0 | 0.00 | 0.00 | 0.00 | 59 | 1010.2 |
| 20260509163014 | 68 | 258 | 0.0 | 5.0 | 0.00 | 0.00 | 0.00 | 60 | 1010.0 |
| 20260509162917 | 68 | 247 | 0.0 | 5.0 | 0.00 | 0.00 | 0.00 | 60 | 1010.2 |
| 20260509162824 | 68 | 274 | 0.0 | 5.0 | 0.00 | 0.00 | 0.00 | 61 | 1010.1 |
| 20260509162719 | 68 | 257 | 0.0 | 5.0 | 0.00 | 0.00 | 0.00 | 62 | 1010.1 |
| 20260509162633 | 68 | 69 | 0.0 | 5.0 | 0.00 | 0.00 | 0.00 | 62 | 1010.1 |
| 20260509162512 | 68 | 70 | 1.0 | 5.0 | 0.00 | 0.00 | 0.00 | 60 | 1010.2 |
| 20260509162429 | 68 | 95 | 1.0 | 5.0 | 0.00 | 0.00 | 0.00 | 60 | 1010.2 |
| 20260509162336 | 68 | 269 | 1.0 | 6.0 | 0.00 | 0.00 | 0.00 | 60 | 1010.2 |
| 20260509162221 | 68 | 200 | 1.0 | 6.0 | 0.00 | 0.00 | 0.00 | 60 | 1010.2 |
| 20260509162134 | 68 | 136 | 1.0 | 6.0 | 0.00 | 0.00 | 0.00 | 61 | 1010.1 |
| 20260509162021 | 68 | 77 | 0.0 | 0.0 | 0.00 | 0.00 | 0.00 | 62 | 1010.2 |
| 20260509161911 | 68 | 315 | 0.0 | 0.0 | 0.00 | 0.00 | 0.00 | 61 | 1010.1 |
| 20260509161817 | 68 | 200 | 0.0 | 0.0 | 0.00 | 0.00 | 0.00 | 60 | 1010.1 |
| 20260509161750 | 68 | 44 | 0.0 | 0.0 | 0.00 | 0.00 | 0.00 | 61 | 1010.2 |
| 20260509161635 | 68 | 57 | 0.0 | 0.0 | 0.00 | 0.00 | 0.00 | 61 | 1010.2 |
| 20260509161609 | 68 | 31 | 0.0 | 0.0 | 0.00 | 0.00 | 0.00 | 61 | 1010.0 |
| 20260509161521 | 68 | 13 | 0.0 | 0.0 | 0.00 | 0.00 | 0.00 | 61 | 1010.2 |
| 20260509161426 | 68 | 281 | 0.0 | 0.0 | 0.00 | 0.00 | 0.00 | 60 | 1010.2 |
| 20260509161338 | 68 | 288 | 0.0 | 0.0 | 0.00 | 0.00 | 0.00 | 59 | 1010.2 |
| 20260509161228 | 68 | 265 | 0.0 | 0.0 | 0.00 | 0.00 | 0.00 | 59 | 1010.2 |
| 20260509161114 | 68 | 185 | 0.0 | 0.0 | 0.00 | 0.00 | 0.00 | 61 | 1010.2 |
| 20260509161047 | 68 | 5 | 0.0 | 0.0 | 0.00 | 0.00 | 0.00 | 60 | 1010.2 |
| 20260509160913 | 68 | 234 | 0.0 | 0.0 | 0.00 | 0.00 | 0.00 | 60 | 1010.1 |
| 20260509160839 | 68 | 256 | 0.0 | 0.0 | 0.00 | 0.00 | 0.00 | 61 | 1010.1 |
| 20260509160731 | 68 | 32 | 0.0 | 0.0 | 0.00 | 0.00 | 0.00 | 63 | 1010.1 |
| 20260509160618 | 68 | 39 | 0.0 | 0.0 | 0.00 | 0.00 | 0.00 | 60 | 1010.1 |
| 20260509160524 | 68 | 31 | 0.0 | 0.0 | 0.00 | 0.00 | 0.00 | 62 | 1010.2 |
| 20260509160410 | 68 | 24 | 0.0 | 0.0 | 0.00 | 0.00 | 0.00 | 64 | 1010.2 |
| 20260509160316 | 68 | 331 | 0.0 | 0.0 | 0.00 | 0.00 | 0.00 | 62 | 1010.2 |
| 20260509160221 | 68 | 329 | 0.0 | 0.0 | 0.00 | 0.00 | 0.00 | 60 | 1010.2 |
| 20260509160135 | 68 | 292 | 0.0 | 0.0 | 0.00 | 0.00 | 0.00 | 60 | 1010.3 |
| 20260509160101 | 67 | 292 | 0.0 | 0.0 | 0.00 | 0.00 | 0.00 | 60 | 1010.1 |
| 20260509160023 | 68 | 297 | 0.0 | 0.0 | 0.00 | 0.00 | 0.00 | 61 | 1010.3 |
| 20260509155924 | 68 | 316 | 0.0 | 0.0 | 0.00 | 0.00 | 0.00 | 61 | 1010.4 |
| 20260509155811 | 68 | 103 | 0.0 | 0.0 | 0.00 | 0.00 | 0.00 | 60 | 1010.3 |
| 20260509155724 | 68 | 99 | 0.0 | 0.0 | 0.00 | 0.00 | 0.00 | 61 | 1010.3 |
| 20260509155650 | 68 | 30 | 0.0 | 0.0 | 0.00 | 0.00 | 0.00 | 60 | 1010.3 |
| 20260509155516 | 68 | 32 | 0.0 | 0.0 | 0.00 | 0.00 | 0.00 | 59 | 1010.3 |
| 20260509155448 | 68 | 74 | 0.0 | 0.0 | 0.00 | 0.00 | 0.00 | 60 | 1010.3 |
| 20260509155319 | 68 | 74 | 0.0 | 0.0 | 0.00 | 0.00 | 0.00 | 61 | 1010.3 |
| 20260509155225 | 68 | 77 | 0.0 | 2.0 | 0.00 | 0.00 | 0.00 | 61 | 1010.4 |
| 20260509155131 | 68 | 88 | 0.0 | 2.0 | 0.00 | 0.00 | 0.00 | 60 | 1010.4 |
| 20260509155022 | 68 | 66 | 0.0 | 2.0 | 0.00 | 0.00 | 0.00 | 61 | 1010.4 |
| 20260509154910 | 68 | 73 | 0.0 | 2.0 | 0.00 | 0.00 | 0.00 | 61 | 1010.4 |
| 20260509154821 | 68 | 186 | 0.0 | 2.0 | 0.00 | 0.00 | 0.00 | 61 | 1010.4 |
| 20260509154727 | 68 | 312 | 0.0 | 2.0 | 0.00 | 0.00 | 0.00 | 60 | 1010.4 |
| 20260509154641 | 68 | 74 | 0.0 | 2.0 | 0.00 | 0.00 | 0.00 | 59 | 1010.4 |
| 20260509154525 | 68 | 57 | 0.0 | 2.0 | 0.00 | 0.00 | 0.00 | 60 | 1010.4 |
| 20260509154502 | 67 | 36 | 0.0 | 2.0 | 0.00 | 0.00 | 0.00 | 59 | 1010.2 |
| 20260509154411 | 68 | 68 | 0.0 | 2.0 | 0.00 | 0.00 | 0.00 | 59 | 1010.5 |
| 20260509154317 | 68 | 74 | 0.0 | 2.0 | 0.00 | 0.00 | 0.00 | 60 | 1010.5 |
| 20260509154112 | 68 | 26 | 0.0 | 2.0 | 0.00 | 0.00 | 0.00 | 60 | 1010.5 |
| 20260509154018 | 68 | 51 | 0.0 | 4.0 | 0.00 | 0.00 | 0.00 | 60 | 1010.5 |
| 20260509153925 | 68 | 35 | 0.0 | 4.0 | 0.00 | 0.00 | 0.00 | 59 | 1010.5 |
| 20260509153812 | 68 | 300 | 0.0 | 4.0 | 0.00 | 0.00 | 0.00 | 59 | 1010.5 |
| 20260509153719 | 67 | 345 | 0.0 | 4.0 | 0.00 | 0.00 | 0.00 | 60 | 1010.5 |
| 20260509153609 | 67 | 103 | 0.0 | 4.0 | 0.00 | 0.00 | 0.00 | 59 | 1010.4 |
| 20260509153522 | 67 | 63 | 0.0 | 4.0 | 0.00 | 0.00 | 0.00 | 59 | 1010.4 |
| 20260509153409 | 67 | 317 | 0.0 | 6.0 | 0.00 | 0.00 | 0.00 | 59 | 1010.5 |
| 20260509153316 | 67 | 332 | 0.0 | 6.0 | 0.00 | 0.00 | 0.00 | 59 | 1010.5 |
| 20260509153223 | 68 | 66 | 0.0 | 6.0 | 0.00 | 0.00 | 0.00 | 59 | 1010.5 |
| 20260509153114 | 68 | 197 | 0.0 | 6.0 | 0.00 | 0.00 | 0.00 | 61 | 1010.4 |
| 20260509153027 | 67 | 248 | 0.0 | 6.0 | 0.00 | 0.00 | 0.00 | 59 | 1010.4 |
| 20260509153017 | 67 | 350 | 0.0 | 6.0 | 0.00 | 0.00 | 0.00 | 59 | 1010.3 |
| 20260509152933 | 68 | 26 | 0.0 | 6.0 | 0.00 | 0.00 | 0.00 | 58 | 1010.4 |
| 20260509152819 | 68 | 14 | 0.0 | 6.0 | 0.00 | 0.00 | 0.00 | 58 | 1010.5 |
| 20260509152726 | 68 | 5 | 1.0 | 6.0 | 0.00 | 0.00 | 0.00 | 58 | 1010.5 |
| 20260509152632 | 68 | 78 | 1.0 | 6.0 | 0.00 | 0.00 | 0.00 | 59 | 1010.5 |
| 20260509152528 | 68 | 76 | 0.0 | 7.0 | 0.00 | 0.00 | 0.00 | 59 | 1010.5 |
| 20260509152414 | 68 | 80 | 0.0 | 0.0 | 0.00 | 0.00 | 0.00 | 59 | 1010.5 |
| 20260509152317 | 68 | 94 | 0.0 | 0.0 | 0.00 | 0.00 | 0.00 | 58 | 1010.5 |
| 20260509152224 | 68 | 309 | 0.0 | 0.0 | 0.00 | 0.00 | 0.00 | 59 | 1010.5 |
| 20260509152110 | 68 | 260 | 0.0 | 0.0 | 0.00 | 0.00 | 0.00 | 60 | 1010.5 |
| 20260509152043 | 67 | 85 | 0.0 | 0.0 | 0.00 | 0.00 | 0.00 | 60 | 1010.5 |
| 20260509151913 | 67 | 28 | 0.0 | 0.0 | 0.00 | 0.00 | 0.00 | 61 | 1010.5 |
| 20260509151839 | 67 | 281 | 0.0 | 0.0 | 0.00 | 0.00 | 0.00 | 61 | 1010.5 |
| 20260509151731 | 67 | 24 | 0.0 | 0.0 | 0.00 | 0.00 | 0.00 | 63 | 1010.5 |
| 20260509151617 | 66 | 355 | 0.0 | 0.0 | 0.00 | 0.00 | 0.00 | 62 | 1010.4 |
| 20260509151609 | 66 | 38 | 0.0 | 0.0 | 0.00 | 0.00 | 0.00 | 62 | 1010.2 |
| 20260509151523 | 66 | 309 | 0.0 | 0.0 | 0.00 | 0.00 | 0.00 | 62 | 1010.4 |
| 20260509151409 | 66 | 59 | 0.0 | 0.0 | 0.00 | 0.00 | 0.00 | 60 | 1010.3 |
| 20260509151319 | 66 | 300 | 0.0 | 0.0 | 0.00 | 0.00 | 0.00 | 62 | 1010.3 |
| 20260509151232 | 66 | 315 | 0.0 | 0.0 | 0.00 | 0.00 | 0.00 | 61 | 1010.3 |
| 20260509151118 | 66 | 39 | 0.0 | 0.0 | 0.00 | 0.00 | 0.00 | 59 | 1010.4 |
| 20260509151024 | 66 | 13 | 0.0 | 0.0 | 0.00 | 0.00 | 0.00 | 61 | 1010.3 |
| 20260509150910 | 66 | 355 | 0.0 | 0.0 | 0.00 | 0.00 | 0.00 | 61 | 1010.4 |
| 20260509150836 | 66 | 334 | 0.0 | 0.0 | 0.00 | 0.00 | 0.00 | 60 | 1010.4 |
| 20260509150732 | 66 | 334 | 0.0 | 0.0 | 0.00 | 0.00 | 0.00 | 60 | 1010.4 |
| 20260509150618 | 66 | 27 | 0.0 | 0.0 | 0.00 | 0.00 | 0.00 | 61 | 1010.5 |
| 20260509150523 | 66 | 333 | 0.0 | 0.0 | 0.00 | 0.00 | 0.00 | 61 | 1010.6 |
| 20260509150410 | 66 | 300 | 0.0 | 0.0 | 0.00 | 0.00 | 0.00 | 61 | 1010.7 |
| 20260509150316 | 66 | 285 | 0.0 | 0.0 | 0.00 | 0.00 | 0.00 | 62 | 1010.7 |
| 20260509150233 | 66 | 61 | 0.0 | 0.0 | 0.00 | 0.00 | 0.00 | 61 | 1010.7 |
| 20260509150122 | 65 | 74 | 0.0 | 0.0 | 0.00 | 0.00 | 0.00 | 62 | 1010.5 |
| 20260509150112 | 65 | 74 | 0.0 | 0.0 | 0.00 | 0.00 | 0.00 | 62 | 1010.8 |
| 20260509150026 | 65 | 59 | 0.0 | 0.0 | 0.00 | 0.00 | 0.00 | 62 | 1010.8 |
| 20260509145918 | 65 | 28 | 0.0 | 0.0 | 0.00 | 0.00 | 0.00 | 62 | 1010.8 |
| 20260509145825 | 65 | 312 | 0.0 | 0.0 | 0.00 | 0.00 | 0.00 | 62 | 1010.7 |
| 20260509145738 | 65 | 292 | 0.0 | 0.0 | 0.00 | 0.00 | 0.00 | 61 | 1010.8 |
| 20260509145644 | 65 | 277 | 0.0 | 0.0 | 0.00 | 0.00 | 0.00 | 60 | 1010.8 |
| 20260509145536 | 65 | 307 | 0.0 | 0.0 | 0.00 | 0.00 | 0.00 | 61 | 1010.7 |
| 20260509145422 | 65 | 34 | 0.0 | 0.0 | 0.00 | 0.00 | 0.00 | 62 | 1010.6 |
| 20260509145328 | 65 | 327 | 0.0 | 0.0 | 0.00 | 0.00 | 0.00 | 61 | 1010.7 |
| 20260509145215 | 65 | 257 | 0.0 | 0.0 | 0.00 | 0.00 | 0.00 | 60 | 1010.7 |
| 20260509145121 | 65 | 285 | 0.0 | 0.0 | 0.00 | 0.00 | 0.00 | 60 | 1010.7 |
| 20260509145012 | 65 | 290 | 0.0 | 0.0 | 0.00 | 0.00 | 0.00 | 62 | 1010.8 |
| 20260509144925 | 65 | 26 | 0.0 | 0.0 | 0.00 | 0.00 | 0.00 | 62 | 1010.8 |
| 20260509144811 | 65 | 304 | 0.0 | 0.0 | 0.00 | 0.00 | 0.00 | 62 | 1010.8 |
| 20260509144718 | 65 | 186 | 0.0 | 0.0 | 0.00 | 0.00 | 0.00 | 61 | 1010.8 |
| 20260509144624 | 65 | 46 | 0.0 | 0.0 | 0.00 | 0.00 | 0.00 | 62 | 1010.7 |
| 20260509144540 | 64 | 9 | 0.0 | 0.0 | 0.00 | 0.00 | 0.00 | 61 | 1010.6 |
| 20260509144510 | 65 | 301 | 0.0 | 0.0 | 0.00 | 0.00 | 0.00 | 62 | 1010.7 |
| 20260509144427 | 65 | 351 | 0.0 | 1.0 | 0.00 | 0.00 | 0.00 | 62 | 1010.7 |
| 20260509144333 | 65 | 5 | 0.0 | 1.0 | 0.00 | 0.00 | 0.00 | 62 | 1010.7 |
| 20260509144219 | 64 | 55 | 0.0 | 1.0 | 0.00 | 0.00 | 0.00 | 63 | 1010.8 |
| 20260509144125 | 64 | 21 | 0.0 | 1.0 | 0.00 | 0.00 | 0.00 | 62 | 1010.8 |
| 20260509144012 | 64 | 61 | 0.0 | 1.0 | 0.00 | 0.00 | 0.00 | 61 | 1010.7 |
| 20260509143922 | 64 | 92 | 0.0 | 1.0 | 0.00 | 0.00 | 0.00 | 61 | 1010.7 |
| 20260509143809 | 64 | 71 | 0.0 | 3.0 | 0.00 | 0.00 | 0.00 | 62 | 1010.6 |
| 20260509143722 | 64 | 67 | 0.0 | 3.0 | 0.00 | 0.00 | 0.00 | 61 | 1010.6 |
| 20260509143628 | 64 | 82 | 0.0 | 3.0 | 0.00 | 0.00 | 0.00 | 64 | 1010.6 |
| 20260509143515 | 64 | 308 | 0.0 | 3.0 | 0.00 | 0.00 | 0.00 | 63 | 1010.6 |
| 20260509143421 | 64 | 13 | 0.0 | 3.0 | 0.00 | 0.00 | 0.00 | 63 | 1010.6 |
| 20260509143312 | 63 | 32 | 0.0 | 3.0 | 0.00 | 0.00 | 0.00 | 64 | 1010.6 |
| 20260509143218 | 63 | 51 | 0.0 | 3.0 | 0.00 | 0.00 | 0.00 | 64 | 1010.6 |
| 20260509143131 | 63 | 102 | 0.0 | 3.0 | 0.00 | 0.00 | 0.00 | 65 | 1010.6 |
| 20260509143017 | 63 | 38 | 0.0 | 0.0 | 0.00 | 0.00 | 0.00 | 65 | 1010.6 |
| 20260509143007 | 62 | 301 | 0.0 | 0.0 | 0.00 | 0.00 | 0.00 | 65 | 1010.5 |
| 20260509142923 | 63 | 336 | 0.0 | 0.0 | 0.00 | 0.00 | 0.00 | 68 | 1010.6 |
| 20260509142814 | 63 | 61 | 0.0 | 0.0 | 0.00 | 0.00 | 0.00 | 69 | 1010.6 |
| 20260509142720 | 63 | 71 | 0.0 | 0.0 | 0.00 | 0.00 | 0.00 | 67 | 1010.6 |
| 20260509142626 | 62 | 90 | 0.0 | 0.0 | 0.00 | 0.00 | 0.00 | 65 | 1010.6 |
| 20260509142540 | 62 | 254 | 0.0 | 0.0 | 0.00 | 0.00 | 0.00 | 64 | 1010.7 |
| 20260509142425 | 62 | 192 | 0.0 | 0.0 | 0.00 | 0.00 | 0.00 | 66 | 1010.7 |
| 20260509142331 | 62 | 88 | 0.0 | 0.0 | 0.00 | 0.00 | 0.00 | 65 | 1010.9 |
| 20260509142227 | 62 | 30 | 0.0 | 0.0 | 0.00 | 0.00 | 0.00 | 66 | 1010.9 |
| 20260509142113 | 62 | 55 | 0.0 | 1.0 | 0.00 | 0.00 | 0.00 | 65 | 1010.9 |
| 20260509142039 | 62 | 73 | 0.0 | 1.0 | 0.00 | 0.00 | 0.00 | 66 | 1010.9 |
| 20260509141931 | 62 | 74 | 0.0 | 1.0 | 0.00 | 0.00 | 0.00 | 68 | 1010.9 |
| 20260509141810 | 61 | 74 | 0.0 | 1.0 | 0.00 | 0.00 | 0.00 | 66 | 1010.8 |
| 20260509141722 | 61 | 74 | 0.0 | 1.0 | 0.00 | 0.00 | 0.00 | 65 | 1010.8 |
| 20260509141613 | 61 | 59 | 0.0 | 1.0 | 0.00 | 0.00 | 0.00 | 67 | 1010.8 |
| 20260509141550 | 61 | 271 | 0.0 | 1.0 | 0.00 | 0.00 | 0.00 | 67 | 1010.6 |
| 20260509141519 | 61 | 152 | 0.0 | 1.0 | 0.00 | 0.00 | 0.00 | 67 | 1010.8 |
| 20260509141425 | 61 | 158 | 0.0 | 1.0 | 0.00 | 0.00 | 0.00 | 66 | 1010.8 |
| 20260509141311 | 61 | 271 | 0.0 | 0.0 | 0.00 | 0.00 | 0.00 | 66 | 1010.8 |
| 20260509141223 | 61 | 272 | 0.0 | 1.0 | 0.00 | 0.00 | 0.00 | 65 | 1010.8 |
| 20260509141113 | 61 | 84 | 0.0 | 1.0 | 0.00 | 0.00 | 0.00 | 67 | 1010.8 |
| 20260509141021 | 61 | 76 | 0.0 | 1.0 | 0.00 | 0.00 | 0.00 | 67 | 1010.8 |
| 20260509140954 | 61 | 85 | 0.0 | 1.0 | 0.00 | 0.00 | 0.00 | 66 | 1010.8 |
| 20260509140811 | 61 | 56 | 0.0 | 1.0 | 0.00 | 0.00 | 0.00 | 66 | 1010.8 |
| 20260509140724 | 61 | 50 | 0.0 | 1.0 | 0.00 | 0.00 | 0.00 | 66 | 1010.8 |
| 20260509140610 | 61 | 30 | 0.0 | 1.0 | 0.00 | 0.00 | 0.00 | 67 | 1010.9 |
| 20260509140521 | 61 | 278 | 0.0 | 1.0 | 0.00 | 0.00 | 0.00 | 67 | 1010.9 |
| 20260509140454 | 61 | 275 | 0.0 | 1.0 | 0.00 | 0.00 | 0.00 | 67 | 1011.0 |
| 20260509140338 | 61 | 88 | 0.0 | 1.0 | 0.00 | 0.00 | 0.00 | 68 | 1011.0 |
| 20260509140250 | 61 | 90 | 0.0 | 1.0 | 0.00 | 0.00 | 0.00 | 67 | 1011.0 |
| 20260509140116 | 61 | 86 | 0.0 | 1.0 | 0.00 | 0.00 | 0.00 | 69 | 1011.1 |
| 20260509140106 | 60 | 86 | 0.0 | 1.0 | 0.00 | 0.00 | 0.00 | 69 | 1010.9 |
| 20260509140023 | 60 | 203 | 0.0 | 1.0 | 0.00 | 0.00 | 0.00 | 70 | 1011.1 |
| 20260509135909 | 60 | 202 | 0.0 | 1.0 | 0.00 | 0.00 | 0.00 | 69 | 1011.1 |
| 20260509135820 | 60 | 202 | 0.0 | 1.0 | 0.00 | 0.00 | 0.00 | 70 | 1011.1 |
| 20260509135725 | 60 | 202 | 0.0 | 1.0 | 0.00 | 0.00 | 0.00 | 69 | 1011.1 |
| 20260509135611 | 60 | 201 | 0.0 | 1.0 | 0.00 | 0.00 | 0.00 | 69 | 1011.1 |
| 20260509135524 | 60 | 201 | 0.0 | 1.0 | 0.00 | 0.00 | 0.00 | 70 | 1011.1 |
| 20260509135411 | 60 | 201 | 0.0 | 1.0 | 0.00 | 0.00 | 0.00 | 69 | 1011.1 |
| 20260509135321 | 60 | 201 | 0.0 | 1.0 | 0.00 | 0.00 | 0.00 | 70 | 1011.1 |
| 20260509135228 | 60 | 165 | 0.0 | 1.0 | 0.00 | 0.00 | 0.00 | 69 | 1011.2 |
| 20260509135142 | 60 | 165 | 0.0 | 1.0 | 0.00 | 0.00 | 0.00 | 70 | 1011.2 |
| 20260509135026 | 60 | 161 | 0.0 | 1.0 | 0.00 | 0.00 | 0.00 | 70 | 1011.2 |
| 20260509134913 | 60 | 71 | 0.0 | 1.0 | 0.00 | 0.00 | 0.00 | 70 | 1011.2 |
| 20260509134839 | 60 | 71 | 0.0 | 1.0 | 0.00 | 0.00 | 0.00 | 70 | 1011.2 |
| 20260509134709 | 60 | 50 | 0.0 | 0.0 | 0.00 | 0.00 | 0.00 | 70 | 1011.2 |
| 20260509134622 | 60 | 50 | 0.0 | 0.0 | 0.00 | 0.00 | 0.00 | 70 | 1011.2 |
| 20260509134605 | 59 | 50 | 0.0 | 0.0 | 0.00 | 0.00 | 0.00 | 70 | 1011.1 |
| 20260509134528 | 60 | 49 | 0.0 | 0.0 | 0.00 | 0.00 | 0.00 | 70 | 1011.2 |
| 20260509134415 | 59 | 112 | 0.0 | 0.0 | 0.00 | 0.00 | 0.00 | 70 | 1011.2 |
| 20260509134321 | 59 | 112 | 0.0 | 0.0 | 0.00 | 0.00 | 0.00 | 71 | 1011.3 |
| 20260509134227 | 59 | 112 | 0.0 | 0.0 | 0.00 | 0.00 | 0.00 | 72 | 1011.3 |
| 20260509134117 | 59 | 112 | 0.0 | 0.0 | 0.00 | 0.00 | 0.00 | 72 | 1011.3 |
| 20260509134030 | 59 | 112 | 0.0 | 0.0 | 0.00 | 0.00 | 0.00 | 73 | 1011.4 |
| 20260509133916 | 59 | 112 | 0.0 | 0.0 | 0.00 | 0.00 | 0.00 | 71 | 1011.4 |
| 20260509133823 | 59 | 112 | 0.0 | 0.0 | 0.00 | 0.00 | 0.00 | 71 | 1011.4 |
| 20260509133710 | 59 | 112 | 0.0 | 0.0 | 0.00 | 0.00 | 0.00 | 71 | 1011.4 |
| 20260509133644 | 59 | 116 | 0.0 | 0.0 | 0.00 | 0.00 | 0.00 | 72 | 1011.4 |
| 20260509133533 | 59 | 116 | 0.0 | 0.0 | 0.00 | 0.00 | 0.00 | 71 | 1011.4 |
| 20260509133445 | 59 | 120 | 0.0 | 0.0 | 0.00 | 0.00 | 0.00 | 71 | 1011.4 |
| 20260509133310 | 59 | 179 | 0.0 | 0.0 | 0.00 | 0.00 | 0.00 | 70 | 1011.5 |
| 20260509133216 | 59 | 184 | 0.0 | 0.0 | 0.00 | 0.00 | 0.00 | 70 | 1011.5 |
| 20260509133121 | 59 | 303 | 0.0 | 0.0 | 0.00 | 0.00 | 0.00 | 71 | 1011.4 |
| 20260509133041 | 58 | 303 | 0.0 | 0.0 | 0.00 | 0.00 | 0.00 | 72 | 1011.3 |
| 20260509133028 | 59 | 303 | 0.0 | 0.0 | 0.00 | 0.00 | 0.00 | 72 | 1011.4 |
| 20260509132918 | 59 | 303 | 0.0 | 0.0 | 0.00 | 0.00 | 0.00 | 72 | 1011.4 |
| 20260509132831 | 58 | 303 | 0.0 | 0.0 | 0.00 | 0.00 | 0.00 | 72 | 1011.4 |
| 20260509132717 | 58 | 303 | 0.0 | 0.0 | 0.00 | 0.00 | 0.00 | 72 | 1011.5 |
| 20260509132623 | 58 | 303 | 0.0 | 0.0 | 0.00 | 0.00 | 0.00 | 72 | 1011.4 |
| 20260509132510 | 58 | 303 | 0.0 | 0.0 | 0.00 | 0.00 | 0.00 | 72 | 1011.5 |
| 20260509132421 | 58 | 302 | 0.0 | 0.0 | 0.00 | 0.00 | 0.00 | 72 | 1011.5 |
| 20260509132334 | 58 | 291 | 0.0 | 0.0 | 0.00 | 0.00 | 0.00 | 72 | 1011.4 |
| 20260509132212 | 58 | 300 | 0.0 | 0.0 | 0.00 | 0.00 | 0.00 | 72 | 1011.5 |
| 20260509132125 | 58 | 5 | 0.0 | 0.0 | 0.00 | 0.00 | 0.00 | 72 | 1011.5 |
| 20260509132012 | 58 | 44 | 0.0 | 0.0 | 0.00 | 0.00 | 0.00 | 73 | 1011.6 |
| 20260509131936 | 58 | 332 | 0.0 | 0.0 | 0.00 | 0.00 | 0.00 | 73 | 1011.6 |
| 20260509131833 | 58 | 278 | 0.0 | 0.0 | 0.00 | 0.00 | 0.00 | 73 | 1011.5 |
| 20260509131738 | 58 | 267 | 0.0 | 0.0 | 0.00 | 0.00 | 0.00 | 73 | 1011.5 |
| 20260509131629 | 58 | 267 | 0.0 | 0.0 | 0.00 | 0.00 | 0.00 | 73 | 1011.6 |
| 20260509131516 | 58 | 64 | 0.0 | 0.0 | 0.00 | 0.00 | 0.00 | 74 | 1011.5 |
| 20260509131505 | 57 | 64 | 0.0 | 0.0 | 0.00 | 0.00 | 0.00 | 74 | 1011.3 |
| 20260509131440 | 58 | 53 | 0.0 | 0.0 | 0.00 | 0.00 | 0.00 | 73 | 1011.5 |
| 20260509131312 | 58 | 53 | 0.0 | 0.0 | 0.00 | 0.00 | 0.00 | 74 | 1011.5 |
| 20260509131216 | 58 | 53 | 0.0 | 0.0 | 0.00 | 0.00 | 0.00 | 74 | 1011.5 |
| 20260509131126 | 58 | 53 | 0.0 | 0.0 | 0.00 | 0.00 | 0.00 | 75 | 1011.6 |
| 20260509131013 | 58 | 55 | 0.0 | 0.0 | 0.00 | 0.00 | 0.00 | 74 | 1011.6 |
| 20260509130946 | 58 | 55 | 0.0 | 0.0 | 0.00 | 0.00 | 0.00 | 76 | 1011.6 |
| 20260509130831 | 58 | 55 | 0.0 | 0.0 | 0.00 | 0.00 | 0.00 | 74 | 1011.6 |
| 20260509130743 | 58 | 55 | 0.0 | 0.0 | 0.00 | 0.00 | 0.00 | 74 | 1011.6 |
| 20260509130628 | 58 | 53 | 0.0 | 0.0 | 0.00 | 0.00 | 0.00 | 75 | 1011.6 |
| 20260509130514 | 57 | 290 | 0.0 | 0.0 | 0.00 | 0.00 | 0.00 | 78 | 1011.6 |
| 20260509130425 | 57 | 290 | 0.0 | 0.0 | 0.00 | 0.00 | 0.00 | 76 | 1011.6 |
| 20260509130311 | 57 | 290 | 0.0 | 0.0 | 0.00 | 0.00 | 0.00 | 75 | 1011.6 |
| 20260509130217 | 57 | 290 | 0.0 | 0.0 | 0.00 | 0.00 | 0.00 | 74 | 1011.6 |
| 20260509130130 | 57 | 290 | 0.0 | 0.0 | 0.00 | 0.00 | 0.00 | 75 | 1011.5 |
| 20260509130108 | 57 | 290 | 0.0 | 0.0 | 0.00 | 0.00 | 0.00 | 75 | 1011.4 |
| 20260509130016 | 57 | 290 | 0.0 | 0.0 | 0.00 | 0.00 | 0.00 | 76 | 1011.6 |
| 20260509125927 | 57 | 290 | 0.0 | 0.0 | 0.00 | 0.00 | 0.00 | 77 | 1011.5 |
| 20260509125813 | 57 | 290 | 0.0 | 0.0 | 0.00 | 0.00 | 0.00 | 75 | 1011.5 |
| 20260509125720 | 57 | 290 | 0.0 | 0.0 | 0.00 | 0.00 | 0.00 | 75 | 1011.5 |
| 20260509125633 | 57 | 290 | 0.0 | 0.0 | 0.00 | 0.00 | 0.00 | 75 | 1011.5 |
| 20260509125520 | 57 | 290 | 0.0 | 0.0 | 0.00 | 0.00 | 0.00 | 75 | 1011.5 |
| 20260509125410 | 56 | 290 | 0.0 | 0.0 | 0.00 | 0.00 | 0.00 | 75 | 1011.5 |
| 20260509125316 | 56 | 290 | 0.0 | 0.0 | 0.00 | 0.00 | 0.00 | 75 | 1011.5 |
| 20260509125223 | 56 | 290 | 0.0 | 0.0 | 0.00 | 0.00 | 0.00 | 75 | 1011.5 |
| 20260509125156 | 56 | 290 | 0.0 | 0.0 | 0.00 | 0.00 | 0.00 | 76 | 1011.5 |
| 20260509125021 | 56 | 290 | 0.0 | 0.0 | 0.00 | 0.00 | 0.00 | 77 | 1011.4 |
| 20260509124928 | 56 | 290 | 0.0 | 0.0 | 0.00 | 0.00 | 0.00 | 78 | 1011.4 |
| 20260509124818 | 56 | 290 | 0.0 | 0.0 | 0.00 | 0.00 | 0.00 | 76 | 1011.4 |
| 20260509124724 | 56 | 290 | 0.0 | 0.0 | 0.00 | 0.00 | 0.00 | 76 | 1011.4 |
| 20260509124634 | 56 | 291 | 0.0 | 0.0 | 0.00 | 0.00 | 0.00 | 77 | 1011.2 |
| 20260509124610 | 56 | 65 | 0.0 | 0.0 | 0.00 | 0.00 | 0.00 | 77 | 1011.4 |
| 20260509124543 | 56 | 65 | 0.0 | 0.0 | 0.00 | 0.00 | 0.00 | 77 | 1011.4 |
| 20260509124409 | 56 | 65 | 0.0 | 0.0 | 0.00 | 0.01 | 0.00 | 77 | 1011.4 |
| 20260509124335 | 56 | 65 | 0.0 | 0.0 | 0.00 | 0.01 | 0.00 | 77 | 1011.4 |
| 20260509124227 | 56 | 65 | 0.0 | 0.0 | 0.00 | 0.01 | 0.00 | 77 | 1011.4 |
| 20260509124118 | 56 | 65 | 0.0 | 0.0 | 0.00 | 0.01 | 0.00 | 77 | 1011.4 |
| 20260509124024 | 56 | 65 | 0.0 | 0.0 | 0.00 | 0.01 | 0.00 | 78 | 1011.4 |
| 20260509123910 | 56 | 65 | 0.0 | 0.0 | 0.00 | 0.01 | 0.00 | 77 | 1011.4 |
| 20260509123816 | 55 | 65 | 0.0 | 0.0 | 0.00 | 0.01 | 0.00 | 78 | 1011.4 |
| 20260509123728 | 55 | 65 | 0.0 | 0.0 | 0.00 | 0.01 | 0.00 | 78 | 1011.4 |
| 20260509123619 | 55 | 65 | 0.0 | 0.0 | 0.00 | 0.01 | 0.00 | 78 | 1011.5 |
| 20260509123524 | 55 | 65 | 0.0 | 0.0 | 0.00 | 0.01 | 0.00 | 79 | 1011.4 |
| 20260509123410 | 55 | 65 | 0.0 | 0.0 | 0.00 | 0.01 | 0.00 | 78 | 1011.5 |
| 20260509123316 | 55 | 65 | 0.0 | 0.0 | 0.00 | 0.01 | 0.00 | 78 | 1011.5 |
| 20260509123222 | 55 | 65 | 0.0 | 0.0 | 0.00 | 0.01 | 0.00 | 79 | 1011.6 |
| 20260509123113 | 55 | 65 | 0.0 | 0.0 | 0.00 | 0.01 | 0.00 | 80 | 1011.6 |
| 20260509123025 | 55 | 65 | 0.0 | 0.0 | 0.00 | 0.01 | 0.00 | 79 | 1011.6 |
| 20260509123013 | 54 | 65 | 0.0 | 0.0 | 0.00 | 0.01 | 0.00 | 80 | 1011.4 |
| 20260509122911 | 55 | 65 | 0.0 | 0.0 | 0.00 | 0.01 | 0.00 | 79 | 1011.6 |
| 20260509122817 | 54 | 65 | 0.0 | 0.0 | 0.00 | 0.01 | 0.00 | 80 | 1011.6 |
| 20260509122724 | 54 | 65 | 0.0 | 0.0 | 0.00 | 0.01 | 0.00 | 79 | 1011.6 |
| 20260509122610 | 54 | 65 | 0.0 | 0.0 | 0.00 | 0.01 | 0.00 | 79 | 1011.4 |
| 20260509122521 | 54 | 78 | 0.0 | 0.0 | 0.00 | 0.01 | 0.00 | 80 | 1011.4 |
| 20260509122433 | 54 | 78 | 0.0 | 0.0 | 0.00 | 0.01 | 0.00 | 79 | 1011.4 |
| 20260509122319 | 54 | 78 | 0.0 | 0.0 | 0.00 | 0.01 | 0.00 | 80 | 1011.5 |
| 20260509122226 | 54 | 69 | 0.0 | 0.0 | 0.00 | 0.01 | 0.00 | 80 | 1011.5 |
| 20260509122113 | 54 | 80 | 0.0 | 0.0 | 0.00 | 0.01 | 0.00 | 80 | 1011.5 |
| 20260509122023 | 54 | 79 | 0.0 | 0.0 | 0.00 | 0.01 | 0.00 | 83 | 1011.5 |
| 20260509121909 | 54 | 339 | 0.0 | 0.0 | 0.00 | 0.01 | 0.00 | 85 | 1011.5 |
| 20260509121842 | 53 | 323 | 0.0 | 0.0 | 0.00 | 0.01 | 0.00 | 84 | 1011.5 |
| 20260509121728 | 53 | 265 | 0.0 | 0.0 | 0.00 | 0.01 | 0.00 | 85 | 1011.5 |
| 20260509121614 | 53 | 265 | 0.0 | 0.0 | 0.00 | 0.01 | 0.00 | 86 | 1011.5 |
| 20260509121539 | 53 | 265 | 0.0 | 0.0 | 0.00 | 0.01 | 0.00 | 87 | 1011.4 |
| 20260509121520 | 53 | 265 | 0.0 | 0.0 | 0.00 | 0.01 | 0.00 | 87 | 1011.5 |
| 20260509121410 | 53 | 265 | 0.0 | 0.0 | 0.00 | 0.01 | 0.00 | 88 | 1011.6 |
| 20260509121323 | 53 | 265 | 0.0 | 0.0 | 0.00 | 0.01 | 0.00 | 88 | 1011.6 |
| 20260509121209 | 53 | 265 | 0.0 | 0.0 | 0.00 | 0.01 | 0.00 | 86 | 1011.6 |
| 20260509121115 | 53 | 265 | 0.0 | 0.0 | 0.00 | 0.01 | 0.00 | 87 | 1011.6 |
| 20260509121021 | 52 | 265 | 0.0 | 0.0 | 0.00 | 0.01 | 0.00 | 87 | 1011.6 |
| 20260509120911 | 52 | 265 | 0.0 | 0.0 | 0.00 | 0.01 | 0.00 | 87 | 1011.5 |
| 20260509120844 | 52 | 265 | 0.0 | 0.0 | 0.00 | 0.01 | 0.00 | 87 | 1011.5 |
| 20260509120709 | 52 | 191 | 0.0 | 0.0 | 0.00 | 0.01 | 0.00 | 88 | 1011.4 |
| 20260509120615 | 52 | 191 | 0.0 | 0.0 | 0.00 | 0.01 | 0.00 | 88 | 1011.4 |
| 20260509120521 | 52 | 191 | 0.0 | 0.0 | 0.00 | 0.01 | 0.00 | 88 | 1011.5 |
| 20260509120434 | 52 | 191 | 0.0 | 0.0 | 0.00 | 0.01 | 0.00 | 89 | 1011.5 |
| 20260509120324 | 52 | 190 | 0.0 | 0.0 | 0.00 | 0.01 | 0.00 | 89 | 1011.5 |
| 20260509120230 | 52 | 190 | 0.0 | 0.0 | 0.00 | 0.01 | 0.00 | 89 | 1011.5 |
| 20260509120136 | 52 | 191 | 0.0 | 0.0 | 0.00 | 0.01 | 0.00 | 90 | 1011.5 |
| 20260509120048 | 52 | 190 | 0.0 | 0.0 | 0.00 | 0.01 | 0.00 | 90 | 1011.5 |
| 20260509120004 | 51 | 191 | 0.0 | 0.0 | 0.00 | 0.01 | 0.00 | 90 | 1011.3 |
| 20260509115933 | 51 | 191 | 0.0 | 0.0 | 0.00 | 0.01 | 0.00 | 90 | 1011.4 |
| 20260509115818 | 51 | 190 | 0.0 | 0.0 | 0.00 | 0.01 | 0.00 | 90 | 1011.4 |
| 20260509115731 | 51 | 190 | 0.0 | 0.0 | 0.00 | 0.01 | 0.00 | 90 | 1011.4 |
| 20260509115622 | 51 | 191 | 0.0 | 0.0 | 0.00 | 0.01 | 0.00 | 90 | 1011.5 |
| 20260509115528 | 51 | 190 | 0.0 | 0.0 | 0.00 | 0.01 | 0.00 | 91 | 1011.4 |
| 20260509115414 | 51 | 191 | 0.0 | 0.0 | 0.00 | 0.01 | 0.00 | 91 | 1011.4 |
| 20260509115320 | 51 | 190 | 0.0 | 0.0 | 0.00 | 0.01 | 0.00 | 91 | 1011.4 |
| 20260509115225 | 51 | 191 | 0.0 | 0.0 | 0.00 | 0.01 | 0.00 | 91 | 1011.4 |
| 20260509115139 | 51 | 190 | 0.0 | 0.0 | 0.00 | 0.01 | 0.00 | 91 | 1011.4 |
| 20260509115048 | 51 | 190 | 0.0 | 0.0 | 0.00 | 0.01 | 0.00 | 91 | 1011.4 |
| 20260509114914 | 51 | 191 | 0.0 | 0.0 | 0.00 | 0.01 | 0.00 | 91 | 1011.4 |
| 20260509114827 | 51 | 191 | 0.0 | 0.0 | 0.00 | 0.01 | 0.00 | 92 | 1011.4 |
| 20260509114713 | 50 | 191 | 0.0 | 0.0 | 0.00 | 0.01 | 0.00 | 92 | 1011.4 |
| 20260509114619 | 50 | 190 | 0.0 | 0.0 | 0.00 | 0.01 | 0.00 | 92 | 1011.4 |
| 20260509114549 | 50 | 191 | 0.0 | 0.0 | 0.00 | 0.01 | 0.00 | 92 | 1011.4 |
| 20260509114524 | 50 | 191 | 0.0 | 0.0 | 0.00 | 0.01 | 0.00 | 92 | 1011.5 |
| 20260509114441 | 50 | 191 | 0.0 | 0.0 | 0.00 | 0.01 | 0.00 | 92 | 1011.5 |
| 20260509114327 | 50 | 190 | 0.0 | 0.0 | 0.00 | 0.01 | 0.00 | 92 | 1011.5 |
| 20260509114213 | 50 | 191 | 0.0 | 0.0 | 0.00 | 0.01 | 0.00 | 92 | 1011.5 |
| 20260509114119 | 50 | 190 | 0.0 | 0.0 | 0.00 | 0.01 | 0.00 | 93 | 1011.5 |
| 20260509114025 | 50 | 190 | 0.0 | 0.0 | 0.00 | 0.01 | 0.00 | 93 | 1011.6 |
| 20260509113916 | 50 | 190 | 0.0 | 0.0 | 0.00 | 0.01 | 0.00 | 93 | 1011.6 |
| 20260509113829 | 50 | 191 | 0.0 | 0.0 | 0.00 | 0.01 | 0.00 | 93 | 1011.7 |
| 20260509113725 | 50 | 190 | 0.0 | 0.0 | 0.00 | 0.01 | 0.00 | 93 | 1011.7 |
| 20260509113611 | 50 | 191 | 0.0 | 0.0 | 0.00 | 0.01 | 0.00 | 93 | 1011.7 |
| 20260509113517 | 49 | 191 | 0.0 | 0.0 | 0.00 | 0.01 | 0.00 | 93 | 1011.7 |
| 20260509113423 | 49 | 191 | 0.0 | 0.0 | 0.00 | 0.01 | 0.00 | 93 | 1011.8 |
| 20260509113340 | 49 | 190 | 0.0 | 0.0 | 0.00 | 0.01 | 0.00 | 93 | 1011.7 |
| 20260509113225 | 49 | 190 | 0.0 | 0.0 | 0.00 | 0.01 | 0.00 | 93 | 1011.7 |
| 20260509113111 | 49 | 190 | 0.0 | 0.0 | 0.00 | 0.01 | 0.00 | 93 | 1011.6 |
| 20260509113044 | 49 | 190 | 0.0 | 0.0 | 0.00 | 0.01 | 0.00 | 93 | 1011.6 |
| 20260509113008 | 49 | 190 | 0.0 | 0.0 | 0.00 | 0.01 | 0.00 | 93 | 1011.5 |
| 20260509112909 | 49 | 191 | 0.0 | 0.0 | 0.00 | 0.01 | 0.00 | 93 | 1011.6 |
| 20260509112815 | 49 | 191 | 0.0 | 0.0 | 0.00 | 0.01 | 0.00 | 94 | 1011.6 |
| 20260509112725 | 49 | 190 | 0.0 | 0.0 | 0.00 | 0.01 | 0.00 | 94 | 1011.6 |
| 20260509112611 | 49 | 190 | 0.0 | 0.0 | 0.00 | 0.01 | 0.00 | 94 | 1011.5 |
| 20260509112525 | 49 | 190 | 0.0 | 0.0 | 0.00 | 0.01 | 0.00 | 94 | 1011.5 |
| 20260509112431 | 49 | 191 | 0.0 | 0.0 | 0.00 | 0.01 | 0.00 | 94 | 1011.6 |
| 20260509112317 | 49 | 190 | 0.0 | 0.0 | 0.00 | 0.01 | 0.00 | 94 | 1011.5 |
| 20260509112224 | 49 | 190 | 0.0 | 0.0 | 0.00 | 0.01 | 0.00 | 94 | 1011.5 |
| 20260509112114 | 49 | 190 | 0.0 | 0.0 | 0.00 | 0.01 | 0.00 | 94 | 1011.5 |
| 20260509112047 | 49 | 190 | 0.0 | 0.0 | 0.00 | 0.01 | 0.00 | 94 | 1011.5 |
| 20260509111912 | 48 | 190 | 0.0 | 0.0 | 0.00 | 0.01 | 0.00 | 94 | 1011.4 |
| 20260509111818 | 48 | 190 | 0.0 | 0.0 | 0.00 | 0.01 | 0.00 | 94 | 1011.4 |
| 20260509111751 | 48 | 191 | 0.0 | 0.0 | 0.00 | 0.01 | 0.00 | 94 | 1011.4 |
| 20260509111618 | 48 | 190 | 0.0 | 0.0 | 0.00 | 0.01 | 0.00 | 94 | 1011.4 |
| 20260509111612 | 48 | 190 | 0.0 | 0.0 | 0.00 | 0.01 | 0.00 | 94 | 1011.3 |
| 20260509111547 | 48 | 190 | 0.0 | 0.0 | 0.00 | 0.01 | 0.00 | 94 | 1011.4 |
| 20260509111413 | 48 | 190 | 0.0 | 0.0 | 0.00 | 0.01 | 0.00 | 94 | 1011.3 |
| 20260509111318 | 48 | 190 | 0.0 | 0.0 | 0.00 | 0.01 | 0.00 | 94 | 1011.3 |
| 20260509111231 | 48 | 190 | 0.0 | 0.0 | 0.00 | 0.01 | 0.00 | 94 | 1011.3 |
| 20260509111118 | 48 | 190 | 0.0 | 0.0 | 0.00 | 0.01 | 0.00 | 94 | 1011.3 |
| 20260509111024 | 48 | 190 | 0.0 | 0.0 | 0.00 | 0.01 | 0.00 | 94 | 1011.3 |
| 20260509110914 | 48 | 191 | 0.0 | 0.0 | 0.00 | 0.01 | 0.00 | 94 | 1011.3 |
| 20260509110847 | 48 | 190 | 0.0 | 0.0 | 0.00 | 0.01 | 0.00 | 94 | 1011.3 |
| 20260509110733 | 48 | 190 | 0.0 | 0.0 | 0.00 | 0.01 | 0.00 | 94 | 1011.3 |
| 20260509110644 | 48 | 190 | 0.0 | 0.0 | 0.00 | 0.01 | 0.00 | 94 | 1011.3 |
| 20260509110549 | 48 | 190 | 0.0 | 0.0 | 0.00 | 0.01 | 0.00 | 94 | 1011.3 |
| 20260509110415 | 48 | 191 | 0.0 | 0.0 | 0.00 | 0.01 | 0.00 | 94 | 1011.3 |
| 20260509110321 | 47 | 190 | 0.0 | 0.0 | 0.00 | 0.01 | 0.00 | 94 | 1011.3 |
| 20260509110212 | 47 | 190 | 0.0 | 0.0 | 0.00 | 0.01 | 0.00 | 94 | 1011.4 |
| 20260509110145 | 47 | 190 | 0.0 | 0.0 | 0.00 | 0.01 | 0.00 | 94 | 1011.4 |
| 20260509110044 | 47 | 190 | 0.0 | 0.0 | 0.00 | 0.01 | 0.00 | 94 | 1011.3 |
| 20260509110025 | 47 | 190 | 0.0 | 0.0 | 0.00 | 0.01 | 0.00 | 94 | 1011.4 |
| 20260509105913 | 47 | 190 | 0.0 | 0.0 | 0.00 | 0.01 | 0.00 | 94 | 1011.4 |
| 20260509105825 | 47 | 191 | 0.0 | 0.0 | 0.00 | 0.01 | 0.00 | 94 | 1011.4 |
| 20260509105715 | 47 | 190 | 0.0 | 0.0 | 0.00 | 0.01 | 0.00 | 94 | 1011.4 |
| 20260509105621 | 47 | 190 | 0.0 | 0.0 | 0.00 | 0.01 | 0.00 | 94 | 1011.4 |
| 20260509105527 | 47 | 190 | 0.0 | 0.0 | 0.00 | 0.01 | 0.00 | 94 | 1011.4 |
| 20260509105414 | 47 | 191 | 0.0 | 0.0 | 0.00 | 0.01 | 0.00 | 94 | 1011.4 |
| 20260509105320 | 47 | 191 | 0.0 | 0.0 | 0.00 | 0.01 | 0.00 | 94 | 1011.4 |
| 20260509105234 | 47 | 190 | 0.0 | 0.0 | 0.00 | 0.01 | 0.00 | 94 | 1011.3 |
| 20260509105123 | 47 | 190 | 0.0 | 0.0 | 0.00 | 0.01 | 0.00 | 94 | 1011.3 |
| 20260509105009 | 47 | 191 | 0.0 | 0.0 | 0.00 | 0.01 | 0.00 | 94 | 1011.4 |
| 20260509104915 | 47 | 190 | 0.0 | 0.0 | 0.00 | 0.01 | 0.00 | 94 | 1011.4 |
| 20260509104828 | 47 | 190 | 0.0 | 0.0 | 0.00 | 0.01 | 0.00 | 94 | 1011.3 |
| 20260509104716 | 47 | 191 | 0.0 | 0.0 | 0.00 | 0.01 | 0.00 | 94 | 1011.4 |
| 20260509104621 | 47 | 191 | 0.0 | 0.0 | 0.00 | 0.01 | 0.00 | 94 | 1011.4 |
| 20260509104558 | 46 | 190 | 0.0 | 0.0 | 0.00 | 0.01 | 0.00 | 93 | 1011.3 |
| 20260509104511 | 47 | 190 | 0.0 | 0.0 | 0.00 | 0.01 | 0.00 | 93 | 1011.4 |
| 20260509104417 | 47 | 190 | 0.0 | 0.0 | 0.00 | 0.01 | 0.00 | 93 | 1011.4 |
| 20260509104323 | 47 | 190 | 0.0 | 0.0 | 0.00 | 0.01 | 0.00 | 93 | 1011.4 |
| 20260509104210 | 47 | 190 | 0.0 | 0.0 | 0.00 | 0.01 | 0.00 | 93 | 1011.4 |
| 20260509104123 | 47 | 190 | 0.0 | 0.0 | 0.00 | 0.01 | 0.00 | 93 | 1011.4 |
| 20260509104034 | 47 | 190 | 0.0 | 0.0 | 0.00 | 0.01 | 0.00 | 93 | 1011.4 |
| 20260509103919 | 47 | 190 | 0.0 | 0.0 | 0.00 | 0.01 | 0.00 | 93 | 1011.4 |
| 20260509103832 | 47 | 191 | 0.0 | 0.0 | 0.00 | 0.01 | 0.00 | 93 | 1011.4 |
| 20260509103719 | 47 | 190 | 0.0 | 0.0 | 0.00 | 0.01 | 0.00 | 94 | 1011.4 |
| 20260509103644 | 47 | 191 | 0.0 | 0.0 | 0.00 | 0.01 | 0.00 | 93 | 1011.4 |
| 20260509103509 | 47 | 190 | 0.0 | 0.0 | 0.00 | 0.01 | 0.00 | 93 | 1011.4 |
| 20260509103420 | 47 | 190 | 0.0 | 0.0 | 0.00 | 0.01 | 0.00 | 93 | 1011.4 |
| 20260509103333 | 47 | 190 | 0.0 | 0.0 | 0.00 | 0.01 | 0.00 | 93 | 1011.4 |
| 20260509103218 | 47 | 190 | 0.0 | 0.0 | 0.00 | 0.01 | 0.00 | 93 | 1011.4 |
| 20260509103125 | 47 | 190 | 0.0 | 0.0 | 0.00 | 0.01 | 0.00 | 93 | 1011.4 |
| 20260509103033 | 46 | 190 | 0.0 | 0.0 | 0.00 | 0.01 | 0.00 | 93 | 1011.2 |
| 20260509103011 | 47 | 190 | 0.0 | 0.0 | 0.00 | 0.01 | 0.00 | 93 | 1011.3 |
| 20260509102944 | 47 | 190 | 0.0 | 0.0 | 0.00 | 0.01 | 0.00 | 93 | 1011.3 |
| 20260509102814 | 47 | 190 | 0.0 | 0.0 | 0.00 | 0.01 | 0.00 | 93 | 1011.4 |
| 20260509102720 | 47 | 190 | 0.0 | 0.0 | 0.00 | 0.01 | 0.00 | 93 | 1011.4 |
| 20260509102626 | 46 | 191 | 0.0 | 0.0 | 0.00 | 0.01 | 0.00 | 93 | 1011.3 |
| 20260509102513 | 46 | 190 | 0.0 | 0.0 | 0.00 | 0.01 | 0.00 | 93 | 1011.3 |
| 20260509102426 | 46 | 190 | 0.0 | 0.0 | 0.00 | 0.01 | 0.00 | 93 | 1011.3 |
| 20260509102313 | 46 | 191 | 0.0 | 0.0 | 0.00 | 0.01 | 0.00 | 93 | 1011.4 |
| 20260509102223 | 46 | 190 | 0.0 | 0.0 | 0.00 | 0.01 | 0.00 | 93 | 1011.4 |
| 20260509102110 | 46 | 191 | 0.0 | 0.0 | 0.00 | 0.01 | 0.00 | 93 | 1011.4 |
| 20260509102017 | 46 | 190 | 0.0 | 0.0 | 0.00 | 0.01 | 0.00 | 93 | 1011.4 |
| 20260509101931 | 46 | 190 | 0.0 | 0.0 | 0.00 | 0.01 | 0.00 | 93 | 1011.4 |
| 20260509101810 | 46 | 190 | 0.0 | 0.0 | 0.00 | 0.01 | 0.00 | 93 | 1011.4 |
| 20260509101727 | 46 | 190 | 0.0 | 0.0 | 0.00 | 0.01 | 0.00 | 93 | 1011.4 |
| 20260509101614 | 46 | 191 | 0.0 | 0.0 | 0.00 | 0.01 | 0.00 | 93 | 1011.4 |
| 20260509101553 | 46 | 190 | 0.0 | 0.0 | 0.00 | 0.01 | 0.00 | 93 | 1011.3 |
| 20260509101520 | 46 | 190 | 0.0 | 0.0 | 0.00 | 0.01 | 0.00 | 93 | 1011.4 |
| 20260509101427 | 46 | 190 | 0.0 | 0.0 | 0.00 | 0.01 | 0.00 | 93 | 1011.3 |
| 20260509101314 | 46 | 190 | 0.0 | 0.0 | 0.00 | 0.01 | 0.00 | 93 | 1011.3 |
| 20260509101226 | 46 | 190 | 0.0 | 0.0 | 0.00 | 0.01 | 0.00 | 92 | 1011.3 |
| 20260509101118 | 46 | 190 | 0.0 | 0.0 | 0.00 | 0.01 | 0.00 | 92 | 1011.3 |
| 20260509101024 | 46 | 190 | 0.0 | 0.0 | 0.00 | 0.01 | 0.00 | 92 | 1011.3 |
| 20260509100911 | 46 | 190 | 0.0 | 0.0 | 0.00 | 0.01 | 0.00 | 92 | 1011.3 |
| 20260509100816 | 46 | 190 | 0.0 | 0.0 | 0.00 | 0.01 | 0.00 | 92 | 1011.3 |
| 20260509100724 | 47 | 190 | 0.0 | 0.0 | 0.00 | 0.01 | 0.00 | 92 | 1011.3 |
| 20260509100614 | 47 | 191 | 0.0 | 0.0 | 0.00 | 0.01 | 0.00 | 92 | 1011.3 |
| 20260509100527 | 47 | 190 | 0.0 | 0.0 | 0.00 | 0.01 | 0.00 | 92 | 1011.2 |
| 20260509100414 | 47 | 190 | 0.0 | 0.0 | 0.00 | 0.01 | 0.00 | 93 | 1011.2 |
| 20260509100319 | 47 | 191 | 0.0 | 0.0 | 0.00 | 0.01 | 0.00 | 93 | 1011.2 |
| 20260509100226 | 47 | 190 | 0.0 | 0.0 | 0.00 | 0.01 | 0.00 | 93 | 1011.2 |
| 20260509100116 | 47 | 190 | 0.0 | 0.0 | 0.00 | 0.01 | 0.00 | 93 | 1011.2 |
| 20260509100035 | 46 | 190 | 0.0 | 0.0 | 0.00 | 0.01 | 0.00 | 93 | 1011.1 |
| 20260509100023 | 47 | 190 | 0.0 | 0.0 | 0.00 | 0.01 | 0.00 | 93 | 1011.2 |
| 20260509095935 | 47 | 190 | 0.0 | 0.0 | 0.00 | 0.01 | 0.00 | 93 | 1011.2 |
| 20260509095821 | 47 | 190 | 0.0 | 0.0 | 0.00 | 0.01 | 0.00 | 93 | 1011.2 |
| 20260509095727 | 47 | 190 | 0.0 | 0.0 | 0.00 | 0.01 | 0.00 | 93 | 1011.3 |
| 20260509095614 | 47 | 190 | 0.0 | 0.0 | 0.00 | 0.01 | 0.00 | 93 | 1011.2 |
| 20260509095525 | 47 | 190 | 0.0 | 0.0 | 0.00 | 0.01 | 0.00 | 93 | 1011.2 |
| 20260509095411 | 47 | 191 | 0.0 | 0.0 | 0.00 | 0.01 | 0.00 | 93 | 1011.3 |
| 20260509095318 | 47 | 190 | 0.0 | 0.0 | 0.00 | 0.01 | 0.00 | 93 | 1011.3 |
| 20260509095231 | 47 | 190 | 0.0 | 0.0 | 0.00 | 0.01 | 0.00 | 93 | 1011.2 |
| 20260509095117 | 47 | 190 | 0.0 | 0.0 | 0.00 | 0.01 | 0.00 | 93 | 1011.2 |
| 20260509095028 | 47 | 190 | 0.0 | 0.0 | 0.00 | 0.01 | 0.00 | 93 | 1011.2 |
| 20260509094915 | 47 | 191 | 0.0 | 0.0 | 0.00 | 0.01 | 0.00 | 93 | 1011.2 |
| 20260509094822 | 47 | 190 | 0.0 | 0.0 | 0.00 | 0.01 | 0.00 | 93 | 1011.2 |
| 20260509094736 | 47 | 190 | 0.0 | 0.0 | 0.00 | 0.01 | 0.00 | 93 | 1011.2 |
| 20260509094620 | 47 | 191 | 0.0 | 0.0 | 0.00 | 0.01 | 0.00 | 93 | 1011.2 |
| 20260509094555 | 46 | 190 | 0.0 | 0.0 | 0.00 | 0.01 | 0.00 | 93 | 1011.2 |
| 20260509094526 | 47 | 190 | 0.0 | 0.0 | 0.00 | 0.01 | 0.00 | 93 | 1011.2 |
| 20260509094417 | 47 | 190 | 0.0 | 0.0 | 0.00 | 0.01 | 0.00 | 93 | 1011.2 |
| 20260509094324 | 47 | 190 | 0.0 | 0.0 | 0.00 | 0.01 | 0.00 | 93 | 1011.2 |
| 20260509094210 | 47 | 190 | 0.0 | 0.0 | 0.00 | 0.01 | 0.00 | 93 | 1011.2 |
| 20260509094123 | 47 | 190 | 0.0 | 0.0 | 0.00 | 0.01 | 0.00 | 93 | 1011.2 |
| 20260509094009 | 47 | 190 | 0.0 | 0.0 | 0.00 | 0.01 | 0.00 | 93 | 1011.3 |
| 20260509093919 | 47 | 190 | 0.0 | 0.0 | 0.00 | 0.01 | 0.00 | 93 | 1011.3 |
| 20260509093826 | 47 | 190 | 0.0 | 0.0 | 0.00 | 0.01 | 0.00 | 93 | 1011.3 |
| 20260509093712 | 47 | 190 | 0.0 | 0.0 | 0.00 | 0.01 | 0.00 | 93 | 1011.3 |
| 20260509093619 | 47 | 190 | 0.0 | 0.0 | 0.00 | 0.01 | 0.00 | 93 | 1011.3 |
| 20260509093532 | 47 | 190 | 0.0 | 0.0 | 0.00 | 0.01 | 0.00 | 93 | 1011.3 |
| 20260509093418 | 47 | 190 | 0.0 | 0.0 | 0.00 | 0.01 | 0.00 | 93 | 1011.4 |
| 20260509093328 | 47 | 190 | 0.0 | 0.0 | 0.00 | 0.01 | 0.00 | 93 | 1011.4 |
| 20260509093215 | 47 | 190 | 0.0 | 0.0 | 0.00 | 0.01 | 0.00 | 93 | 1011.4 |
| 20260509093122 | 47 | 190 | 0.0 | 0.0 | 0.00 | 0.01 | 0.00 | 93 | 1011.4 |
| 20260509093035 | 47 | 191 | 0.0 | 0.0 | 0.00 | 0.01 | 0.00 | 93 | 1011.4 |
| 20260509093024 | 46 | 190 | 0.0 | 0.0 | 0.00 | 0.01 | 0.00 | 93 | 1011.4 |
| 20260509092909 | 47 | 190 | 0.0 | 0.0 | 0.00 | 0.01 | 0.00 | 93 | 1011.5 |
| 20260509092842 | 47 | 190 | 0.0 | 0.0 | 0.00 | 0.01 | 0.00 | 93 | 1011.5 |
| 20260509092711 | 47 | 190 | 0.0 | 0.0 | 0.00 | 0.01 | 0.00 | 93 | 1011.5 |
| 20260509092618 | 47 | 190 | 0.0 | 0.0 | 0.00 | 0.01 | 0.00 | 93 | 1011.5 |
| 20260509092531 | 47 | 190 | 0.0 | 0.0 | 0.00 | 0.01 | 0.00 | 93 | 1011.5 |
| 20260509092417 | 47 | 190 | 0.0 | 0.0 | 0.00 | 0.01 | 0.00 | 93 | 1011.5 |
| 20260509092324 | 47 | 190 | 0.0 | 0.0 | 0.00 | 0.01 | 0.00 | 93 | 1011.5 |
| 20260509092214 | 47 | 191 | 0.0 | 0.0 | 0.00 | 0.01 | 0.00 | 93 | 1011.5 |
| 20260509092121 | 47 | 190 | 0.0 | 0.0 | 0.00 | 0.01 | 0.00 | 93 | 1011.5 |
| 20260509092035 | 47 | 190 | 0.0 | 0.0 | 0.00 | 0.01 | 0.00 | 93 | 1011.5 |
| 20260509091914 | 47 | 190 | 0.0 | 0.0 | 0.00 | 0.01 | 0.00 | 93 | 1011.5 |
| 20260509091827 | 47 | 190 | 0.0 | 0.0 | 0.00 | 0.01 | 0.00 | 93 | 1011.5 |
| 20260509091717 | 47 | 190 | 0.0 | 0.0 | 0.00 | 0.01 | 0.00 | 93 | 1011.5 |
| 20260509091624 | 47 | 190 | 0.0 | 0.0 | 0.00 | 0.01 | 0.00 | 93 | 1011.5 |
| 20260509091549 | 46 | 190 | 0.0 | 0.0 | 0.00 | 0.01 | 0.00 | 93 | 1011.5 |
| 20260509091510 | 47 | 190 | 0.0 | 0.0 | 0.00 | 0.01 | 0.00 | 93 | 1011.6 |
| 20260509091443 | 47 | 190 | 0.0 | 0.0 | 0.00 | 0.01 | 0.00 | 93 | 1011.6 |
| 20260509091309 | 47 | 190 | 0.0 | 0.0 | 0.00 | 0.01 | 0.00 | 93 | 1011.5 |
| 20260509091215 | 47 | 190 | 0.0 | 0.0 | 0.00 | 0.01 | 0.00 | 93 | 1011.5 |
| 20260509091124 | 47 | 190 | 0.0 | 0.0 | 0.00 | 0.01 | 0.00 | 93 | 1011.6 |
| 20260509091011 | 47 | 190 | 0.0 | 0.0 | 0.00 | 0.01 | 0.00 | 93 | 1011.6 |
| 20260509090917 | 47 | 190 | 0.0 | 0.0 | 0.00 | 0.01 | 0.00 | 93 | 1011.6 |
| 20260509090827 | 47 | 190 | 0.0 | 0.0 | 0.00 | 0.01 | 0.00 | 93 | 1011.6 |
| 20260509090714 | 47 | 190 | 0.0 | 0.0 | 0.00 | 0.01 | 0.00 | 93 | 1011.5 |
| 20260509090621 | 47 | 190 | 0.0 | 0.0 | 0.00 | 0.01 | 0.00 | 93 | 1011.5 |
| 20260509090511 | 47 | 190 | 0.0 | 0.0 | 0.00 | 0.01 | 0.00 | 93 | 1011.5 |
| 20260509090418 | 47 | 190 | 0.0 | 0.0 | 0.00 | 0.01 | 0.00 | 93 | 1011.5 |
| 20260509090331 | 47 | 190 | 0.0 | 0.0 | 0.00 | 0.01 | 0.00 | 93 | 1011.5 |
| 20260509090210 | 47 | 191 | 0.0 | 0.0 | 0.00 | 0.01 | 0.00 | 93 | 1011.5 |
| 20260509090143 | 47 | 190 | 0.0 | 0.0 | 0.00 | 0.01 | 0.00 | 93 | 1011.5 |
| 20260509090045 | 46 | 191 | 0.0 | 0.0 | 0.00 | 0.01 | 0.00 | 93 | 1011.4 |
| 20260509090011 | 47 | 191 | 0.0 | 0.0 | 0.00 | 0.01 | 0.00 | 93 | 1011.5 |
| 20260509085944 | 47 | 190 | 0.0 | 0.0 | 0.00 | 0.01 | 0.00 | 93 | 1011.5 |
| 20260509085810 | 47 | 190 | 0.0 | 0.0 | 0.00 | 0.01 | 0.00 | 93 | 1011.5 |
| 20260509085717 | 47 | 190 | 0.0 | 0.0 | 0.00 | 0.01 | 0.00 | 93 | 1011.5 |
| 20260509085622 | 47 | 190 | 0.0 | 0.0 | 0.00 | 0.01 | 0.00 | 93 | 1011.6 |
| 20260509085535 | 47 | 190 | 0.0 | 0.0 | 0.00 | 0.01 | 0.00 | 93 | 1011.6 |
| 20260509085441 | 47 | 190 | 0.0 | 0.0 | 0.00 | 0.01 | 0.00 | 93 | 1011.6 |
| 20260509085311 | 47 | 190 | 0.0 | 0.0 | 0.00 | 0.01 | 0.00 | 93 | 1011.6 |
| 20260509085217 | 47 | 190 | 0.0 | 0.0 | 0.00 | 0.01 | 0.00 | 93 | 1011.6 |
| 20260509085124 | 47 | 190 | 0.0 | 0.0 | 0.00 | 0.01 | 0.00 | 93 | 1011.6 |
| 20260509085010 | 47 | 190 | 0.0 | 0.0 | 0.00 | 0.01 | 0.00 | 93 | 1011.7 |
| 20260509084923 | 47 | 190 | 0.0 | 0.0 | 0.00 | 0.01 | 0.00 | 93 | 1011.7 |
| 20260509084814 | 47 | 190 | 0.0 | 0.0 | 0.00 | 0.01 | 0.00 | 93 | 1011.7 |
| 20260509084720 | 47 | 190 | 0.0 | 0.0 | 0.00 | 0.01 | 0.00 | 93 | 1011.7 |
| 20260509084627 | 47 | 190 | 0.0 | 0.0 | 0.00 | 0.01 | 0.00 | 93 | 1011.6 |
| 20260509084542 | 46 | 190 | 0.0 | 0.0 | 0.00 | 0.01 | 0.00 | 93 | 1011.6 |
| 20260509084513 | 47 | 190 | 0.0 | 0.0 | 0.00 | 0.01 | 0.00 | 93 | 1011.6 |
| 20260509084418 | 47 | 191 | 0.0 | 0.0 | 0.00 | 0.01 | 0.00 | 93 | 1011.6 |
| 20260509084331 | 47 | 190 | 0.0 | 0.0 | 0.00 | 0.01 | 0.00 | 93 | 1011.7 |
| 20260509084241 | 47 | 190 | 0.0 | 0.0 | 0.00 | 0.01 | 0.00 | 93 | 1011.7 |
| 20260509084127 | 47 | 190 | 0.0 | 0.0 | 0.00 | 0.01 | 0.00 | 93 | 1011.7 |
| 20260509084013 | 47 | 190 | 0.0 | 0.0 | 0.00 | 0.01 | 0.00 | 93 | 1011.7 |
| 20260509083947 | 47 | 190 | 0.0 | 0.0 | 0.00 | 0.01 | 0.00 | 93 | 1011.7 |
| 20260509083825 | 47 | 190 | 0.0 | 0.0 | 0.00 | 0.01 | 0.00 | 93 | 1011.7 |
| 20260509083713 | 47 | 190 | 0.0 | 0.0 | 0.00 | 0.01 | 0.00 | 93 | 1011.7 |
| 20260509083629 | 47 | 190 | 0.0 | 0.0 | 0.00 | 0.01 | 0.00 | 93 | 1011.7 |
| 20260509083535 | 46 | 191 | 0.0 | 0.0 | 0.00 | 0.01 | 0.00 | 93 | 1011.7 |
| 20260509083420 | 46 | 190 | 0.0 | 0.0 | 0.00 | 0.01 | 0.00 | 93 | 1011.7 |
| 20260509083326 | 46 | 190 | 0.0 | 0.0 | 0.00 | 0.01 | 0.00 | 93 | 1011.7 |
| 20260509083213 | 46 | 190 | 0.0 | 0.0 | 0.00 | 0.01 | 0.00 | 93 | 1011.6 |
| 20260509083126 | 46 | 190 | 0.0 | 0.0 | 0.00 | 0.01 | 0.00 | 93 | 1011.6 |
| 20260509083016 | 46 | 190 | 0.0 | 0.0 | 0.00 | 0.01 | 0.00 | 93 | 1011.6 |
| 20260509083006 | 46 | 190 | 0.0 | 0.0 | 0.00 | 0.01 | 0.00 | 93 | 1011.6 |
| 20260509082922 | 46 | 190 | 0.0 | 0.0 | 0.00 | 0.01 | 0.00 | 93 | 1011.6 |
| 20260509082828 | 46 | 190 | 0.0 | 0.0 | 0.00 | 0.01 | 0.00 | 93 | 1011.7 |
| 20260509082715 | 46 | 190 | 0.0 | 0.0 | 0.00 | 0.01 | 0.00 | 93 | 1011.7 |
| 20260509082621 | 46 | 190 | 0.0 | 0.0 | 0.00 | 0.01 | 0.00 | 93 | 1011.6 |
| 20260509082512 | 46 | 190 | 0.0 | 0.0 | 0.00 | 0.01 | 0.00 | 93 | 1011.6 |
| 20260509082424 | 46 | 190 | 0.0 | 0.0 | 0.00 | 0.01 | 0.00 | 93 | 1011.6 |
| 20260509082332 | 46 | 190 | 0.0 | 0.0 | 0.00 | 0.01 | 0.00 | 93 | 1011.6 |
| 20260509082244 | 46 | 190 | 0.0 | 0.0 | 0.00 | 0.01 | 0.00 | 93 | 1011.6 |
| 20260509082108 | 46 | 190 | 0.0 | 0.0 | 0.00 | 0.01 | 0.00 | 93 | 1011.7 |
| 20260509082035 | 46 | 190 | 0.0 | 0.0 | 0.00 | 0.01 | 0.00 | 93 | 1011.7 |
| 20260509081927 | 46 | 190 | 0.0 | 0.0 | 0.00 | 0.01 | 0.00 | 93 | 1011.7 |
| 20260509081817 | 46 | 191 | 0.0 | 0.0 | 0.00 | 0.01 | 0.00 | 93 | 1011.6 |
| 20260509081744 | 46 | 190 | 0.0 | 0.0 | 0.00 | 0.01 | 0.00 | 93 | 1011.7 |
| 20260509081637 | 46 | 190 | 0.0 | 0.0 | 0.00 | 0.01 | 0.00 | 93 | 1011.7 |
| 20260509081608 | 46 | 190 | 0.0 | 0.0 | 0.00 | 0.01 | 0.00 | 93 | 1011.7 |
| 20260509081521 | 46 | 190 | 0.0 | 0.0 | 0.00 | 0.01 | 0.00 | 93 | 1011.7 |
| 20260509081428 | 46 | 190 | 0.0 | 0.0 | 0.00 | 0.01 | 0.00 | 93 | 1011.7 |
| 20260509081314 | 46 | 191 | 0.0 | 0.0 | 0.00 | 0.01 | 0.00 | 93 | 1011.7 |
| 20260509081224 | 46 | 190 | 0.0 | 0.0 | 0.00 | 0.01 | 0.00 | 93 | 1011.7 |
| 20260509081111 | 46 | 190 | 0.0 | 0.0 | 0.00 | 0.01 | 0.00 | 93 | 1011.7 |
| 20260509081024 | 46 | 190 | 0.0 | 0.0 | 0.00 | 0.01 | 0.00 | 93 | 1011.7 |
| 20260509080911 | 46 | 190 | 0.0 | 0.0 | 0.00 | 0.01 | 0.00 | 93 | 1011.6 |
| 20260509080837 | 46 | 190 | 0.0 | 0.0 | 0.00 | 0.01 | 0.00 | 93 | 1011.6 |
| 20260509080722 | 46 | 191 | 0.0 | 0.0 | 0.00 | 0.01 | 0.00 | 93 | 1011.7 |
| 20260509080639 | 46 | 190 | 0.0 | 0.0 | 0.00 | 0.01 | 0.00 | 93 | 1011.6 |
| 20260509080525 | 46 | 190 | 0.0 | 0.0 | 0.00 | 0.01 | 0.00 | 93 | 1011.6 |
| 20260509080432 | 46 | 190 | 0.0 | 0.0 | 0.00 | 0.01 | 0.00 | 93 | 1011.6 |
| 20260509080323 | 46 | 190 | 0.0 | 0.0 | 0.00 | 0.01 | 0.00 | 93 | 1011.6 |
| 20260509080210 | 46 | 190 | 0.0 | 0.0 | 0.00 | 0.01 | 0.00 | 93 | 1011.7 |
| 20260509080116 | 46 | 190 | 0.0 | 0.0 | 0.00 | 0.01 | 0.00 | 93 | 1011.7 |
| 20260509080053 | 46 | 190 | 0.0 | 0.0 | 0.00 | 0.01 | 0.00 | 93 | 1011.7 |
| 20260509080027 | 46 | 190 | 0.0 | 0.0 | 0.00 | 0.01 | 0.00 | 93 | 1011.7 |
| 20260509075918 | 46 | 190 | 0.0 | 0.0 | 0.00 | 0.01 | 0.00 | 93 | 1011.7 |
| 20260509075844 | 46 | 190 | 0.0 | 0.0 | 0.00 | 0.01 | 0.00 | 93 | 1011.7 |
| 20260509075709 | 46 | 191 | 0.0 | 0.0 | 0.00 | 0.01 | 0.00 | 93 | 1011.8 |
| 20260509075616 | 46 | 190 | 0.0 | 0.0 | 0.00 | 0.01 | 0.00 | 93 | 1011.8 |
| 20260509075529 | 46 | 190 | 0.0 | 0.0 | 0.00 | 0.01 | 0.00 | 93 | 1011.8 |
| 20260509075439 | 46 | 190 | 0.0 | 0.0 | 0.00 | 0.01 | 0.00 | 93 | 1011.8 |
| 20260509075351 | 46 | 190 | 0.0 | 0.0 | 0.00 | 0.01 | 0.00 | 93 | 1011.7 |
| 20260509075217 | 46 | 190 | 0.0 | 0.0 | 0.00 | 0.01 | 0.00 | 93 | 1011.8 |
| 20260509075123 | 46 | 190 | 0.0 | 0.0 | 0.00 | 0.01 | 0.00 | 94 | 1011.8 |
| 20260509075010 | 46 | 190 | 0.0 | 0.0 | 0.00 | 0.01 | 0.00 | 94 | 1011.8 |
| 20260509074916 | 46 | 190 | 0.0 | 0.0 | 0.00 | 0.01 | 0.00 | 94 | 1011.8 |
| 20260509074833 | 46 | 190 | 0.0 | 0.0 | 0.00 | 0.01 | 0.00 | 94 | 1011.8 |
| 20260509074739 | 46 | 191 | 0.0 | 0.0 | 0.00 | 0.01 | 0.00 | 94 | 1011.9 |
| 20260509074624 | 46 | 190 | 0.0 | 0.0 | 0.00 | 0.01 | 0.00 | 94 | 1011.9 |
| 20260509074542 | 45 | 190 | 0.0 | 0.0 | 0.00 | 0.01 | 0.00 | 94 | 1011.9 |
| 20260509074510 | 46 | 190 | 0.0 | 0.0 | 0.00 | 0.01 | 0.00 | 94 | 1011.9 |
| 20260509074443 | 46 | 190 | 0.0 | 0.0 | 0.00 | 0.01 | 0.00 | 93 | 1011.9 |
| 20260509074328 | 46 | 190 | 0.0 | 0.0 | 0.00 | 0.01 | 0.00 | 94 | 1011.9 |
| 20260509074219 | 46 | 190 | 0.0 | 0.0 | 0.00 | 0.01 | 0.00 | 94 | 1011.9 |
| 20260509074125 | 46 | 190 | 0.0 | 0.0 | 0.00 | 0.01 | 0.00 | 93 | 1011.9 |
| 20260509074012 | 46 | 191 | 0.0 | 0.0 | 0.00 | 0.01 | 0.00 | 93 | 1011.9 |
| 20260509073925 | 46 | 190 | 0.0 | 0.0 | 0.00 | 0.01 | 0.00 | 94 | 1011.9 |
| 20260509073831 | 46 | 190 | 0.0 | 0.0 | 0.00 | 0.01 | 0.00 | 94 | 1011.9 |
| 20260509073718 | 46 | 190 | 0.0 | 0.0 | 0.00 | 0.01 | 0.00 | 94 | 1011.9 |
| 20260509073628 | 46 | 190 | 0.0 | 0.0 | 0.00 | 0.01 | 0.00 | 94 | 1012.0 |
| 20260509073515 | 46 | 191 | 0.0 | 0.0 | 0.00 | 0.01 | 0.00 | 94 | 1012.0 |
| 20260509073421 | 46 | 190 | 0.0 | 0.0 | 0.00 | 0.01 | 0.00 | 94 | 1012.0 |
| 20260509073334 | 46 | 191 | 0.0 | 0.0 | 0.00 | 0.01 | 0.00 | 94 | 1012.0 |
| 20260509073241 | 46 | 190 | 0.0 | 0.0 | 0.00 | 0.01 | 0.00 | 94 | 1012.0 |
| 20260509073110 | 46 | 190 | 0.0 | 0.0 | 0.00 | 0.01 | 0.00 | 94 | 1012.0 |
| 20260509073042 | 45 | 190 | 0.0 | 0.0 | 0.00 | 0.01 | 0.00 | 94 | 1012.0 |
| 20260509073017 | 45 | 190 | 0.0 | 0.0 | 0.00 | 0.01 | 0.00 | 94 | 1012.0 |
| 20260509072931 | 45 | 191 | 0.0 | 0.0 | 0.00 | 0.01 | 0.00 | 94 | 1012.0 |
| 20260509072810 | 45 | 190 | 0.0 | 0.0 | 0.00 | 0.01 | 0.00 | 94 | 1012.0 |
| 20260509072723 | 45 | 190 | 0.0 | 0.0 | 0.00 | 0.01 | 0.00 | 94 | 1012.0 |
| 20260509072649 | 45 | 190 | 0.0 | 0.0 | 0.00 | 0.01 | 0.00 | 94 | 1012.0 |
| 20260509072519 | 45 | 190 | 0.0 | 0.0 | 0.00 | 0.01 | 0.00 | 94 | 1012.0 |
| 20260509072432 | 45 | 190 | 0.0 | 0.0 | 0.00 | 0.01 | 0.00 | 94 | 1012.0 |
| 20260509072319 | 45 | 190 | 0.0 | 0.0 | 0.00 | 0.01 | 0.00 | 94 | 1012.0 |
| 20260509072226 | 45 | 190 | 0.0 | 0.0 | 0.00 | 0.01 | 0.00 | 94 | 1012.0 |
| 20260509072132 | 45 | 190 | 0.0 | 0.0 | 0.00 | 0.01 | 0.00 | 94 | 1012.0 |
| 20260509072018 | 45 | 190 | 0.0 | 0.0 | 0.00 | 0.01 | 0.00 | 94 | 1012.0 |
| 20260509071934 | 45 | 190 | 0.0 | 0.0 | 0.00 | 0.01 | 0.00 | 94 | 1012.0 |
| 20260509071841 | 45 | 190 | 0.0 | 0.0 | 0.00 | 0.01 | 0.00 | 93 | 1012.0 |
| 20260509071726 | 45 | 190 | 0.0 | 0.0 | 0.00 | 0.01 | 0.00 | 94 | 1012.0 |
| 20260509071630 | 45 | 190 | 0.0 | 0.0 | 0.00 | 0.01 | 0.00 | 94 | 1012.0 |
| 20260509071612 | 45 | 190 | 0.0 | 0.0 | 0.00 | 0.01 | 0.00 | 94 | 1012.0 |
| 20260509071545 | 45 | 190 | 0.0 | 0.0 | 0.00 | 0.01 | 0.00 | 94 | 1012.0 |
| 20260509071411 | 45 | 190 | 0.0 | 0.0 | 0.00 | 0.01 | 0.00 | 93 | 1012.0 |
| 20260509071321 | 45 | 190 | 0.0 | 0.0 | 0.00 | 0.01 | 0.00 | 93 | 1012.0 |
| 20260509071234 | 45 | 190 | 0.0 | 0.0 | 0.00 | 0.01 | 0.00 | 94 | 1012.0 |
| 20260509071141 | 45 | 190 | 0.0 | 0.0 | 0.00 | 0.01 | 0.00 | 94 | 1012.1 |
| 20260509071025 | 45 | 190 | 0.0 | 0.0 | 0.00 | 0.01 | 0.00 | 94 | 1012.1 |
| 20260509070911 | 45 | 190 | 0.0 | 0.0 | 0.00 | 0.01 | 0.00 | 94 | 1012.0 |
| 20260509070817 | 45 | 190 | 0.0 | 0.0 | 0.00 | 0.01 | 0.00 | 94 | 1012.0 |
| 20260509070734 | 45 | 190 | 0.0 | 0.0 | 0.00 | 0.01 | 0.00 | 94 | 1012.1 |
| 20260509070642 | 45 | 190 | 0.0 | 0.0 | 0.00 | 0.01 | 0.00 | 94 | 1012.1 |
| 20260509070526 | 45 | 191 | 0.0 | 0.0 | 0.00 | 0.01 | 0.00 | 94 | 1012.0 |
| 20260509070413 | 45 | 190 | 0.0 | 0.0 | 0.00 | 0.01 | 0.00 | 94 | 1012.1 |
| 20260509070326 | 45 | 190 | 0.0 | 0.0 | 0.00 | 0.01 | 0.00 | 94 | 1012.1 |
| 20260509070232 | 45 | 190 | 0.0 | 0.0 | 0.00 | 0.01 | 0.00 | 94 | 1012.0 |
| 20260509070123 | 45 | 190 | 0.0 | 0.0 | 0.00 | 0.01 | 0.00 | 94 | 1012.0 |
| 20260509070058 | 45 | 190 | 0.0 | 0.0 | 0.00 | 0.01 | 0.00 | 94 | 1012.1 |
| 20260509070029 | 44 | 191 | 0.0 | 0.0 | 0.00 | 0.01 | 0.00 | 94 | 1012.0 |
| 20260509065914 | 45 | 190 | 0.0 | 0.0 | 0.00 | 0.01 | 0.00 | 94 | 1012.1 |
| 20260509065827 | 45 | 190 | 0.0 | 0.0 | 0.00 | 0.01 | 0.00 | 94 | 1012.1 |
| 20260509065713 | 45 | 190 | 0.0 | 0.0 | 0.00 | 0.01 | 0.00 | 94 | 1012.0 |
| 20260509065620 | 45 | 191 | 0.0 | 0.0 | 0.00 | 0.01 | 0.00 | 94 | 1012.0 |
| 20260509065511 | 45 | 190 | 0.0 | 0.0 | 0.00 | 0.01 | 0.00 | 94 | 1012.1 |
| 20260509065418 | 45 | 190 | 0.0 | 0.0 | 0.00 | 0.01 | 0.00 | 94 | 1012.1 |
| 20260509065332 | 45 | 190 | 0.0 | 0.0 | 0.00 | 0.01 | 0.00 | 94 | 1012.0 |
| 20260509065216 | 45 | 191 | 0.0 | 0.0 | 0.00 | 0.01 | 0.00 | 94 | 1012.0 |
| 20260509065123 | 45 | 190 | 0.0 | 0.0 | 0.00 | 0.01 | 0.00 | 94 | 1012.1 |
| 20260509065013 | 45 | 190 | 0.0 | 0.0 | 0.00 | 0.01 | 0.00 | 94 | 1012.1 |
| 20260509064920 | 45 | 190 | 0.0 | 0.0 | 0.00 | 0.01 | 0.00 | 94 | 1012.1 |
| 20260509064833 | 44 | 191 | 0.0 | 0.0 | 0.00 | 0.01 | 0.00 | 94 | 1012.2 |
| 20260509064720 | 44 | 191 | 0.0 | 0.0 | 0.00 | 0.01 | 0.00 | 94 | 1012.2 |
| 20260509064626 | 44 | 190 | 0.0 | 0.0 | 0.00 | 0.01 | 0.00 | 94 | 1012.2 |
| 20260509064557 | 44 | 190 | 0.0 | 0.0 | 0.00 | 0.01 | 0.00 | 94 | 1012.2 |
| 20260509064532 | 44 | 190 | 0.0 | 0.0 | 0.00 | 0.01 | 0.00 | 94 | 1012.2 |
| 20260509064428 | 44 | 190 | 0.0 | 0.0 | 0.00 | 0.01 | 0.00 | 94 | 1012.2 |
| 20260509064316 | 44 | 190 | 0.0 | 0.0 | 0.00 | 0.01 | 0.00 | 94 | 1012.2 |
| 20260509064241 | 44 | 191 | 0.0 | 0.0 | 0.00 | 0.01 | 0.00 | 94 | 1012.2 |
| 20260509064127 | 44 | 191 | 0.0 | 0.0 | 0.00 | 0.01 | 0.00 | 94 | 1012.3 |
| 20260509064013 | 44 | 190 | 0.0 | 0.0 | 0.00 | 0.01 | 0.00 | 94 | 1012.3 |
| 20260509063946 | 44 | 190 | 0.0 | 0.0 | 0.00 | 0.01 | 0.00 | 94 | 1012.3 |
| 20260509063831 | 44 | 191 | 0.0 | 0.0 | 0.00 | 0.01 | 0.00 | 94 | 1012.3 |
| 20260509063727 | 44 | 190 | 0.0 | 0.0 | 0.00 | 0.01 | 0.00 | 94 | 1012.3 |
| 20260509063613 | 44 | 190 | 0.0 | 0.0 | 0.00 | 0.01 | 0.00 | 94 | 1012.3 |
| 20260509063519 | 44 | 190 | 0.0 | 0.0 | 0.00 | 0.01 | 0.00 | 94 | 1012.3 |
| 20260509063426 | 44 | 190 | 0.0 | 0.0 | 0.00 | 0.01 | 0.00 | 94 | 1012.3 |
| 20260509063313 | 44 | 190 | 0.0 | 0.0 | 0.00 | 0.01 | 0.00 | 93 | 1012.3 |
| 20260509063231 | 44 | 190 | 0.0 | 0.0 | 0.00 | 0.01 | 0.00 | 93 | 1012.3 |
| 20260509063136 | 44 | 191 | 0.0 | 0.0 | 0.00 | 0.01 | 0.00 | 93 | 1012.4 |
| 20260509063052 | 43 | 190 | 0.0 | 0.0 | 0.00 | 0.01 | 0.00 | 93 | 1012.4 |
| 20260509063021 | 44 | 190 | 0.0 | 0.0 | 0.00 | 0.01 | 0.00 | 93 | 1012.4 |
| 20260509062926 | 44 | 190 | 0.0 | 0.0 | 0.00 | 0.01 | 0.00 | 94 | 1012.3 |
| 20260509062840 | 44 | 191 | 0.0 | 0.0 | 0.00 | 0.01 | 0.00 | 94 | 1012.4 |
| 20260509062726 | 44 | 190 | 0.0 | 0.0 | 0.00 | 0.01 | 0.00 | 94 | 1012.4 |
| 20260509062615 | 44 | 190 | 0.0 | 0.0 | 0.00 | 0.01 | 0.00 | 94 | 1012.4 |
| 20260509062523 | 44 | 190 | 0.0 | 0.0 | 0.00 | 0.01 | 0.00 | 94 | 1012.4 |
| 20260509062436 | 43 | 190 | 0.0 | 0.0 | 0.00 | 0.01 | 0.00 | 94 | 1012.5 |
| 20260509062314 | 43 | 190 | 0.0 | 0.0 | 0.00 | 0.01 | 0.00 | 94 | 1012.4 |
| 20260509062228 | 43 | 190 | 0.0 | 0.0 | 0.00 | 0.01 | 0.00 | 94 | 1012.4 |
| 20260509062113 | 43 | 190 | 0.0 | 0.0 | 0.00 | 0.01 | 0.00 | 93 | 1012.4 |
| 20260509062024 | 43 | 190 | 0.0 | 0.0 | 0.00 | 0.01 | 0.00 | 93 | 1012.4 |
| 20260509061911 | 43 | 190 | 0.0 | 0.0 | 0.00 | 0.01 | 0.00 | 93 | 1012.4 |
| 20260509061817 | 43 | 190 | 0.0 | 0.0 | 0.00 | 0.01 | 0.00 | 93 | 1012.4 |
| 20260509061731 | 43 | 190 | 0.0 | 0.0 | 0.00 | 0.01 | 0.00 | 93 | 1012.4 |
| 20260509061618 | 43 | 190 | 0.0 | 0.0 | 0.00 | 0.01 | 0.00 | 93 | 1012.4 |
| 20260509061526 | 43 | 190 | 0.0 | 0.0 | 0.00 | 0.01 | 0.00 | 93 | 1012.5 |
| 20260509061413 | 43 | 190 | 0.0 | 0.0 | 0.00 | 0.01 | 0.00 | 93 | 1012.5 |
| 20260509061319 | 43 | 190 | 0.0 | 0.0 | 0.00 | 0.01 | 0.00 | 93 | 1012.5 |
| 20260509061225 | 43 | 190 | 0.0 | 0.0 | 0.00 | 0.01 | 0.00 | 93 | 1012.5 |
| 20260509061113 | 43 | 190 | 0.0 | 0.0 | 0.00 | 0.01 | 0.00 | 93 | 1012.5 |
| 20260509061025 | 43 | 190 | 0.0 | 0.0 | 0.00 | 0.01 | 0.00 | 93 | 1012.5 |
| 20260509060915 | 43 | 190 | 0.0 | 0.0 | 0.00 | 0.01 | 0.00 | 93 | 1012.5 |
| 20260509060822 | 43 | 190 | 0.0 | 0.0 | 0.00 | 0.01 | 0.00 | 93 | 1012.5 |
| 20260509060709 | 43 | 191 | 0.0 | 0.0 | 0.00 | 0.01 | 0.00 | 93 | 1012.5 |
| 20260509060616 | 43 | 190 | 0.0 | 0.0 | 0.00 | 0.01 | 0.00 | 93 | 1012.5 |
| 20260509060523 | 43 | 190 | 0.0 | 0.0 | 0.00 | 0.01 | 0.00 | 93 | 1012.5 |
| 20260509060412 | 43 | 191 | 0.0 | 0.0 | 0.00 | 0.01 | 0.00 | 93 | 1012.6 |
| 20260509060325 | 43 | 191 | 0.0 | 0.0 | 0.00 | 0.01 | 0.00 | 93 | 1012.6 |
| 20260509060212 | 43 | 190 | 0.0 | 0.0 | 0.00 | 0.01 | 0.00 | 93 | 1012.5 |
| 20260509060139 | 43 | 190 | 0.0 | 0.0 | 0.00 | 0.01 | 0.00 | 93 | 1012.5 |
| 20260509060031 | 43 | 190 | 0.0 | 0.0 | 0.00 | 0.01 | 0.00 | 93 | 1012.5 |
| 20260509060024 | 43 | 190 | 0.0 | 0.0 | 0.00 | 0.01 | 0.00 | 93 | 1012.5 |
| 20260509055937 | 43 | 190 | 0.0 | 0.0 | 0.00 | 0.01 | 0.00 | 93 | 1012.5 |
| 20260509055826 | 43 | 190 | 0.0 | 0.0 | 0.00 | 0.01 | 0.00 | 93 | 1012.5 |
| 20260509055712 | 43 | 190 | 0.0 | 0.0 | 0.00 | 0.01 | 0.00 | 93 | 1012.5 |
| 20260509055619 | 43 | 190 | 0.0 | 0.0 | 0.00 | 0.01 | 0.00 | 92 | 1012.5 |
| 20260509055532 | 43 | 190 | 0.0 | 0.0 | 0.00 | 0.01 | 0.00 | 92 | 1012.5 |
| 20260509055438 | 43 | 190 | 0.0 | 0.0 | 0.00 | 0.01 | 0.00 | 92 | 1012.5 |
| 20260509055350 | 43 | 191 | 0.0 | 0.0 | 0.00 | 0.01 | 0.00 | 92 | 1012.5 |
| 20260509055219 | 43 | 190 | 0.0 | 0.0 | 0.00 | 0.01 | 0.00 | 92 | 1012.5 |
| 20260509055125 | 43 | 190 | 0.0 | 0.0 | 0.00 | 0.01 | 0.00 | 92 | 1012.5 |
| 20260509055032 | 43 | 190 | 0.0 | 0.0 | 0.00 | 0.01 | 0.00 | 92 | 1012.5 |
| 20260509054924 | 43 | 190 | 0.0 | 0.0 | 0.00 | 0.01 | 0.00 | 92 | 1012.5 |
| 20260509054830 | 43 | 190 | 0.0 | 0.0 | 0.00 | 0.01 | 0.00 | 92 | 1012.5 |
| 20260509054716 | 43 | 190 | 0.0 | 0.0 | 0.00 | 0.01 | 0.00 | 92 | 1012.5 |
| 20260509054654 | 42 | 190 | 0.0 | 0.0 | 0.00 | 0.01 | 0.00 | 92 | 1012.5 |
| 20260509054642 | 43 | 190 | 0.0 | 0.0 | 0.00 | 0.01 | 0.00 | 92 | 1012.5 |
| 20260509054538 | 43 | 190 | 0.0 | 0.0 | 0.00 | 0.01 | 0.00 | 92 | 1012.6 |
| 20260509054423 | 43 | 190 | 0.0 | 0.0 | 0.00 | 0.01 | 0.00 | 92 | 1012.6 |
| 20260509054330 | 43 | 190 | 0.0 | 0.0 | 0.00 | 0.01 | 0.00 | 92 | 1012.6 |
| 20260509054213 | 43 | 191 | 0.0 | 0.0 | 0.00 | 0.01 | 0.00 | 92 | 1012.6 |
| 20260509054126 | 43 | 190 | 0.0 | 0.0 | 0.00 | 0.01 | 0.00 | 92 | 1012.6 |
| 20260509054016 | 43 | 190 | 0.0 | 0.0 | 0.00 | 0.01 | 0.00 | 92 | 1012.6 |
| 20260509053919 | 43 | 190 | 0.0 | 0.0 | 0.00 | 0.01 | 0.00 | 92 | 1012.6 |
| 20260509053826 | 43 | 191 | 0.0 | 0.0 | 0.00 | 0.01 | 0.00 | 92 | 1012.6 |
| 20260509053725 | 43 | 190 | 0.0 | 0.0 | 0.00 | 0.01 | 0.00 | 92 | 1012.6 |
| 20260509053634 | 43 | 190 | 0.0 | 0.0 | 0.00 | 0.01 | 0.00 | 92 | 1012.6 |
| 20260509053519 | 43 | 190 | 0.0 | 0.0 | 0.00 | 0.01 | 0.00 | 92 | 1012.6 |
| 20260509053410 | 43 | 190 | 0.0 | 0.0 | 0.00 | 0.01 | 0.00 | 92 | 1012.6 |
| 20260509053318 | 43 | 190 | 0.0 | 0.0 | 0.00 | 0.01 | 0.00 | 92 | 1012.6 |
| 20260509053230 | 43 | 190 | 0.0 | 0.0 | 0.00 | 0.01 | 0.00 | 92 | 1012.6 |
| 20260509053137 | 43 | 190 | 0.0 | 0.0 | 0.00 | 0.01 | 0.00 | 92 | 1012.6 |
| 20260509053049 | 43 | 190 | 0.0 | 0.0 | 0.00 | 0.01 | 0.00 | 92 | 1012.5 |
| 20260509053018 | 43 | 190 | 0.0 | 0.0 | 0.00 | 0.01 | 0.00 | 92 | 1012.5 |
| 20260509052915 | 43 | 190 | 0.0 | 0.0 | 0.00 | 0.01 | 0.00 | 92 | 1012.6 |
| 20260509052820 | 43 | 190 | 0.0 | 0.0 | 0.00 | 0.01 | 0.00 | 92 | 1012.5 |
| 20260509052710 | 43 | 190 | 0.0 | 0.0 | 0.00 | 0.01 | 0.00 | 92 | 1012.6 |
| 20260509052616 | 43 | 190 | 0.0 | 0.0 | 0.00 | 0.01 | 0.00 | 92 | 1012.6 |
| 20260509052550 | 43 | 190 | 0.0 | 0.0 | 0.00 | 0.01 | 0.00 | 92 | 1012.6 |
| 20260509052414 | 43 | 191 | 0.0 | 0.0 | 0.00 | 0.01 | 0.00 | 91 | 1012.5 |
| 20260509052337 | 43 | 190 | 0.0 | 0.0 | 0.00 | 0.01 | 0.00 | 91 | 1012.5 |
| 20260509052236 | 43 | 190 | 0.0 | 0.0 | 0.00 | 0.01 | 0.00 | 91 | 1012.5 |
| 20260509052125 | 43 | 190 | 0.0 | 0.0 | 0.00 | 0.01 | 0.00 | 91 | 1012.5 |
| 20260509052012 | 43 | 190 | 0.0 | 0.0 | 0.00 | 0.01 | 0.00 | 92 | 1012.5 |
| 20260509051917 | 43 | 190 | 0.0 | 0.0 | 0.00 | 0.01 | 0.00 | 91 | 1012.5 |
| 20260509051851 | 43 | 190 | 0.0 | 0.0 | 0.00 | 0.01 | 0.00 | 91 | 1012.5 |
| 20260509051736 | 43 | 190 | 0.0 | 0.0 | 0.00 | 0.01 | 0.00 | 91 | 1012.5 |
| 20260509051637 | 43 | 190 | 0.0 | 0.0 | 0.00 | 0.01 | 0.00 | 91 | 1012.5 |
| 20260509051548 | 43 | 190 | 0.0 | 0.0 | 0.00 | 0.01 | 0.00 | 91 | 1012.5 |
| 20260509051507 | 43 | 190 | 0.0 | 0.0 | 0.00 | 0.01 | 0.00 | 91 | 1012.5 |
| 20260509051417 | 43 | 191 | 0.0 | 0.0 | 0.00 | 0.01 | 0.00 | 91 | 1012.5 |
| 20260509051319 | 43 | 190 | 0.0 | 0.0 | 0.00 | 0.01 | 0.00 | 91 | 1012.5 |
| 20260509051222 | 43 | 190 | 0.0 | 0.0 | 0.00 | 0.01 | 0.00 | 91 | 1012.5 |
| 20260509051132 | 43 | 190 | 0.0 | 0.0 | 0.00 | 0.01 | 0.00 | 91 | 1012.4 |
| 20260509051018 | 43 | 190 | 0.0 | 0.0 | 0.00 | 0.01 | 0.00 | 91 | 1012.5 |
| 20260509050944 | 44 | 190 | 0.0 | 0.0 | 0.00 | 0.01 | 0.00 | 91 | 1012.5 |
| 20260509050813 | 44 | 190 | 0.0 | 0.0 | 0.00 | 0.01 | 0.00 | 91 | 1012.5 |
| 20260509050746 | 44 | 191 | 0.0 | 0.0 | 0.00 | 0.01 | 0.00 | 91 | 1012.5 |
| 20260509050632 | 44 | 190 | 0.0 | 0.0 | 0.00 | 0.01 | 0.00 | 91 | 1012.5 |
| 20260509050544 | 44 | 190 | 0.0 | 0.0 | 0.00 | 0.01 | 0.00 | 91 | 1012.5 |
| 20260509050409 | 44 | 190 | 0.0 | 0.0 | 0.00 | 0.01 | 0.00 | 91 | 1012.5 |
| 20260509050315 | 44 | 190 | 0.0 | 0.0 | 0.00 | 0.01 | 0.00 | 91 | 1012.5 |
| 20260509050248 | 44 | 190 | 0.0 | 0.0 | 0.00 | 0.01 | 0.00 | 91 | 1012.5 |
| 20260509050138 | 43 | 190 | 0.0 | 0.0 | 0.00 | 0.01 | 0.00 | 91 | 1012.4 |
| 20260509050117 | 44 | 190 | 0.0 | 0.0 | 0.00 | 0.01 | 0.00 | 91 | 1012.4 |
| 20260509050023 | 44 | 190 | 0.0 | 0.0 | 0.00 | 0.01 | 0.00 | 91 | 1012.4 |
| 20260509045909 | 44 | 190 | 0.0 | 0.0 | 0.00 | 0.01 | 0.00 | 91 | 1012.4 |
| 20260509045816 | 44 | 191 | 0.0 | 0.0 | 0.00 | 0.01 | 0.00 | 91 | 1012.4 |
| 20260509045723 | 44 | 190 | 0.0 | 0.0 | 0.00 | 0.01 | 0.00 | 91 | 1012.4 |
| 20260509045614 | 44 | 190 | 0.0 | 0.0 | 0.00 | 0.01 | 0.00 | 91 | 1012.4 |
| 20260509045527 | 44 | 190 | 0.0 | 0.0 | 0.00 | 0.01 | 0.00 | 91 | 1012.4 |
| 20260509045413 | 44 | 190 | 0.0 | 0.0 | 0.00 | 0.01 | 0.00 | 91 | 1012.5 |
| 20260509045320 | 44 | 191 | 0.0 | 0.0 | 0.00 | 0.01 | 0.00 | 91 | 1012.5 |
| 20260509045226 | 44 | 190 | 0.0 | 0.0 | 0.00 | 0.01 | 0.00 | 91 | 1012.5 |
| 20260509045117 | 44 | 190 | 0.0 | 0.0 | 0.00 | 0.01 | 0.00 | 91 | 1012.5 |
| 20260509045030 | 44 | 190 | 0.0 | 0.0 | 0.00 | 0.01 | 0.00 | 91 | 1012.5 |
| 20260509044917 | 44 | 190 | 0.0 | 0.0 | 0.00 | 0.01 | 0.00 | 91 | 1012.5 |
| 20260509044844 | 44 | 190 | 0.0 | 0.0 | 0.00 | 0.01 | 0.00 | 91 | 1012.5 |
| 20260509044729 | 44 | 190 | 0.0 | 0.0 | 0.00 | 0.01 | 0.00 | 91 | 1012.5 |
| 20260509044616 | 44 | 190 | 0.0 | 0.0 | 0.00 | 0.01 | 0.00 | 91 | 1012.5 |
| 20260509044533 | 44 | 191 | 0.0 | 0.0 | 0.00 | 0.01 | 0.00 | 91 | 1012.5 |
| 20260509044511 | 44 | 190 | 0.0 | 0.0 | 0.00 | 0.01 | 0.00 | 91 | 1012.5 |
| 20260509044439 | 44 | 190 | 0.0 | 0.0 | 0.00 | 0.01 | 0.00 | 91 | 1012.5 |
| 20260509044325 | 44 | 190 | 0.0 | 0.0 | 0.00 | 0.01 | 0.00 | 91 | 1012.5 |
| 20260509044212 | 44 | 190 | 0.0 | 0.0 | 0.00 | 0.01 | 0.00 | 91 | 1012.6 |
| 20260509044124 | 44 | 191 | 0.0 | 0.0 | 0.00 | 0.01 | 0.00 | 91 | 1012.6 |
| 20260509044012 | 44 | 190 | 0.0 | 0.0 | 0.00 | 0.01 | 0.00 | 91 | 1012.6 |
| 20260509043921 | 44 | 190 | 0.0 | 0.0 | 0.00 | 0.01 | 0.00 | 91 | 1012.6 |
| 20260509043828 | 44 | 190 | 0.0 | 0.0 | 0.00 | 0.01 | 0.00 | 91 | 1012.5 |
| 20260509043714 | 44 | 190 | 0.0 | 0.0 | 0.00 | 0.01 | 0.00 | 91 | 1012.5 |
| 20260509043621 | 44 | 190 | 0.0 | 0.0 | 0.00 | 0.01 | 0.00 | 91 | 1012.5 |
| 20260509043534 | 44 | 190 | 0.0 | 0.0 | 0.00 | 0.01 | 0.00 | 91 | 1012.5 |
| 20260509043437 | 44 | 190 | 0.0 | 0.0 | 0.00 | 0.01 | 0.00 | 91 | 1012.5 |
| 20260509043326 | 44 | 190 | 0.0 | 0.0 | 0.00 | 0.01 | 0.00 | 91 | 1012.5 |
| 20260509043230 | 44 | 191 | 0.0 | 0.0 | 0.00 | 0.01 | 0.00 | 91 | 1012.5 |
| 20260509043129 | 44 | 190 | 0.0 | 0.0 | 0.00 | 0.01 | 0.00 | 91 | 1012.5 |
| 20260509043057 | 44 | 191 | 0.0 | 0.0 | 0.00 | 0.01 | 0.00 | 91 | 1012.4 |
| 20260509043032 | 44 | 190 | 0.0 | 0.0 | 0.00 | 0.01 | 0.00 | 91 | 1012.5 |
| 20260509043005 | 44 | 190 | 0.0 | 0.0 | 0.00 | 0.01 | 0.00 | 91 | 1012.4 |
| 20260509042809 | 44 | 190 | 0.0 | 0.0 | 0.00 | 0.01 | 0.00 | 91 | 1012.4 |
| 20260509042720 | 44 | 190 | 0.0 | 0.0 | 0.00 | 0.01 | 0.00 | 91 | 1012.4 |
| 20260509042627 | 44 | 190 | 0.0 | 0.0 | 0.00 | 0.01 | 0.00 | 91 | 1012.5 |
| 20260509042514 | 44 | 190 | 0.0 | 0.0 | 0.00 | 0.01 | 0.00 | 91 | 1012.4 |
| 20260509042427 | 44 | 190 | 0.0 | 0.0 | 0.00 | 0.01 | 0.00 | 91 | 1012.5 |
| 20260509042313 | 45 | 191 | 0.0 | 0.0 | 0.00 | 0.01 | 0.00 | 91 | 1012.4 |
| 20260509042219 | 44 | 190 | 0.0 | 0.0 | 0.00 | 0.01 | 0.00 | 91 | 1012.4 |
| 20260509042156 | 45 | 191 | 0.0 | 0.0 | 0.00 | 0.01 | 0.00 | 91 | 1012.4 |
| 20260509042021 | 45 | 190 | 0.0 | 0.0 | 0.00 | 0.01 | 0.00 | 91 | 1012.4 |
| 20260509041927 | 45 | 190 | 0.0 | 0.0 | 0.00 | 0.01 | 0.00 | 91 | 1012.4 |
| 20260509041813 | 45 | 190 | 0.0 | 0.0 | 0.00 | 0.01 | 0.00 | 91 | 1012.4 |
| 20260509041720 | 45 | 190 | 0.0 | 0.0 | 0.00 | 0.01 | 0.00 | 91 | 1012.4 |
| 20260509041653 | 45 | 190 | 0.0 | 0.0 | 0.00 | 0.01 | 0.00 | 91 | 1012.4 |
| 20260509041522 | 45 | 191 | 0.0 | 0.0 | 0.00 | 0.01 | 0.00 | 91 | 1012.4 |
| 20260509041508 | 44 | 191 | 0.0 | 0.0 | 0.00 | 0.01 | 0.00 | 91 | 1012.4 |
| 20260509041428 | 45 | 190 | 0.0 | 0.0 | 0.00 | 0.01 | 0.00 | 91 | 1012.4 |
| 20260509041314 | 45 | 191 | 0.0 | 0.0 | 0.00 | 0.01 | 0.00 | 90 | 1012.3 |
| 20260509041220 | 45 | 190 | 0.0 | 0.0 | 0.00 | 0.01 | 0.00 | 90 | 1012.4 |
| 20260509041113 | 45 | 190 | 0.0 | 0.0 | 0.00 | 0.01 | 0.00 | 90 | 1012.4 |
| 20260509041018 | 45 | 191 | 0.0 | 0.0 | 0.00 | 0.01 | 0.00 | 90 | 1012.4 |
| 20260509040909 | 45 | 190 | 0.0 | 0.0 | 0.00 | 0.01 | 0.00 | 90 | 1012.4 |
| 20260509040815 | 45 | 191 | 0.0 | 0.0 | 0.00 | 0.01 | 0.00 | 90 | 1012.4 |
| 20260509040722 | 45 | 190 | 0.0 | 0.0 | 0.00 | 0.01 | 0.00 | 90 | 1012.4 |
| 20260509040635 | 45 | 191 | 0.0 | 0.0 | 0.00 | 0.01 | 0.00 | 90 | 1012.5 |
| 20260509040521 | 45 | 191 | 0.0 | 0.0 | 0.00 | 0.01 | 0.00 | 90 | 1012.5 |
| 20260509040412 | 45 | 190 | 0.0 | 0.0 | 0.00 | 0.01 | 0.00 | 90 | 1012.4 |
| 20260509040335 | 45 | 191 | 0.0 | 0.0 | 0.00 | 0.01 | 0.00 | 90 | 1012.4 |
| 20260509040247 | 45 | 190 | 0.0 | 0.0 | 0.00 | 0.01 | 0.00 | 90 | 1012.5 |
| 20260509040112 | 45 | 191 | 0.0 | 0.0 | 0.00 | 0.01 | 0.00 | 90 | 1012.5 |
| 20260509040046 | 45 | 190 | 0.0 | 0.0 | 0.00 | 0.01 | 0.00 | 90 | 1012.5 |
| 20260509040018 | 45 | 191 | 0.0 | 0.0 | 0.00 | 0.01 | 0.00 | 90 | 1012.5 |
| 20260509035925 | 45 | 190 | 0.0 | 0.0 | 0.00 | 0.01 | 0.00 | 90 | 1012.5 |
| 20260509035814 | 45 | 190 | 0.0 | 0.0 | 0.00 | 0.01 | 0.00 | 90 | 1012.5 |
| 20260509035727 | 45 | 190 | 0.0 | 0.0 | 0.00 | 0.01 | 0.00 | 90 | 1012.5 |
| 20260509035614 | 45 | 190 | 0.0 | 0.0 | 0.00 | 0.01 | 0.00 | 89 | 1012.5 |
| 20260509035515 | 45 | 191 | 0.0 | 0.0 | 0.00 | 0.01 | 0.00 | 90 | 1012.5 |
| 20260509035421 | 45 | 191 | 0.0 | 0.0 | 0.00 | 0.01 | 0.00 | 89 | 1012.5 |
| 20260509035333 | 45 | 190 | 0.0 | 0.0 | 0.00 | 0.01 | 0.00 | 89 | 1012.5 |
| 20260509035224 | 45 | 190 | 0.0 | 0.0 | 0.00 | 0.01 | 0.00 | 90 | 1012.5 |
| 20260509035120 | 45 | 190 | 0.0 | 0.0 | 0.00 | 0.01 | 0.00 | 90 | 1012.6 |
| 20260509035017 | 46 | 190 | 0.0 | 0.0 | 0.00 | 0.01 | 0.00 | 90 | 1012.6 |
| 20260509034924 | 46 | 190 | 0.0 | 0.0 | 0.00 | 0.01 | 0.00 | 90 | 1012.6 |
| 20260509034837 | 46 | 190 | 0.0 | 0.0 | 0.00 | 0.01 | 0.00 | 90 | 1012.6 |
| 20260509034721 | 46 | 190 | 0.0 | 0.0 | 0.00 | 0.01 | 0.00 | 90 | 1012.6 |
| 20260509034620 | 46 | 190 | 0.0 | 0.0 | 0.00 | 0.01 | 0.00 | 90 | 1012.6 |
| 20260509034548 | 45 | 190 | 0.0 | 0.0 | 0.00 | 0.01 | 0.00 | 90 | 1012.6 |
| 20260509034526 | 46 | 190 | 0.0 | 0.0 | 0.00 | 0.01 | 0.00 | 90 | 1012.6 |
| 20260509034410 | 46 | 190 | 0.0 | 0.0 | 0.00 | 0.01 | 0.01 | 90 | 1012.5 |
| 20260509034324 | 46 | 190 | 0.0 | 0.0 | 0.00 | 0.01 | 0.01 | 90 | 1012.5 |
| 20260509034246 | 46 | 191 | 0.0 | 0.0 | 0.00 | 0.01 | 0.01 | 90 | 1012.6 |
| 20260509034131 | 46 | 190 | 0.0 | 0.0 | 0.00 | 0.01 | 0.01 | 90 | 1012.5 |
| 20260509034050 | 46 | 190 | 0.0 | 0.0 | 0.00 | 0.01 | 0.01 | 89 | 1012.6 |
| 20260509034020 | 46 | 190 | 0.0 | 0.0 | 0.00 | 0.01 | 0.01 | 89 | 1012.6 |
| 20260509033810 | 46 | 190 | 0.0 | 0.0 | 0.00 | 0.01 | 0.01 | 90 | 1012.6 |
| 20260509033736 | 46 | 190 | 0.0 | 0.0 | 0.00 | 0.01 | 0.01 | 89 | 1012.6 |
| 20260509033627 | 46 | 190 | 0.0 | 0.0 | 0.00 | 0.01 | 0.01 | 89 | 1012.6 |
| 20260509033514 | 46 | 190 | 0.0 | 0.0 | 0.00 | 0.01 | 0.01 | 89 | 1012.6 |
| 20260509033420 | 46 | 190 | 0.0 | 0.0 | 0.00 | 0.01 | 0.01 | 89 | 1012.6 |
| 20260509033319 | 46 | 190 | 0.0 | 0.0 | 0.00 | 0.01 | 0.01 | 89 | 1012.6 |
| 20260509033229 | 46 | 190 | 0.0 | 0.0 | 0.00 | 0.01 | 0.01 | 89 | 1012.6 |
| 20260509033132 | 46 | 190 | 0.0 | 0.0 | 0.00 | 0.01 | 0.01 | 89 | 1012.6 |
| 20260509033042 | 46 | 190 | 0.0 | 0.0 | 0.00 | 0.01 | 0.01 | 89 | 1012.6 |
| 20260509033013 | 46 | 190 | 0.0 | 0.0 | 0.00 | 0.01 | 0.01 | 89 | 1012.6 |
| 20260509032943 | 46 | 190 | 0.0 | 0.0 | 0.00 | 0.01 | 0.01 | 89 | 1012.6 |
| 20260509032821 | 46 | 190 | 0.0 | 0.0 | 0.00 | 0.01 | 0.01 | 89 | 1012.7 |
| 20260509032712 | 46 | 190 | 0.0 | 0.0 | 0.00 | 0.01 | 0.01 | 89 | 1012.6 |
| 20260509032618 | 46 | 191 | 0.0 | 0.0 | 0.00 | 0.01 | 0.01 | 89 | 1012.6 |
| 20260509032525 | 46 | 190 | 0.0 | 0.0 | 0.00 | 0.01 | 0.01 | 89 | 1012.6 |
| 20260509032434 | 47 | 190 | 0.0 | 0.0 | 0.00 | 0.01 | 0.01 | 89 | 1012.6 |
| 20260509032326 | 47 | 191 | 0.0 | 0.0 | 0.00 | 0.01 | 0.01 | 88 | 1012.6 |
| 20260509032213 | 47 | 191 | 0.0 | 0.0 | 0.00 | 0.01 | 0.01 | 89 | 1012.7 |
| 20260509032146 | 47 | 190 | 0.0 | 0.0 | 0.00 | 0.01 | 0.01 | 89 | 1012.7 |
| 20260509032041 | 47 | 190 | 0.0 | 0.0 | 0.00 | 0.01 | 0.01 | 89 | 1012.6 |
| 20260509031912 | 47 | 190 | 0.0 | 0.0 | 0.00 | 0.01 | 0.01 | 89 | 1012.7 |
| 20260509031819 | 47 | 190 | 0.0 | 0.0 | 0.00 | 0.01 | 0.01 | 89 | 1012.7 |
| 20260509031752 | 47 | 190 | 0.0 | 0.0 | 0.00 | 0.01 | 0.01 | 89 | 1012.7 |
| 20260509031620 | 47 | 190 | 0.0 | 0.0 | 0.00 | 0.01 | 0.01 | 89 | 1012.7 |
| 20260509031603 | 46 | 190 | 0.0 | 0.0 | 0.00 | 0.01 | 0.01 | 89 | 1012.7 |
| 20260509031542 | 47 | 191 | 0.0 | 0.0 | 0.00 | 0.01 | 0.01 | 89 | 1012.7 |
| 20260509031409 | 47 | 191 | 0.0 | 0.0 | 0.00 | 0.01 | 0.01 | 89 | 1012.7 |
| 20260509031342 | 47 | 190 | 0.0 | 0.0 | 0.00 | 0.01 | 0.01 | 89 | 1012.7 |
| 20260509031251 | 47 | 190 | 0.0 | 0.0 | 0.00 | 0.01 | 0.01 | 88 | 1012.7 |
| 20260509031130 | 47 | 190 | 0.0 | 0.0 | 0.00 | 0.01 | 0.01 | 88 | 1012.7 |
| 20260509031014 | 47 | 191 | 0.0 | 0.0 | 0.00 | 0.01 | 0.01 | 88 | 1012.7 |
| 20260509030916 | 47 | 191 | 0.0 | 0.0 | 0.00 | 0.01 | 0.01 | 88 | 1012.7 |
| 20260509030821 | 47 | 191 | 0.0 | 0.0 | 0.00 | 0.01 | 0.01 | 88 | 1012.7 |
| 20260509030712 | 47 | 191 | 0.0 | 0.0 | 0.00 | 0.01 | 0.01 | 88 | 1012.7 |
| 20260509030625 | 47 | 191 | 0.0 | 0.0 | 0.00 | 0.01 | 0.01 | 88 | 1012.7 |
| 20260509030511 | 47 | 190 | 0.0 | 0.0 | 0.00 | 0.01 | 0.01 | 88 | 1012.8 |
| 20260509030418 | 47 | 190 | 0.0 | 0.0 | 0.00 | 0.01 | 0.01 | 88 | 1012.8 |
| 20260509030325 | 48 | 191 | 0.0 | 0.0 | 0.00 | 0.01 | 0.01 | 88 | 1012.8 |
| 20260509030242 | 48 | 190 | 0.0 | 0.0 | 0.00 | 0.01 | 0.01 | 88 | 1012.8 |
| 20260509030147 | 48 | 190 | 0.0 | 0.0 | 0.00 | 0.01 | 0.01 | 88 | 1012.8 |
| 20260509030042 | 47 | 190 | 0.0 | 0.0 | 0.00 | 0.01 | 0.01 | 88 | 1012.8 |
| 20260509030012 | 48 | 190 | 0.0 | 0.0 | 0.00 | 0.01 | 0.01 | 88 | 1012.8 |
| 20260509025919 | 48 | 190 | 0.0 | 0.0 | 0.00 | 0.01 | 0.01 | 88 | 1012.8 |
| 20260509025832 | 48 | 191 | 0.0 | 0.0 | 0.00 | 0.01 | 0.01 | 88 | 1012.8 |
| 20260509025719 | 48 | 191 | 0.0 | 0.0 | 0.00 | 0.01 | 0.01 | 88 | 1012.8 |
| 20260509025611 | 48 | 190 | 0.0 | 0.0 | 0.00 | 0.01 | 0.01 | 88 | 1012.8 |
| 20260509025517 | 48 | 191 | 0.0 | 0.0 | 0.00 | 0.01 | 0.01 | 88 | 1012.8 |
| 20260509025424 | 48 | 190 | 0.0 | 0.0 | 0.00 | 0.01 | 0.01 | 88 | 1012.7 |
| 20260509025338 | 48 | 190 | 0.0 | 0.0 | 0.00 | 0.01 | 0.01 | 88 | 1012.7 |
| 20260509025222 | 48 | 190 | 0.0 | 0.0 | 0.00 | 0.01 | 0.01 | 88 | 1012.7 |
| 20260509025128 | 48 | 190 | 0.0 | 0.0 | 0.00 | 0.01 | 0.01 | 88 | 1012.7 |
| 20260509025019 | 48 | 190 | 0.0 | 0.0 | 0.00 | 0.01 | 0.01 | 88 | 1012.8 |
| 20260509024922 | 48 | 190 | 0.0 | 0.0 | 0.00 | 0.01 | 0.01 | 87 | 1012.8 |
| 20260509024835 | 48 | 191 | 0.0 | 0.0 | 0.00 | 0.01 | 0.01 | 87 | 1012.8 |
| 20260509024721 | 48 | 191 | 0.0 | 0.0 | 0.00 | 0.01 | 0.01 | 87 | 1012.8 |
| 20260509024628 | 48 | 190 | 0.0 | 0.0 | 0.00 | 0.01 | 0.01 | 87 | 1012.8 |
| 20260509024600 | 48 | 190 | 0.0 | 0.0 | 0.00 | 0.01 | 0.01 | 87 | 1012.7 |
| 20260509024518 | 48 | 190 | 0.0 | 0.0 | 0.00 | 0.01 | 0.01 | 87 | 1012.8 |
| 20260509024452 | 48 | 191 | 0.0 | 0.0 | 0.00 | 0.01 | 0.01 | 87 | 1012.8 |
| 20260509024318 | 49 | 190 | 0.0 | 0.0 | 0.00 | 0.01 | 0.01 | 87 | 1012.8 |
| 20260509024224 | 49 | 190 | 0.0 | 0.0 | 0.00 | 0.01 | 0.01 | 87 | 1012.8 |
| 20260509024111 | 49 | 190 | 0.0 | 0.0 | 0.00 | 0.01 | 0.01 | 87 | 1012.9 |
| 20260509024017 | 49 | 190 | 0.0 | 0.0 | 0.00 | 0.01 | 0.01 | 87 | 1012.9 |
| 20260509023928 | 49 | 190 | 0.0 | 0.0 | 0.00 | 0.01 | 0.01 | 87 | 1012.9 |
| 20260509023841 | 49 | 190 | 0.0 | 0.0 | 0.00 | 0.01 | 0.01 | 87 | 1012.9 |
| 20260509023747 | 49 | 190 | 0.0 | 0.0 | 0.00 | 0.01 | 0.01 | 86 | 1012.8 |
| 20260509023639 | 49 | 191 | 0.0 | 0.0 | 0.00 | 0.01 | 0.01 | 86 | 1012.8 |
| 20260509023545 | 49 | 190 | 0.0 | 0.0 | 0.00 | 0.01 | 0.01 | 86 | 1012.8 |
| 20260509023411 | 49 | 190 | 0.0 | 0.0 | 0.00 | 0.01 | 0.01 | 86 | 1012.8 |
| 20260509023325 | 49 | 191 | 0.0 | 0.0 | 0.00 | 0.01 | 0.01 | 86 | 1012.8 |
| 20260509023215 | 49 | 190 | 0.0 | 0.0 | 0.00 | 0.01 | 0.01 | 86 | 1012.8 |
| 20260509023121 | 49 | 190 | 0.0 | 0.0 | 0.00 | 0.01 | 0.01 | 86 | 1012.8 |
| 20260509023103 | 49 | 190 | 0.0 | 0.0 | 0.00 | 0.01 | 0.01 | 86 | 1012.8 |
| 20260509023027 | 49 | 190 | 0.0 | 0.0 | 0.00 | 0.01 | 0.01 | 86 | 1012.9 |
| 20260509022933 | 49 | 190 | 0.0 | 0.0 | 0.00 | 0.01 | 0.01 | 86 | 1012.8 |
| 20260509022822 | 49 | 190 | 0.0 | 0.0 | 0.00 | 0.01 | 0.01 | 86 | 1012.8 |
| 20260509022709 | 49 | 190 | 0.0 | 0.0 | 0.00 | 0.01 | 0.01 | 86 | 1012.9 |
| 20260509022619 | 50 | 191 | 0.0 | 0.0 | 0.00 | 0.01 | 0.01 | 86 | 1012.9 |
| 20260509022526 | 50 | 190 | 0.0 | 0.0 | 0.00 | 0.01 | 0.01 | 86 | 1012.8 |
| 20260509022411 | 50 | 190 | 0.0 | 0.0 | 0.00 | 0.01 | 0.01 | 86 | 1012.9 |
| 20260509022327 | 50 | 190 | 0.0 | 0.0 | 0.00 | 0.01 | 0.01 | 86 | 1012.9 |
| 20260509022233 | 50 | 190 | 0.0 | 0.0 | 0.00 | 0.01 | 0.01 | 86 | 1012.7 |
| 20260509022122 | 50 | 190 | 0.0 | 0.0 | 0.00 | 0.01 | 0.01 | 86 | 1012.8 |
| 20260509022024 | 50 | 191 | 0.0 | 0.0 | 0.00 | 0.01 | 0.01 | 85 | 1012.8 |
| 20260509021931 | 50 | 191 | 0.0 | 0.0 | 0.00 | 0.01 | 0.01 | 86 | 1012.8 |
| 20260509021823 | 50 | 190 | 0.0 | 0.0 | 0.00 | 0.01 | 0.01 | 85 | 1012.8 |
| 20260509021710 | 50 | 191 | 0.0 | 0.0 | 0.00 | 0.01 | 0.01 | 85 | 1012.8 |
| 20260509021616 | 50 | 190 | 0.0 | 0.0 | 0.00 | 0.01 | 0.01 | 86 | 1012.8 |
| 20260509021547 | 50 | 190 | 0.0 | 0.0 | 0.00 | 0.01 | 0.01 | 85 | 1012.7 |
| 20260509021526 | 50 | 190 | 0.0 | 0.0 | 0.00 | 0.01 | 0.01 | 85 | 1012.8 |
| 20260509021412 | 50 | 190 | 0.0 | 0.0 | 0.00 | 0.01 | 0.01 | 85 | 1012.7 |
| 20260509021325 | 50 | 190 | 0.0 | 0.0 | 0.00 | 0.01 | 0.01 | 85 | 1012.7 |
| 20260509021231 | 50 | 191 | 0.0 | 0.0 | 0.00 | 0.01 | 0.01 | 85 | 1012.8 |
| 20260509021117 | 50 | 190 | 0.0 | 0.0 | 0.00 | 0.01 | 0.01 | 85 | 1012.6 |
| 20260509021024 | 50 | 190 | 0.0 | 0.0 | 0.00 | 0.01 | 0.01 | 85 | 1012.6 |
| 20260509020912 | 51 | 191 | 0.0 | 0.0 | 0.00 | 0.01 | 0.01 | 85 | 1012.7 |
| 20260509020818 | 51 | 190 | 0.0 | 0.0 | 0.00 | 0.01 | 0.01 | 85 | 1012.7 |
| 20260509020732 | 51 | 190 | 0.0 | 0.0 | 0.00 | 0.01 | 0.01 | 85 | 1012.7 |
| 20260509020639 | 51 | 191 | 0.0 | 0.0 | 0.00 | 0.01 | 0.01 | 85 | 1012.7 |
| 20260509020550 | 51 | 190 | 0.0 | 0.0 | 0.00 | 0.01 | 0.01 | 84 | 1012.7 |
| 20260509020432 | 51 | 190 | 0.0 | 0.0 | 0.00 | 0.01 | 0.01 | 84 | 1012.6 |
| 20260509020324 | 51 | 190 | 0.0 | 0.0 | 0.00 | 0.01 | 0.01 | 84 | 1012.6 |
| 20260509020246 | 51 | 191 | 0.0 | 0.0 | 0.00 | 0.01 | 0.01 | 83 | 1012.5 |
| 20260509020124 | 50 | 190 | 0.0 | 0.0 | 0.00 | 0.01 | 0.01 | 84 | 1012.5 |
| 20260509020111 | 51 | 190 | 0.0 | 0.0 | 0.00 | 0.01 | 0.01 | 84 | 1012.5 |
| 20260509020042 | 51 | 191 | 0.0 | 0.0 | 0.00 | 0.01 | 0.01 | 83 | 1012.5 |
| 20260509015926 | 51 | 190 | 0.0 | 0.0 | 0.00 | 0.01 | 0.01 | 83 | 1012.5 |
| 20260509015811 | 51 | 190 | 0.0 | 0.0 | 0.00 | 0.01 | 0.01 | 84 | 1012.4 |
| 20260509015744 | 51 | 190 | 0.0 | 0.0 | 0.00 | 0.01 | 0.01 | 83 | 1012.4 |
| 20260509015614 | 51 | 190 | 0.0 | 0.0 | 0.00 | 0.01 | 0.01 | 83 | 1012.4 |
| 20260509015521 | 51 | 190 | 0.0 | 0.0 | 0.00 | 0.01 | 0.01 | 83 | 1012.4 |
| 20260509015434 | 52 | 190 | 0.0 | 0.0 | 0.00 | 0.01 | 0.01 | 83 | 1012.4 |
| 20260509015337 | 52 | 191 | 0.0 | 0.0 | 0.00 | 0.01 | 0.01 | 83 | 1012.4 |
| 20260509015214 | 52 | 191 | 0.0 | 0.0 | 0.00 | 0.01 | 0.01 | 83 | 1012.4 |
| 20260509015125 | 52 | 191 | 0.0 | 0.0 | 0.00 | 0.01 | 0.01 | 83 | 1012.3 |
| 20260509015020 | 52 | 190 | 0.0 | 0.0 | 0.00 | 0.01 | 0.01 | 83 | 1012.3 |
| 20260509014934 | 52 | 190 | 0.0 | 0.0 | 0.00 | 0.01 | 0.01 | 83 | 1012.4 |
| 20260509014820 | 52 | 191 | 0.0 | 0.0 | 0.00 | 0.01 | 0.01 | 83 | 1012.4 |
| 20260509014727 | 52 | 190 | 0.0 | 0.0 | 0.00 | 0.01 | 0.01 | 83 | 1012.3 |
| 20260509014640 | 52 | 190 | 0.0 | 0.0 | 0.00 | 0.01 | 0.01 | 83 | 1012.4 |
| 20260509014608 | 52 | 191 | 0.0 | 0.0 | 0.00 | 0.01 | 0.01 | 83 | 1012.3 |
| 20260509014545 | 52 | 190 | 0.0 | 0.0 | 0.00 | 0.01 | 0.01 | 82 | 1012.4 |
| 20260509014414 | 52 | 191 | 0.0 | 0.0 | 0.00 | 0.01 | 0.01 | 82 | 1012.3 |
| 20260509014347 | 52 | 190 | 0.0 | 0.0 | 0.00 | 0.01 | 0.01 | 82 | 1012.3 |
| 20260509014213 | 52 | 191 | 0.0 | 0.0 | 0.00 | 0.01 | 0.01 | 82 | 1012.3 |
| 20260509014115 | 52 | 190 | 0.0 | 0.0 | 0.00 | 0.01 | 0.01 | 82 | 1012.4 |
| 20260509014018 | 53 | 190 | 0.0 | 0.0 | 0.00 | 0.01 | 0.01 | 81 | 1012.4 |
| 20260509013931 | 53 | 191 | 0.0 | 0.0 | 0.00 | 0.01 | 0.01 | 81 | 1012.4 |
| 20260509013841 | 53 | 191 | 0.0 | 0.0 | 0.00 | 0.01 | 0.01 | 80 | 1012.4 |
| 20260509013753 | 53 | 191 | 0.0 | 0.0 | 0.00 | 0.01 | 0.01 | 79 | 1012.3 |
| 20260509013618 | 53 | 191 | 0.0 | 0.0 | 0.00 | 0.01 | 0.01 | 79 | 1012.3 |
| 20260509013525 | 53 | 190 | 0.0 | 0.0 | 0.00 | 0.01 | 0.01 | 79 | 1012.3 |
| 20260509013428 | 53 | 190 | 0.0 | 0.0 | 0.00 | 0.01 | 0.01 | 80 | 1012.3 |
| 20260509013314 | 53 | 190 | 0.0 | 0.0 | 0.00 | 0.01 | 0.01 | 80 | 1012.3 |
| 20260509013223 | 53 | 191 | 0.0 | 0.0 | 0.00 | 0.01 | 0.01 | 80 | 1012.3 |
| 20260509013136 | 53 | 190 | 0.0 | 0.0 | 0.00 | 0.01 | 0.01 | 80 | 1012.3 |
| 20260509013019 | 53 | 191 | 0.0 | 0.0 | 0.00 | 0.01 | 0.01 | 80 | 1012.3 |
| 20260509013001 | 53 | 190 | 0.0 | 0.0 | 0.00 | 0.01 | 0.01 | 80 | 1012.3 |
| 20260509012939 | 53 | 190 | 0.0 | 0.0 | 0.00 | 0.01 | 0.01 | 80 | 1012.3 |
| 20260509012831 | 53 | 190 | 0.0 | 0.0 | 0.00 | 0.01 | 0.01 | 80 | 1012.3 |
| 20260509012726 | 54 | 191 | 0.0 | 0.0 | 0.00 | 0.01 | 0.01 | 79 | 1012.3 |
| 20260509012618 | 54 | 190 | 0.0 | 0.0 | 0.00 | 0.01 | 0.01 | 78 | 1012.3 |
| 20260509012524 | 54 | 190 | 0.0 | 0.0 | 0.00 | 0.01 | 0.01 | 76 | 1012.2 |
| 20260509012411 | 54 | 191 | 0.0 | 0.0 | 0.00 | 0.01 | 0.01 | 76 | 1012.3 |
| 20260509012318 | 54 | 191 | 0.0 | 0.0 | 0.00 | 0.01 | 0.01 | 76 | 1012.3 |
| 20260509012232 | 54 | 190 | 0.0 | 0.0 | 0.00 | 0.01 | 0.01 | 76 | 1012.2 |
| 20260509012114 | 54 | 190 | 0.0 | 0.0 | 0.00 | 0.01 | 0.01 | 75 | 1012.2 |
| 20260509012024 | 54 | 191 | 0.0 | 0.0 | 0.00 | 0.01 | 0.01 | 76 | 1012.2 |
| 20260509011911 | 54 | 191 | 0.0 | 0.0 | 0.00 | 0.01 | 0.01 | 76 | 1012.2 |
| 20260509011809 | 54 | 191 | 0.0 | 0.0 | 0.00 | 0.01 | 0.01 | 77 | 1012.2 |
| 20260509011722 | 54 | 191 | 0.0 | 0.0 | 0.00 | 0.01 | 0.01 | 78 | 1012.2 |
| 20260509011629 | 54 | 190 | 0.0 | 0.0 | 0.00 | 0.01 | 0.01 | 78 | 1012.2 |
| 20260509011604 | 54 | 191 | 0.0 | 0.0 | 0.00 | 0.01 | 0.01 | 78 | 1012.2 |
| 20260509011519 | 55 | 191 | 0.0 | 0.0 | 0.00 | 0.01 | 0.01 | 76 | 1012.2 |
| 20260509011426 | 55 | 190 | 0.0 | 0.0 | 0.00 | 0.01 | 0.01 | 75 | 1012.2 |
| 20260509011312 | 55 | 191 | 0.0 | 0.0 | 0.00 | 0.01 | 0.01 | 74 | 1012.2 |
| 20260509011219 | 55 | 191 | 0.0 | 0.0 | 0.00 | 0.01 | 0.01 | 75 | 1012.2 |
| 20260509011133 | 55 | 190 | 0.0 | 0.0 | 0.00 | 0.01 | 0.01 | 74 | 1012.2 |
| 20260509011037 | 55 | 191 | 0.0 | 0.0 | 0.00 | 0.01 | 0.01 | 74 | 1012.2 |
| 20260509010926 | 55 | 191 | 0.0 | 0.0 | 0.00 | 0.01 | 0.01 | 75 | 1012.2 |
| 20260509010816 | 55 | 191 | 0.0 | 0.0 | 0.00 | 0.01 | 0.01 | 74 | 1012.2 |
| 20260509010723 | 55 | 191 | 0.0 | 0.0 | 0.00 | 0.01 | 0.01 | 73 | 1012.2 |
| 20260509010610 | 55 | 190 | 0.0 | 0.0 | 0.00 | 0.01 | 0.01 | 71 | 1012.2 |
| 20260509010517 | 55 | 191 | 0.0 | 0.0 | 0.00 | 0.01 | 0.01 | 71 | 1012.1 |
| 20260509010423 | 55 | 190 | 0.0 | 0.0 | 0.00 | 0.01 | 0.01 | 71 | 1012.1 |
| 20260509010340 | 55 | 191 | 0.0 | 0.0 | 0.00 | 0.01 | 0.01 | 71 | 1012.1 |
| 20260509010225 | 56 | 191 | 0.0 | 0.0 | 0.00 | 0.01 | 0.01 | 71 | 1012.1 |
| 20260509010112 | 56 | 190 | 0.0 | 0.0 | 0.00 | 0.01 | 0.01 | 70 | 1012.1 |
| 20260509010045 | 56 | 191 | 0.0 | 0.0 | 0.00 | 0.01 | 0.01 | 70 | 1012.1 |
| 20260509010029 | 55 | 190 | 0.0 | 0.0 | 0.00 | 0.01 | 0.01 | 70 | 1012.1 |
| 20260509010004 | 56 | 190 | 0.0 | 0.0 | 0.00 | 0.01 | 0.01 | 71 | 1012.1 |
| 20260509005809 | 56 | 191 | 0.0 | 0.0 | 0.00 | 0.01 | 0.01 | 70 | 1012.0 |
| 20260509005715 | 56 | 191 | 0.0 | 0.0 | 0.00 | 0.01 | 0.01 | 70 | 1012.0 |
| 20260509005632 | 56 | 191 | 0.0 | 0.0 | 0.00 | 0.01 | 0.01 | 70 | 1012.0 |
| 20260509005511 | 56 | 191 | 0.0 | 0.0 | 0.00 | 0.01 | 0.01 | 70 | 1012.1 |
| 20260509005414 | 56 | 191 | 0.0 | 0.0 | 0.00 | 0.01 | 0.01 | 69 | 1012.1 |
| 20260509005326 | 56 | 190 | 0.0 | 0.0 | 0.00 | 0.01 | 0.01 | 69 | 1012.1 |
| 20260509005228 | 56 | 190 | 0.0 | 0.0 | 0.00 | 0.01 | 0.01 | 67 | 1012.0 |
| 20260509005106 | 56 | 191 | 0.0 | 0.0 | 0.00 | 0.01 | 0.01 | 68 | 1012.0 |
| 20260509005041 | 57 | 191 | 0.0 | 0.0 | 0.00 | 0.01 | 0.01 | 70 | 1012.1 |
| 20260509004820 | 57 | 190 | 0.0 | 0.0 | 0.00 | 0.01 | 0.01 | 70 | 1012.0 |
| 20260509004727 | 57 | 190 | 0.0 | 0.0 | 0.00 | 0.01 | 0.01 | 69 | 1012.1 |
| 20260509004612 | 57 | 191 | 0.0 | 0.0 | 0.00 | 0.01 | 0.01 | 69 | 1012.0 |
| 20260509004551 | 57 | 191 | 0.0 | 0.0 | 0.00 | 0.01 | 0.01 | 69 | 1012.0 |
| 20260509004519 | 57 | 190 | 0.0 | 0.0 | 0.00 | 0.01 | 0.01 | 69 | 1012.0 |
| 20260509004452 | 57 | 191 | 0.0 | 0.0 | 0.00 | 0.01 | 0.01 | 69 | 1012.0 |
| 20260509004322 | 57 | 190 | 0.0 | 0.0 | 0.00 | 0.01 | 0.01 | 70 | 1012.0 |
| 20260509004228 | 57 | 190 | 0.0 | 0.0 | 0.00 | 0.01 | 0.01 | 69 | 1012.0 |
| 20260509004115 | 57 | 191 | 0.0 | 0.0 | 0.00 | 0.01 | 0.01 | 68 | 1012.0 |
| 20260509004042 | 57 | 190 | 0.0 | 0.0 | 0.00 | 0.01 | 0.01 | 67 | 1012.0 |
| 20260509003917 | 58 | 191 | 0.0 | 0.0 | 0.00 | 0.01 | 0.01 | 67 | 1012.0 |
| 20260509003820 | 58 | 191 | 0.0 | 0.0 | 0.00 | 0.01 | 0.01 | 67 | 1012.0 |
| 20260509003711 | 58 | 191 | 0.0 | 0.0 | 0.00 | 0.01 | 0.01 | 65 | 1012.0 |
| 20260509003617 | 58 | 190 | 0.0 | 0.0 | 0.00 | 0.01 | 0.01 | 65 | 1012.0 |
| 20260509003550 | 58 | 191 | 0.0 | 0.0 | 0.00 | 0.01 | 0.01 | 65 | 1012.0 |
| 20260509003412 | 58 | 191 | 0.0 | 0.0 | 0.00 | 0.01 | 0.01 | 67 | 1011.9 |
| 20260509003319 | 58 | 190 | 0.0 | 0.0 | 0.00 | 0.01 | 0.01 | 68 | 1011.9 |
| 20260509003209 | 58 | 191 | 0.0 | 0.0 | 0.00 | 0.01 | 0.01 | 67 | 1011.9 |
| 20260509003117 | 58 | 190 | 0.0 | 0.0 | 0.00 | 0.01 | 0.01 | 65 | 1011.9 |
| 20260509003028 | 58 | 190 | 0.0 | 0.0 | 0.00 | 0.01 | 0.01 | 64 | 1011.9 |
| 20260509003012 | 58 | 191 | 0.0 | 0.0 | 0.00 | 0.01 | 0.01 | 65 | 1011.9 |
| 20260509002951 | 58 | 191 | 0.0 | 0.0 | 0.00 | 0.01 | 0.01 | 64 | 1011.9 |
| 20260509002837 | 59 | 190 | 0.0 | 0.0 | 0.00 | 0.01 | 0.01 | 64 | 1011.9 |
| 20260509002712 | 59 | 190 | 0.0 | 0.0 | 0.00 | 0.01 | 0.01 | 66 | 1011.9 |
| 20260509002623 | 59 | 190 | 0.0 | 0.0 | 0.00 | 0.01 | 0.01 | 65 | 1011.9 |
| 20260509002513 | 59 | 191 | 0.0 | 0.0 | 0.00 | 0.01 | 0.01 | 65 | 1011.9 |
| 20260509002412 | 59 | 191 | 0.0 | 0.0 | 0.00 | 0.01 | 0.01 | 64 | 1011.9 |
| 20260509002319 | 59 | 191 | 0.0 | 0.0 | 0.00 | 0.01 | 0.01 | 64 | 1011.9 |
| 20260509002232 | 59 | 191 | 0.0 | 0.0 | 0.00 | 0.01 | 0.01 | 63 | 1011.9 |
| 20260509002139 | 59 | 191 | 0.0 | 0.0 | 0.00 | 0.01 | 0.01 | 65 | 1011.9 |
| 20260509002017 | 59 | 191 | 0.0 | 0.0 | 0.00 | 0.01 | 0.01 | 66 | 1011.9 |
| 20260509001931 | 60 | 191 | 0.0 | 0.0 | 0.00 | 0.01 | 0.01 | 67 | 1011.9 |
| 20260509001818 | 60 | 191 | 0.0 | 0.0 | 0.00 | 0.01 | 0.01 | 68 | 1011.9 |
| 20260509001723 | 60 | 191 | 0.0 | 0.0 | 0.00 | 0.01 | 0.01 | 67 | 1011.8 |
| 20260509001631 | 60 | 190 | 0.0 | 0.0 | 0.00 | 0.01 | 0.01 | 66 | 1011.9 |
| 20260509001530 | 60 | 190 | 0.0 | 0.0 | 0.00 | 0.01 | 0.01 | 66 | 1011.8 |
| 20260509001516 | 60 | 191 | 0.0 | 0.0 | 0.00 | 0.01 | 0.01 | 66 | 1011.8 |
| 20260509001429 | 60 | 190 | 0.0 | 0.0 | 0.00 | 0.01 | 0.01 | 63 | 1011.8 |
| 20260509001319 | 60 | 191 | 0.0 | 0.0 | 0.00 | 0.01 | 0.01 | 63 | 1011.8 |
| 20260509001226 | 60 | 191 | 0.0 | 0.0 | 0.00 | 0.01 | 0.01 | 63 | 1011.9 |
| 20260509001113 | 60 | 191 | 0.0 | 0.0 | 0.00 | 0.01 | 0.01 | 61 | 1011.8 |
| 20260509001020 | 60 | 191 | 0.0 | 0.0 | 0.00 | 0.01 | 0.01 | 61 | 1011.8 |
| 20260509000926 | 61 | 190 | 0.0 | 0.0 | 0.00 | 0.01 | 0.01 | 58 | 1011.8 |
| 20260509000824 | 61 | 190 | 0.0 | 0.0 | 0.00 | 0.01 | 0.01 | 60 | 1011.8 |
| 20260509000720 | 61 | 190 | 0.0 | 0.0 | 0.00 | 0.01 | 0.01 | 60 | 1011.8 |
| 20260509000627 | 61 | 190 | 0.0 | 0.0 | 0.00 | 0.01 | 0.01 | 58 | 1011.8 |
| 20260509000511 | 61 | 190 | 0.0 | 0.0 | 0.00 | 0.01 | 0.01 | 61 | 1011.7 |
| 20260509000418 | 61 | 191 | 0.0 | 0.0 | 0.00 | 0.01 | 0.01 | 60 | 1011.7 |
| 20260509000330 | 61 | 190 | 0.0 | 0.0 | 0.00 | 0.01 | 0.01 | 62 | 1011.8 |
| 20260509000219 | 61 | 191 | 0.0 | 0.0 | 0.00 | 0.01 | 0.01 | 62 | 1011.7 |
| 20260509000125 | 61 | 191 | 0.0 | 0.0 | 0.00 | 0.01 | 0.01 | 61 | 1011.8 |
| 20260509000110 | 61 | 191 | 0.0 | 0.0 | 0.00 | 0.01 | 0.01 | 60 | 1011.7 |
| 20260509000026 | 62 | 191 | 0.0 | 0.0 | 0.00 | 0.01 | 0.01 | 60 | 1011.7 |
| 20260508235914 | 62 | 191 | 0.0 | 0.0 | 0.00 | 0.01 | 0.01 | 57 | 1011.7 |
| 20260508235846 | 62 | 191 | 0.0 | 0.0 | 0.00 | 0.01 | 0.01 | 57 | 1011.7 |
| 20260508235714 | 62 | 190 | 0.0 | 0.0 | 0.00 | 0.01 | 0.01 | 58 | 1011.7 |
| 20260508235620 | 62 | 191 | 0.0 | 0.0 | 0.00 | 0.01 | 0.01 | 58 | 1011.7 |
| 20260508235523 | 62 | 191 | 0.0 | 0.0 | 0.00 | 0.01 | 0.01 | 59 | 1011.7 |
| 20260508235435 | 62 | 191 | 0.0 | 0.0 | 0.00 | 0.01 | 0.01 | 60 | 1011.7 |
| 20260508235317 | 62 | 191 | 0.0 | 0.0 | 0.00 | 0.01 | 0.01 | 59 | 1011.7 |
| 20260508235224 | 62 | 190 | 0.0 | 0.0 | 0.00 | 0.01 | 0.01 | 57 | 1011.6 |
| 20260508235132 | 62 | 191 | 0.0 | 0.0 | 0.00 | 0.01 | 0.01 | 56 | 1011.6 |
| 20260508235025 | 63 | 191 | 0.0 | 0.0 | 0.00 | 0.01 | 0.01 | 59 | 1011.6 |
| 20260508234931 | 63 | 191 | 0.0 | 0.0 | 0.00 | 0.01 | 0.01 | 56 | 1011.6 |
| 20260508234818 | 63 | 191 | 0.0 | 0.0 | 0.00 | 0.01 | 0.01 | 57 | 1011.6 |
| 20260508234744 | 63 | 191 | 0.0 | 0.0 | 0.00 | 0.01 | 0.01 | 55 | 1011.6 |
| 20260508234610 | 63 | 191 | 0.0 | 0.0 | 0.00 | 0.01 | 0.01 | 56 | 1011.6 |
| 20260508234528 | 63 | 191 | 0.0 | 0.0 | 0.00 | 0.01 | 0.01 | 53 | 1011.6 |
| 20260508234510 | 62 | 190 | 0.0 | 0.0 | 0.00 | 0.01 | 0.01 | 53 | 1011.4 |
| 20260508234433 | 63 | 191 | 0.0 | 0.0 | 0.00 | 0.01 | 0.01 | 55 | 1011.5 |
| 20260508234319 | 63 | 191 | 0.0 | 0.0 | 0.00 | 0.01 | 0.01 | 55 | 1011.5 |
| 20260508234232 | 63 | 191 | 0.0 | 0.0 | 0.00 | 0.01 | 0.01 | 56 | 1011.4 |
| 20260508234119 | 63 | 191 | 0.0 | 0.0 | 0.00 | 0.01 | 0.01 | 60 | 1011.5 |
| 20260508234024 | 63 | 191 | 0.0 | 0.0 | 0.00 | 0.01 | 0.01 | 51 | 1011.4 |
| 20260508233915 | 63 | 191 | 0.0 | 0.0 | 0.00 | 0.01 | 0.01 | 53 | 1011.4 |
| 20260508233822 | 63 | 140 | 0.0 | 0.0 | 0.00 | 0.01 | 0.01 | 53 | 1011.4 |
| 20260508233728 | 63 | 140 | 0.0 | 0.0 | 0.00 | 0.01 | 0.01 | 53 | 1011.4 |
| 20260508233615 | 63 | 139 | 0.0 | 0.0 | 0.00 | 0.01 | 0.01 | 56 | 1011.4 |
| 20260508233528 | 64 | 139 | 0.0 | 0.0 | 0.00 | 0.01 | 0.01 | 54 | 1011.4 |
| 20260508233418 | 64 | 139 | 0.0 | 0.0 | 0.00 | 0.01 | 0.01 | 55 | 1011.4 |
| 20260508233325 | 64 | 148 | 0.0 | 0.0 | 0.00 | 0.01 | 0.01 | 54 | 1011.3 |
| 20260508233211 | 64 | 159 | 0.0 | 0.0 | 0.00 | 0.01 | 0.01 | 52 | 1011.4 |
| 20260508233138 | 64 | 159 | 0.0 | 0.0 | 0.00 | 0.01 | 0.01 | 52 | 1011.4 |
| 20260508233030 | 64 | 159 | 0.0 | 0.0 | 0.00 | 0.01 | 0.01 | 52 | 1011.4 |
| 20260508233009 | 63 | 159 | 0.0 | 0.0 | 0.00 | 0.01 | 0.01 | 51 | 1011.4 |
| 20260508232916 | 64 | 159 | 0.0 | 0.0 | 0.00 | 0.01 | 0.01 | 52 | 1011.3 |
| 20260508232827 | 64 | 159 | 0.0 | 0.0 | 0.00 | 0.01 | 0.01 | 52 | 1011.3 |
| 20260508232713 | 64 | 159 | 0.0 | 0.0 | 0.00 | 0.01 | 0.01 | 53 | 1011.3 |
| 20260508232620 | 64 | 159 | 0.0 | 0.0 | 0.00 | 0.01 | 0.01 | 52 | 1011.3 |
| 20260508232533 | 64 | 172 | 0.0 | 0.0 | 0.00 | 0.01 | 0.01 | 55 | 1011.3 |
| 20260508232421 | 64 | 172 | 0.0 | 0.0 | 0.00 | 0.01 | 0.01 | 55 | 1011.3 |
| 20260508232311 | 65 | 172 | 0.0 | 0.0 | 0.00 | 0.01 | 0.01 | 52 | 1011.2 |
| 20260508232217 | 65 | 172 | 0.0 | 0.0 | 0.00 | 0.01 | 0.01 | 55 | 1011.2 |
| 20260508232124 | 65 | 172 | 0.0 | 0.0 | 0.00 | 0.01 | 0.01 | 58 | 1011.2 |
| 20260508232011 | 65 | 165 | 0.0 | 0.0 | 0.00 | 0.01 | 0.01 | 50 | 1011.3 |
| 20260508231944 | 65 | 165 | 0.0 | 0.0 | 0.00 | 0.01 | 0.01 | 54 | 1011.3 |
| 20260508231809 | 65 | 165 | 0.0 | 0.0 | 0.00 | 0.01 | 0.01 | 53 | 1011.3 |
| 20260508231719 | 65 | 165 | 0.0 | 0.0 | 0.00 | 0.01 | 0.01 | 51 | 1011.3 |
| 20260508231627 | 65 | 165 | 0.0 | 0.0 | 0.00 | 0.01 | 0.01 | 52 | 1011.2 |
| 20260508231539 | 66 | 165 | 0.0 | 0.0 | 0.00 | 0.01 | 0.01 | 54 | 1011.2 |
| 20260508231526 | 65 | 165 | 0.0 | 0.0 | 0.00 | 0.01 | 0.01 | 54 | 1011.2 |
| 20260508231442 | 66 | 165 | 0.0 | 0.0 | 0.00 | 0.01 | 0.01 | 48 | 1011.2 |
| 20260508231342 | 66 | 165 | 0.0 | 0.0 | 0.00 | 0.01 | 0.01 | 49 | 1011.2 |
| 20260508231228 | 66 | 169 | 0.0 | 0.0 | 0.00 | 0.01 | 0.01 | 52 | 1011.2 |
| 20260508231119 | 66 | 89 | 0.0 | 0.0 | 0.00 | 0.01 | 0.01 | 53 | 1011.2 |
| 20260508231031 | 66 | 89 | 0.0 | 0.0 | 0.00 | 0.01 | 0.01 | 45 | 1011.2 |
| 20260508230917 | 66 | 98 | 0.0 | 0.0 | 0.00 | 0.01 | 0.01 | 47 | 1011.2 |
| 20260508230824 | 66 | 107 | 0.0 | 0.0 | 0.00 | 0.01 | 0.01 | 47 | 1011.1 |
| 20260508230710 | 66 | 107 | 0.0 | 0.0 | 0.00 | 0.01 | 0.01 | 51 | 1011.2 |
| 20260508230617 | 67 | 101 | 0.0 | 0.0 | 0.00 | 0.01 | 0.01 | 47 | 1011.2 |
| 20260508230534 | 67 | 96 | 0.0 | 0.0 | 0.00 | 0.01 | 0.01 | 50 | 1011.2 |
| 20260508230413 | 67 | 96 | 0.0 | 0.0 | 0.00 | 0.01 | 0.01 | 50 | 1011.1 |
| 20260508230326 | 67 | 96 | 0.0 | 0.0 | 0.00 | 0.01 | 0.01 | 45 | 1011.1 |
| 20260508230233 | 68 | 96 | 0.0 | 0.0 | 0.00 | 0.01 | 0.01 | 53 | 1011.1 |
| 20260508230119 | 68 | 96 | 0.0 | 0.0 | 0.00 | 0.01 | 0.01 | 45 | 1011.1 |
| 20260508230027 | 67 | 76 | 0.0 | 0.0 | 0.00 | 0.01 | 0.01 | 48 | 1011.1 |
| 20260508230009 | 68 | 76 | 0.0 | 0.0 | 0.00 | 0.01 | 0.01 | 48 | 1011.1 |
| 20260508225922 | 68 | 76 | 0.0 | 0.0 | 0.00 | 0.01 | 0.01 | 47 | 1011.1 |
| 20260508225809 | 68 | 75 | 0.0 | 0.0 | 0.00 | 0.01 | 0.01 | 46 | 1011.2 |
| 20260508225715 | 68 | 75 | 0.0 | 0.0 | 0.00 | 0.01 | 0.01 | 45 | 1011.1 |
| 20260508225622 | 68 | 75 | 0.0 | 0.0 | 0.00 | 0.01 | 0.01 | 41 | 1011.1 |
| 20260508225509 | 68 | 75 | 0.0 | 0.0 | 0.00 | 0.01 | 0.01 | 41 | 1011.2 |
| 20260508225420 | 68 | 74 | 0.0 | 0.0 | 0.00 | 0.01 | 0.01 | 40 | 1011.2 |
| 20260508225333 | 68 | 43 | 0.0 | 0.0 | 0.00 | 0.01 | 0.01 | 43 | 1011.2 |
| 20260508225219 | 68 | 50 | 0.0 | 0.0 | 0.00 | 0.01 | 0.01 | 44 | 1011.2 |
| 20260508225126 | 69 | 275 | 0.0 | 0.0 | 0.00 | 0.01 | 0.01 | 46 | 1011.2 |
| 20260508225013 | 69 | 13 | 0.0 | 0.0 | 0.00 | 0.01 | 0.01 | 45 | 1011.2 |
| 20260508224926 | 69 | 159 | 0.0 | 0.0 | 0.00 | 0.01 | 0.01 | 47 | 1011.2 |
| 20260508224816 | 69 | 76 | 0.0 | 0.0 | 0.00 | 0.01 | 0.01 | 45 | 1011.2 |
| 20260508224722 | 69 | 278 | 0.0 | 0.0 | 0.00 | 0.01 | 0.01 | 45 | 1011.2 |
| 20260508224609 | 69 | 278 | 0.0 | 0.0 | 0.00 | 0.01 | 0.01 | 39 | 1011.1 |
| 20260508224548 | 68 | 278 | 0.0 | 0.0 | 0.00 | 0.01 | 0.01 | 39 | 1011.1 |
| 20260508224515 | 69 | 69 | 0.0 | 0.0 | 0.00 | 0.01 | 0.01 | 39 | 1011.2 |
| 20260508224421 | 69 | 71 | 0.0 | 0.0 | 0.00 | 0.01 | 0.01 | 39 | 1011.2 |
| 20260508224311 | 69 | 24 | 0.0 | 0.0 | 0.00 | 0.01 | 0.01 | 40 | 1011.2 |
| 20260508224224 | 69 | 71 | 0.0 | 0.0 | 0.00 | 0.01 | 0.01 | 39 | 1011.2 |
| 20260508224131 | 69 | 50 | 0.0 | 0.0 | 0.00 | 0.01 | 0.01 | 40 | 1011.1 |
| 20260508224016 | 69 | 13 | 0.0 | 0.0 | 0.00 | 0.01 | 0.01 | 40 | 1011.1 |
| 20260508223923 | 69 | 5 | 0.0 | 0.0 | 0.00 | 0.01 | 0.01 | 39 | 1011.1 |
| 20260508223809 | 69 | 58 | 0.0 | 0.0 | 0.00 | 0.01 | 0.01 | 39 | 1011.1 |
| 20260508223726 | 69 | 342 | 0.0 | 0.0 | 0.00 | 0.01 | 0.01 | 43 | 1011.1 |
| 20260508223613 | 69 | 237 | 0.0 | 0.0 | 0.00 | 0.01 | 0.01 | 41 | 1011.1 |
| 20260508223539 | 69 | 198 | 0.0 | 0.0 | 0.00 | 0.01 | 0.01 | 39 | 1011.1 |
| 20260508223431 | 69 | 271 | 0.0 | 0.0 | 0.00 | 0.01 | 0.01 | 40 | 1011.1 |
| 20260508223318 | 69 | 28 | 0.0 | 0.0 | 0.00 | 0.01 | 0.01 | 41 | 1011.0 |
| 20260508223224 | 69 | 28 | 0.0 | 0.0 | 0.00 | 0.01 | 0.01 | 40 | 1011.0 |
| 20260508223114 | 69 | 28 | 0.0 | 0.0 | 0.00 | 0.01 | 0.01 | 43 | 1011.1 |
| 20260508223047 | 68 | 26 | 0.0 | 0.0 | 0.00 | 0.01 | 0.01 | 43 | 1011.0 |
| 20260508223020 | 69 | 56 | 0.0 | 0.0 | 0.00 | 0.01 | 0.01 | 42 | 1011.1 |
| 20260508222927 | 69 | 38 | 0.0 | 0.0 | 0.00 | 0.01 | 0.01 | 45 | 1011.1 |
| 20260508222814 | 69 | 48 | 0.0 | 0.0 | 0.00 | 0.01 | 0.01 | 42 | 1011.1 |
| 20260508222723 | 69 | 53 | 0.0 | 0.0 | 0.00 | 0.01 | 0.01 | 39 | 1011.1 |
| 20260508222614 | 69 | 35 | 0.0 | 0.0 | 0.00 | 0.01 | 0.01 | 39 | 1011.1 |
| 20260508222521 | 69 | 64 | 0.0 | 0.0 | 0.00 | 0.01 | 0.01 | 40 | 1011.0 |
| 20260508222421 | 69 | 59 | 0.0 | 0.0 | 0.00 | 0.01 | 0.01 | 40 | 1011.0 |
| 20260508222334 | 69 | 63 | 0.0 | 0.0 | 0.00 | 0.01 | 0.01 | 41 | 1011.0 |
| 20260508222212 | 69 | 94 | 0.0 | 0.0 | 0.00 | 0.01 | 0.01 | 39 | 1011.1 |
| 20260508222126 | 69 | 59 | 0.0 | 0.0 | 0.00 | 0.01 | 0.01 | 39 | 1011.1 |
| 20260508222016 | 69 | 59 | 0.0 | 1.0 | 0.00 | 0.01 | 0.01 | 40 | 1011.1 |
| 20260508221923 | 70 | 109 | 0.0 | 1.0 | 0.00 | 0.01 | 0.01 | 39 | 1011.1 |
| 20260508221809 | 70 | 64 | 0.0 | 3.0 | 0.00 | 0.01 | 0.01 | 40 | 1011.1 |
| 20260508221716 | 70 | 76 | 0.0 | 3.0 | 0.00 | 0.01 | 0.01 | 39 | 1011.0 |
| 20260508221649 | 70 | 336 | 0.0 | 3.0 | 0.00 | 0.01 | 0.01 | 39 | 1011.0 |
| 20260508221604 | 69 | 95 | 0.0 | 3.0 | 0.00 | 0.01 | 0.01 | 41 | 1011.0 |
| 20260508221518 | 70 | 69 | 0.0 | 3.0 | 0.00 | 0.01 | 0.01 | 42 | 1011.0 |
| 20260508221424 | 70 | 22 | 0.0 | 3.0 | 0.00 | 0.01 | 0.01 | 38 | 1011.0 |
| 20260508221310 | 70 | 57 | 0.0 | 3.0 | 0.00 | 0.01 | 0.01 | 38 | 1011.0 |
| 20260508221217 | 70 | 48 | 0.0 | 3.0 | 0.00 | 0.01 | 0.01 | 38 | 1011.0 |
| 20260508221131 | 70 | 9 | 0.0 | 3.0 | 0.00 | 0.01 | 0.01 | 38 | 1011.0 |
| 20260508221038 | 70 | 34 | 0.0 | 3.0 | 0.00 | 0.01 | 0.01 | 38 | 1011.1 |
| 20260508220926 | 71 | 43 | 0.0 | 3.0 | 0.00 | 0.01 | 0.01 | 39 | 1011.1 |
| 20260508220813 | 71 | 32 | 0.0 | 1.0 | 0.00 | 0.01 | 0.01 | 37 | 1011.0 |
| 20260508220725 | 71 | 54 | 0.0 | 0.0 | 0.00 | 0.01 | 0.01 | 38 | 1011.0 |
| 20260508220613 | 71 | 77 | 0.0 | 5.0 | 0.00 | 0.01 | 0.01 | 37 | 1011.0 |
| 20260508220518 | 71 | 302 | 0.0 | 5.0 | 0.00 | 0.01 | 0.01 | 37 | 1011.0 |
| 20260508220445 | 71 | 251 | 0.0 | 5.0 | 0.00 | 0.01 | 0.01 | 37 | 1011.1 |
| 20260508220314 | 71 | 344 | 0.0 | 5.0 | 0.00 | 0.01 | 0.01 | 37 | 1011.0 |
| 20260508220227 | 71 | 292 | 0.0 | 5.0 | 0.00 | 0.01 | 0.01 | 37 | 1011.0 |
| 20260508220113 | 71 | 311 | 0.0 | 5.0 | 0.00 | 0.01 | 0.01 | 37 | 1011.0 |
| 20260508220056 | 71 | 319 | 0.0 | 5.0 | 0.00 | 0.01 | 0.01 | 37 | 1011.0 |
| 20260508220019 | 71 | 294 | 0.0 | 5.0 | 0.00 | 0.01 | 0.01 | 37 | 1011.0 |
| 20260508215952 | 71 | 292 | 0.0 | 5.0 | 0.00 | 0.01 | 0.01 | 37 | 1011.0 |
| 20260508215818 | 71 | 38 | 1.0 | 5.0 | 0.00 | 0.01 | 0.01 | 38 | 1011.0 |
| 20260508215709 | 71 | 36 | 0.0 | 2.0 | 0.00 | 0.01 | 0.01 | 38 | 1011.0 |
| 20260508215616 | 71 | 44 | 0.0 | 1.0 | 0.00 | 0.01 | 0.01 | 38 | 1011.0 |
| 20260508215519 | 71 | 136 | 0.0 | 1.0 | 0.00 | 0.01 | 0.01 | 38 | 1011.0 |
| 20260508215426 | 71 | 103 | 0.0 | 1.0 | 0.00 | 0.01 | 0.01 | 38 | 1011.1 |
| 20260508215312 | 71 | 96 | 0.0 | 1.0 | 0.00 | 0.01 | 0.01 | 38 | 1011.1 |
| 20260508215229 | 71 | 42 | 0.0 | 1.0 | 0.00 | 0.01 | 0.01 | 39 | 1011.1 |
| 20260508215116 | 71 | 5 | 0.0 | 1.0 | 0.00 | 0.01 | 0.01 | 39 | 1011.1 |
| 20260508215022 | 71 | 42 | 0.0 | 2.0 | 0.00 | 0.01 | 0.01 | 38 | 1011.1 |
| 20260508214909 | 71 | 40 | 0.0 | 8.0 | 0.00 | 0.01 | 0.01 | 38 | 1011.1 |
| 20260508214816 | 71 | 63 | 0.0 | 8.0 | 0.00 | 0.01 | 0.01 | 43 | 1011.2 |
| 20260508214721 | 71 | 58 | 0.0 | 8.0 | 0.00 | 0.01 | 0.01 | 39 | 1011.2 |
| 20260508214611 | 71 | 26 | 0.0 | 8.0 | 0.00 | 0.01 | 0.01 | 39 | 1011.2 |
| 20260508214524 | 71 | 35 | 0.0 | 8.0 | 0.00 | 0.01 | 0.01 | 40 | 1011.2 |
| 20260508214504 | 70 | 9 | 0.0 | 8.0 | 0.00 | 0.01 | 0.01 | 40 | 1011.2 |
| 20260508214410 | 71 | 10 | 0.0 | 8.0 | 0.00 | 0.01 | 0.01 | 38 | 1011.2 |
| 20260508214317 | 71 | 15 | 0.0 | 8.0 | 0.00 | 0.01 | 0.01 | 37 | 1011.2 |
| 20260508214250 | 71 | 315 | 1.0 | 8.0 | 0.00 | 0.01 | 0.01 | 37 | 1011.1 |
| 20260508214120 | 71 | 48 | 1.0 | 8.0 | 0.00 | 0.01 | 0.01 | 37 | 1011.2 |
| 20260508214026 | 71 | 49 | 1.0 | 8.0 | 0.00 | 0.01 | 0.01 | 38 | 1011.2 |
| 20260508213912 | 71 | 30 | 0.0 | 5.0 | 0.00 | 0.01 | 0.01 | 37 | 1011.2 |
| 20260508213825 | 71 | 87 | 0.0 | 8.0 | 0.00 | 0.01 | 0.01 | 37 | 1011.2 |
| 20260508213730 | 71 | 46 | 0.0 | 8.0 | 0.00 | 0.01 | 0.01 | 36 | 1011.2 |
| 20260508213617 | 71 | 45 | 0.0 | 8.0 | 0.00 | 0.01 | 0.01 | 37 | 1011.2 |
| 20260508213543 | 71 | 32 | 0.0 | 8.0 | 0.00 | 0.01 | 0.01 | 36 | 1011.2 |
| 20260508213439 | 71 | 52 | 1.0 | 8.0 | 0.00 | 0.01 | 0.01 | 36 | 1011.2 |
| 20260508213325 | 71 | 36 | 1.0 | 8.0 | 0.00 | 0.01 | 0.01 | 36 | 1011.2 |
| 20260508213211 | 71 | 360 | 0.0 | 8.0 | 0.00 | 0.01 | 0.01 | 37 | 1011.2 |
| 20260508213118 | 71 | 326 | 1.0 | 8.0 | 0.00 | 0.01 | 0.01 | 38 | 1011.2 |
| 20260508213031 | 71 | 265 | 1.0 | 8.0 | 0.00 | 0.01 | 0.01 | 35 | 1011.2 |
| 20260508213024 | 71 | 325 | 1.0 | 8.0 | 0.00 | 0.01 | 0.01 | 35 | 1011.2 |
| 20260508212920 | 71 | 206 | 1.0 | 8.0 | 0.00 | 0.01 | 0.01 | 36 | 1011.2 |
| 20260508212847 | 71 | 350 | 0.0 | 3.0 | 0.00 | 0.01 | 0.01 | 36 | 1011.1 |
| 20260508212713 | 71 | 304 | 0.0 | 3.0 | 0.00 | 0.01 | 0.01 | 37 | 1011.2 |
| 20260508212619 | 71 | 13 | 0.0 | 3.0 | 0.00 | 0.01 | 0.01 | 37 | 1011.2 |
| 20260508212532 | 71 | 97 | 0.0 | 1.0 | 0.00 | 0.01 | 0.01 | 37 | 1011.3 |
| 20260508212419 | 71 | 34 | 0.0 | 1.0 | 0.00 | 0.01 | 0.01 | 36 | 1011.2 |
| 20260508212309 | 71 | 226 | 0.0 | 1.0 | 0.00 | 0.01 | 0.01 | 36 | 1011.2 |
| 20260508212216 | 71 | 336 | 0.0 | 1.0 | 0.00 | 0.01 | 0.01 | 37 | 1011.2 |
| 20260508212123 | 71 | 5 | 0.0 | 2.0 | 0.00 | 0.01 | 0.01 | 39 | 1011.3 |